[[{"header":{"parameterUnit":"m.s-1","parameterCategory":1,"la1":30.6,"la2":29.2853,"lo1":-89.7004,"lo2":-87.6739,"dy":0.0162,"dx":0.0183,"nx":112,"ny":82,"refTime":"2025-05-22T18:00:00:Z","depth":0,"parameterNumber":2,"parameterNumberName":"U-component_of_WINDS"},"data":[0.0,0.0,0.0,0.0,0.0,0.0,0.0,0.0,0.0,0.0,0.0,0.0,0.0,0.0,0.0,0.0,0.0,0.0,0.0,0.0,0.0,0.0,0.0,0.0,0.0,0.0,0.0,0.0,0.0,0.0,0.0,0.0,0.0,0.0,0.0,0.0,0.0,0.0,0.0,0.0,0.0,0.0,0.0,0.0,0.0,0.0,0.0,0.0,0.0,0.0,0.0,0.0,0.0,0.0,0.0,0.0,0.0,0.0,0.0,0.0,0.0,0.0,0.0,0.0,0.0,0.0,0.0,0.0,0.0,0.0,0.0,0.0,0.0,0.0,0.0,0.0,0.0,0.0,0.0,0.0,0.0,0.0,0.0,0.0,0.0,0.0,0.0,0.0,0.0,0.0,-3.3151,-3.3371,-3.4717,-3.5598,-3.5598,-3.461,-3.368,-3.2949,0.0,0.0,0.0,0.0,0.0,0.0,0.0,0.0,0.0,0.0,0.0,0.0,0.0,0.0,0.0,0.0,0.0,0.0,0.0,0.0,0.0,0.0,0.0,0.0,0.0,0.0,0.0,0.0,0.0,0.0,0.0,0.0,0.0,0.0,0.0,0.0,0.0,0.0,0.0,0.0,0.0,0.0,0.0,0.0,0.0,0.0,0.0,0.0,0.0,0.0,0.0,0.0,0.0,0.0,0.0,0.0,0.0,0.0,0.0,0.0,0.0,0.0,0.0,0.0,0.0,0.0,0.0,0.0,0.0,0.0,0.0,0.0,0.0,0.0,0.0,0.0,0.0,0.0,0.0,0.0,0.0,0.0,0.0,0.0,0.0,0.0,0.0,0.0,0.0,0.0,0.0,0.0,0.0,0.0,0.0,0.0,0.0,0.0,0.0,0.0,0.0,0.0,0.0,0.0,-3.259,-3.4066,-3.5046,-3.5598,-3.5598,-3.4051,-3.3045,-3.291,0.0,0.0,0.0,0.0,0.0,0.0,0.0,0.0,0.0,0.0,0.0,0.0,0.0,0.0,0.0,0.0,0.0,0.0,0.0,0.0,0.0,0.0,0.0,0.0,0.0,0.0,0.0,0.0,0.0,0.0,0.0,0.0,0.0,0.0,0.0,0.0,0.0,0.0,0.0,0.0,0.0,0.0,0.0,0.0,0.0,0.0,0.0,0.0,0.0,0.0,0.0,0.0,0.0,0.0,0.0,0.0,0.0,0.0,0.0,0.0,0.0,0.0,0.0,0.0,0.0,0.0,0.0,0.0,0.0,0.0,0.0,0.0,0.0,0.0,0.0,0.0,0.0,0.0,0.0,0.0,0.0,0.0,0.0,0.0,0.0,0.0,0.0,0.0,0.0,0.0,0.0,0.0,0.0,0.0,0.0,0.0,0.0,0.0,0.0,0.0,0.0,0.0,0.0,-3.2844,-3.3209,-3.4921,-3.5402,-3.5598,-3.5598,-3.4379,-3.3391,-3.2929,-3.2141,0.0,0.0,0.0,0.0,0.0,0.0,0.0,0.0,0.0,0.0,0.0,0.0,0.0,0.0,0.0,0.0,0.0,0.0,0.0,0.0,0.0,0.0,0.0,0.0,0.0,0.0,0.0,0.0,0.0,0.0,0.0,0.0,0.0,0.0,0.0,0.0,0.0,0.0,0.0,0.0,0.0,0.0,0.0,0.0,0.0,0.0,0.0,0.0,0.0,0.0,0.0,0.0,0.0,0.0,0.0,0.0,0.0,0.0,0.0,0.0,0.0,0.0,0.0,0.0,0.0,0.0,0.0,0.0,0.0,0.0,0.0,0.0,0.0,0.0,0.0,0.0,0.0,0.0,0.0,0.0,0.0,0.0,0.0,0.0,0.0,0.0,0.0,0.0,0.0,0.0,0.0,0.0,0.0,0.0,0.0,0.0,0.0,0.0,0.0,0.0,0.0,0.0,-3.3956,-3.4274,-3.556,-3.5633,-3.5598,-3.5598,-3.4552,-3.3603,-3.2949,-3.1948,0.0,0.0,0.0,0.0,0.0,0.0,0.0,0.0,0.0,0.0,0.0,0.0,0.0,0.0,0.0,0.0,0.0,0.0,0.0,0.0,0.0,0.0,0.0,0.0,0.0,0.0,0.0,0.0,0.0,0.0,0.0,0.0,0.0,0.0,0.0,0.0,0.0,0.0,0.0,0.0,0.0,0.0,0.0,0.0,0.0,0.0,0.0,0.0,0.0,0.0,0.0,0.0,0.0,0.0,0.0,0.0,0.0,0.0,0.0,0.0,0.0,0.0,0.0,0.0,0.0,0.0,0.0,0.0,0.0,0.0,0.0,0.0,0.0,0.0,0.0,0.0,0.0,0.0,0.0,0.0,0.0,0.0,0.0,0.0,0.0,0.0,0.0,0.0,0.0,0.0,0.0,0.0,0.0,0.0,0.0,0.0,0.0,0.0,0.0,0.0,0.0,0.0,-3.4554,-3.5579,-3.569,-3.5633,-3.5598,-3.5598,-3.3994,-3.2968,-3.2891,-3.1385,0.0,0.0,0.0,0.0,0.0,0.0,0.0,0.0,0.0,0.0,0.0,0.0,0.0,0.0,0.0,0.0,0.0,0.0,0.0,0.0,0.0,0.0,0.0,0.0,0.0,0.0,0.0,0.0,0.0,0.0,0.0,0.0,0.0,0.0,0.0,0.0,0.0,0.0,0.0,0.0,0.0,0.0,0.0,0.0,0.0,0.0,0.0,0.0,0.0,0.0,0.0,0.0,0.0,0.0,0.0,0.0,0.0,0.0,0.0,0.0,0.0,0.0,0.0,0.0,0.0,0.0,0.0,0.0,0.0,0.0,0.0,0.0,0.0,0.0,0.0,0.0,0.0,0.0,0.0,0.0,0.0,0.0,0.0,0.0,0.0,0.0,0.0,0.0,0.0,0.0,0.0,0.0,0.0,0.0,0.0,0.0,0.0,0.0,0.0,0.0,0.0,0.0,-3.4178,-3.5141,-3.5657,-3.5631,-3.5596,-3.5598,-3.4436,-3.3474,-3.2929,0.0,0.0,0.0,0.0,0.0,0.0,0.0,0.0,0.0,0.0,0.0,0.0,0.0,0.0,0.0,0.0,0.0,0.0,0.0,0.0,0.0,0.0,0.0,0.0,0.0,0.0,0.0,0.0,0.0,0.0,0.0,0.0,0.0,0.0,0.0,0.0,0.0,0.0,0.0,0.0,0.0,0.0,0.0,0.0,0.0,0.0,0.0,0.0,0.0,0.0,0.0,0.0,0.0,0.0,0.0,0.0,0.0,0.0,0.0,0.0,0.0,0.0,0.0,0.0,0.0,0.0,0.0,0.0,0.0,0.0,0.0,0.0,0.0,0.0,0.0,0.0,0.0,0.0,0.0,0.0,0.0,0.0,0.0,0.0,0.0,0.0,0.0,0.0,0.0,0.0,0.0,0.0,0.0,0.0,0.0,0.0,0.0,0.0,0.0,0.0,0.0,0.0,-3.3025,-3.4132,-3.5085,-3.5643,-3.5643,-3.5595,-3.5596,-3.4499,-3.3563,-3.2968,0.0,0.0,0.0,0.0,0.0,0.0,0.0,0.0,0.0,0.0,0.0,0.0,0.0,0.0,0.0,0.0,0.0,0.0,0.0,0.0,0.0,0.0,0.0,0.0,0.0,0.0,0.0,0.0,0.0,0.0,0.0,0.0,0.0,0.0,0.0,0.0,0.0,0.0,0.0,0.0,0.0,0.0,0.0,0.0,0.0,0.0,0.0,0.0,0.0,0.0,0.0,0.0,0.0,0.0,0.0,0.0,0.0,0.0,0.0,0.0,0.0,0.0,0.0,0.0,0.0,0.0,0.0,0.0,0.0,0.0,0.0,0.0,0.0,0.0,0.0,0.0,0.0,0.0,0.0,0.0,0.0,0.0,0.0,0.0,0.0,0.0,0.0,0.0,0.0,0.0,0.0,0.0,0.0,0.0,0.0,0.0,0.0,0.0,0.0,0.0,0.0,0.0,-3.3103,-3.4613,-3.5702,-3.5701,-3.5643,-3.5606,-3.5606,-3.3994,-3.2995,0.0,0.0,0.0,0.0,0.0,0.0,0.0,0.0,0.0,0.0,0.0,0.0,0.0,0.0,0.0,0.0,0.0,0.0,0.0,0.0,0.0,0.0,0.0,0.0,0.0,0.0,0.0,0.0,0.0,0.0,0.0,0.0,0.0,0.0,0.0,0.0,0.0,0.0,0.0,0.0,0.0,0.0,0.0,0.0,0.0,0.0,0.0,0.0,0.0,0.0,0.0,0.0,0.0,0.0,0.0,0.0,0.0,0.0,0.0,0.0,0.0,0.0,0.0,0.0,0.0,0.0,0.0,0.0,0.0,0.0,0.0,0.0,0.0,0.0,0.0,0.0,0.0,0.0,0.0,0.0,0.0,0.0,0.0,0.0,0.0,0.0,0.0,0.0,0.0,0.0,0.0,0.0,0.0,0.0,0.0,0.0,0.0,0.0,0.0,0.0,0.0,0.0,0.0,-3.3099,-3.469,-3.5755,-3.5706,-3.5688,-3.5648,-3.5606,-3.405,-3.3043,-3.3004,0.0,0.0,0.0,0.0,0.0,0.0,0.0,0.0,0.0,0.0,0.0,0.0,0.0,0.0,0.0,0.0,0.0,0.0,0.0,0.0,0.0,0.0,0.0,0.0,0.0,0.0,0.0,0.0,0.0,0.0,0.0,0.0,0.0,0.0,0.0,0.0,0.0,0.0,0.0,0.0,0.0,0.0,0.0,0.0,0.0,0.0,0.0,0.0,0.0,0.0,0.0,0.0,0.0,0.0,0.0,0.0,0.0,0.0,0.0,0.0,0.0,0.0,0.0,0.0,0.0,0.0,0.0,0.0,0.0,0.0,0.0,0.0,0.0,0.0,0.0,0.0,0.0,0.0,0.0,0.0,0.0,0.0,0.0,0.0,0.0,0.0,0.0,0.0,0.0,0.0,0.0,0.0,0.0,0.0,0.0,0.0,0.0,0.0,0.0,0.0,0.0,0.0,-3.3101,-3.4724,-3.5768,-3.5706,-3.5694,-3.5679,-3.5643,-3.4077,-3.3089,-3.3045,0.0,0.0,0.0,0.0,0.0,0.0,0.0,0.0,0.0,0.0,0.0,0.0,0.0,0.0,0.0,0.0,0.0,0.0,0.0,0.0,0.0,0.0,0.0,0.0,0.0,0.0,0.0,0.0,0.0,0.0,0.0,0.0,0.0,0.0,0.0,0.0,0.0,0.0,0.0,0.0,0.0,0.0,0.0,0.0,0.0,0.0,0.0,0.0,0.0,0.0,0.0,0.0,0.0,0.0,0.0,0.0,0.0,0.0,0.0,0.0,0.0,0.0,0.0,0.0,0.0,0.0,0.0,0.0,0.0,0.0,0.0,0.0,0.0,0.0,0.0,0.0,0.0,0.0,0.0,0.0,0.0,0.0,0.0,0.0,0.0,0.0,0.0,0.0,0.0,0.0,0.0,0.0,0.0,0.0,0.0,0.0,0.0,0.0,0.0,0.0,0.0,0.0,-3.3115,-3.4733,-3.5774,-3.5718,-3.5704,-3.5676,-3.5593,-3.4054,-3.3077,-3.2979,0.0,0.0,0.0,0.0,0.0,0.0,0.0,0.0,0.0,0.0,0.0,0.0,0.0,0.0,0.0,0.0,0.0,0.0,0.0,0.0,0.0,0.0,0.0,0.0,0.0,0.0,0.0,0.0,0.0,0.0,0.0,0.0,0.0,0.0,0.0,0.0,0.0,0.0,0.0,0.0,0.0,0.0,0.0,0.0,0.0,0.0,0.0,0.0,0.0,0.0,0.0,0.0,0.0,0.0,0.0,0.0,0.0,0.0,0.0,0.0,-3.2577,-3.1641,0.0,0.0,0.0,0.0,0.0,0.0,0.0,0.0,0.0,0.0,0.0,0.0,0.0,0.0,0.0,0.0,0.0,0.0,0.0,0.0,0.0,0.0,0.0,0.0,0.0,0.0,0.0,0.0,0.0,0.0,0.0,0.0,0.0,0.0,0.0,0.0,0.0,0.0,0.0,0.0,-3.3161,-3.4792,-3.5849,-3.5797,-3.5722,-3.5427,-3.4747,-3.3712,-3.2807,-3.2115,-3.0313,0.0,0.0,0.0,0.0,0.0,0.0,0.0,0.0,0.0,0.0,0.0,0.0,0.0,0.0,0.0,0.0,0.0,0.0,0.0,0.0,0.0,0.0,0.0,0.0,0.0,0.0,0.0,0.0,0.0,0.0,0.0,0.0,0.0,0.0,0.0,0.0,0.0,0.0,0.0,0.0,0.0,0.0,0.0,0.0,0.0,0.0,0.0,0.0,0.0,0.0,0.0,0.0,0.0,0.0,0.0,0.0,0.0,0.0,0.0,-3.3514,-3.2754,0.0,0.0,0.0,0.0,0.0,0.0,0.0,0.0,0.0,0.0,0.0,0.0,0.0,0.0,0.0,0.0,0.0,0.0,0.0,0.0,0.0,0.0,0.0,0.0,0.0,0.0,0.0,0.0,0.0,0.0,0.0,0.0,0.0,0.0,0.0,0.0,0.0,0.0,0.0,0.0,-3.3245,-3.4833,-3.5889,-3.5849,-3.5768,-3.5351,-3.4511,-3.3626,-3.2734,-3.1854,-3.0226,0.0,0.0,0.0,0.0,0.0,0.0,0.0,0.0,0.0,0.0,0.0,0.0,0.0,0.0,0.0,0.0,0.0,0.0,0.0,0.0,0.0,0.0,0.0,0.0,0.0,0.0,0.0,0.0,0.0,0.0,0.0,0.0,0.0,0.0,0.0,0.0,0.0,0.0,0.0,0.0,0.0,0.0,0.0,0.0,0.0,0.0,0.0,0.0,0.0,0.0,0.0,0.0,0.0,-3.6905,-3.6963,-3.667,-3.6827,-3.6729,-3.6378,-3.4937,-3.4451,-3.4608,-3.3379,0.0,0.0,0.0,0.0,0.0,0.0,0.0,0.0,0.0,0.0,0.0,0.0,0.0,0.0,0.0,0.0,0.0,0.0,0.0,0.0,0.0,0.0,-3.2949,-3.3301,-3.3516,-3.3203,-3.168,0.0,0.0,0.0,0.0,0.0,0.0,0.0,0.0,0.0,0.0,0.0,-3.3305,-3.4866,-3.5919,-3.5895,-3.5652,-3.5173,-3.4365,-3.343,-3.2513,-3.1647,-3.0284,-2.9453,0.0,0.0,0.0,0.0,0.0,0.0,0.0,0.0,0.0,0.0,0.0,0.0,0.0,0.0,0.0,0.0,0.0,0.0,0.0,0.0,0.0,0.0,0.0,0.0,0.0,0.0,0.0,0.0,0.0,0.0,0.0,0.0,-3.1731,-3.2474,0.0,0.0,0.0,0.0,0.0,0.0,0.0,0.0,0.0,0.0,0.0,0.0,0.0,-3.5827,-3.5826,-3.7447,-3.8267,-3.8286,-4.0507,-4.0758,-3.9315,-4.0076,-3.9627,-3.8242,-3.8014,0.0,-3.474,-3.5271,0.0,0.0,0.0,0.0,0.0,0.0,0.0,0.0,0.0,0.0,0.0,0.0,0.0,0.0,0.0,0.0,0.0,0.0,0.0,0.0,0.0,0.0,-3.5137,-3.373,-3.3984,-3.4258,-3.3281,-3.2598,-3.1894,-3.0918,-3.013,-2.9362,0.0,0.0,0.0,0.0,0.0,0.0,-3.338,-3.4917,-3.5954,-3.5917,-3.5202,-3.4404,-3.3526,-3.2603,-3.1682,-3.0812,-3.0546,-3.0085,-2.9337,-2.908,0.0,0.0,0.0,0.0,0.0,0.0,0.0,0.0,0.0,0.0,0.0,0.0,0.0,0.0,0.0,0.0,0.0,0.0,0.0,0.0,0.0,0.0,0.0,0.0,0.0,0.0,0.0,0.0,0.0,-3.1749,-3.2427,-3.2852,-3.2967,-3.2846,0.0,0.0,0.0,0.0,0.0,0.0,0.0,0.0,0.0,-3.6854,-3.7695,-3.8612,-3.9588,-4.0839,-4.1464,-4.1483,-4.2593,-4.2474,-4.1264,-4.1654,-4.1166,-4.0016,-4.0019,-3.9083,-3.7524,-3.6965,-3.6269,-3.5483,0.0,0.0,0.0,0.0,-3.5109,-3.4865,-3.5869,-3.5589,-3.4832,-3.5258,0.0,0.0,0.0,0.0,0.0,0.0,0.0,-3.3514,-3.4002,-3.4705,-3.5194,-3.492,-3.5154,-3.533,-3.494,-3.4197,-3.3358,-3.2461,-3.1972,-3.1444,-3.0625,-3.0347,0.0,0.0,0.0,-3.3571,-3.4079,-3.5214,-3.5996,-3.5953,-3.5572,-3.4796,-3.3477,-3.2944,-3.2094,-3.0694,-3.0603,-3.0424,-3.0048,-2.959,-2.8992,0.0,0.0,0.0,0.0,0.0,0.0,0.0,0.0,0.0,0.0,0.0,0.0,0.0,0.0,0.0,0.0,0.0,0.0,0.0,0.0,0.0,0.0,0.0,0.0,0.0,0.0,0.0,0.0,-3.2603,-3.3212,-3.3491,-3.4239,-3.4426,0.0,0.0,0.0,0.0,0.0,0.0,-3.6928,-3.7398,-3.8238,-3.9528,-4.0366,-4.142,-4.2728,-4.3372,-4.3801,-4.4036,-4.4036,-4.3587,-4.2728,-4.2728,-4.2142,-4.1109,-4.1109,-4.0738,-4.0016,-3.8562,-3.781,-3.748,-3.6833,-3.6568,-3.665,-3.7244,-3.7086,-3.6742,-3.8073,-3.7688,-3.6636,-3.6914,-3.621,-3.5133,-3.4316,0.0,0.0,0.0,0.0,-3.3921,-3.4819,-3.5034,-3.5209,-3.5854,-3.5991,-3.5991,-3.5991,-3.5483,-3.4762,-3.3905,-3.3554,-3.3203,-3.2617,-3.1973,0.0,-3.2402,-3.3203,-3.3965,-3.4629,-3.5469,-3.5996,-3.5996,-3.5757,-3.5007,-3.3525,-3.3147,-3.2328,-3.0748,-3.0633,-3.0623,-3.0623,-3.0043,-2.9638,-2.9403,0.0,0.0,0.0,0.0,0.0,0.0,0.0,0.0,0.0,0.0,0.0,0.0,0.0,0.0,0.0,0.0,0.0,0.0,0.0,0.0,0.0,0.0,0.0,0.0,0.0,0.0,0.0,0.0,0.0,-3.507,-3.5948,0.0,0.0,0.0,0.0,-3.6805,-3.7646,-3.8553,-3.9563,-4.1186,-4.2123,-4.2201,-4.304,-4.3549,-4.3626,-4.3686,-4.4114,-4.4932,-4.4932,-4.4484,-4.3626,-4.3626,-4.271,-4.1109,-4.1109,-4.109,-4.0973,-4.0119,-3.9283,-3.8526,-3.8418,-3.8375,-3.8374,-3.8413,-3.8394,-3.8396,-3.8534,-3.8531,-3.8608,-3.9428,-3.8549,-3.7007,-3.6127,-3.4701,0.0,0.0,-3.4624,-3.4838,-3.5718,-3.5933,-3.5952,-3.5991,-3.5991,-3.5991,-3.5991,-3.5972,-3.5679,-3.48,-3.3962,-3.3397,-3.3358,0.0,-3.3281,-3.332,-3.4082,-3.4648,-3.4687,-3.5469,-3.5996,-3.5996,-3.5254,-3.4394,-3.3476,-3.2648,-3.1775,-3.0855,-3.0728,-3.0687,-3.0687,-3.0667,-3.0258,-2.9425,-2.9327,0.0,0.0,0.0,0.0,0.0,0.0,0.0,0.0,0.0,0.0,0.0,0.0,0.0,0.0,0.0,0.0,0.0,0.0,0.0,0.0,0.0,0.0,0.0,0.0,0.0,0.0,0.0,0.0,-3.7578,-3.8467,0.0,-3.8723,-3.8712,-3.9124,-4.0089,-4.051,-4.1167,-4.2131,-4.285,-4.3489,-4.4053,-4.4367,-4.4816,-4.5363,-4.5363,-4.5539,-4.5831,-4.5265,-4.4543,-4.3686,-4.3118,-4.222,-4.1109,-4.1109,-4.1109,-4.109,-4.0798,-4.0487,-4.0216,-4.0189,-4.0172,-4.0172,-4.0174,-4.0175,-4.0175,-4.0191,-3.9877,-3.9408,-3.9135,-3.8646,-3.8079,-3.7767,-3.7238,-3.6807,-3.7119,-3.7215,-3.727,-3.7582,-3.7661,-3.7524,-3.6977,-3.6841,-3.6684,-3.6117,-3.6,-3.5902,-3.5609,-3.4835,-3.4235,-3.4235,-3.3767,-3.3591,-3.4158,-3.451,-3.49,-3.5467,-3.5818,-3.5994,-3.5994,-3.572,-3.4959,-3.3513,-3.3125,-3.2323,-3.0891,-3.0786,-3.0762,-3.0762,-3.0762,-3.0632,-3.0368,-2.9802,-2.8533,0.0,0.0,0.0,0.0,0.0,0.0,0.0,0.0,0.0,0.0,0.0,0.0,0.0,0.0,0.0,0.0,0.0,0.0,0.0,0.0,0.0,0.0,0.0,0.0,0.0,-3.6443,-3.7778,-3.895,-4.0307,-4.1061,-4.0891,-4.1149,-4.1585,-4.2259,-4.2698,-4.3222,-4.3909,-4.4343,-4.4836,-4.5421,-4.5441,-4.5714,-4.628,-4.63,-4.63,-4.628,-4.5421,-4.4543,-4.3666,-4.2806,-4.1927,-4.1109,-4.1109,-4.1109,-4.1109,-4.1109,-4.1109,-4.1109,-4.1094,-4.1095,-4.1097,-4.1101,-4.1102,-4.1102,-4.1102,-4.0751,-4.0204,-3.9637,-3.9246,-3.8993,-3.8993,-3.8815,-3.8598,-3.8598,-3.8595,-3.8591,-3.8591,-3.8591,-3.8376,-3.7516,-3.7516,-3.7419,-3.6246,-3.6226,-3.6344,-3.6051,-3.5534,-3.5149,-3.5149,-3.4662,-3.4467,-3.5053,-3.5131,-3.5346,-3.5933,-3.5991,-3.5991,-3.5991,-3.5991,-3.5288,-3.3549,-3.3393,-3.2673,-3.0937,-3.0839,-3.0839,-3.0839,-3.0839,-3.0859,-3.0894,-3.0035,-2.8883,-2.7439,0.0,0.0,0.0,0.0,0.0,0.0,0.0,0.0,0.0,0.0,0.0,0.0,0.0,0.0,0.0,0.0,0.0,0.0,0.0,0.0,0.0,0.0,0.0,-3.5362,-3.7483,-3.9078,-3.9237,-4.137,-4.2537,-4.1788,-4.2487,-4.3026,-4.3168,-4.4072,-4.4691,-4.4837,-4.5765,-4.63,-4.63,-4.63,-4.63,-4.63,-4.63,-4.63,-4.628,-4.5382,-4.4524,-4.3666,-4.2767,-4.1908,-4.1109,-4.1109,-4.1109,-4.1109,-4.1109,-4.1109,-4.1109,-4.1109,-4.1109,-4.1109,-4.1109,-4.1109,-4.1109,-4.1109,-4.1109,-4.1109,-4.1109,-4.0522,-3.9839,-3.9839,-3.9292,-3.8689,-3.8689,-3.8689,-3.8689,-3.8689,-3.8689,-3.8454,-3.7594,-3.8025,-3.8162,-3.6441,-3.6716,-3.7048,-3.6207,-3.6018,-3.6004,-3.6004,-3.6008,-3.5991,-3.5991,-3.5991,0.0,-3.5991,-3.5991,-3.5991,-3.5991,-3.5991,-3.5288,-3.3549,-3.3393,-3.267,-3.0992,-3.0894,-3.0894,-3.0894,-3.0894,-3.0894,-3.0894,-3.0034,-2.9175,-2.8335,0.0,0.0,0.0,0.0,0.0,0.0,0.0,0.0,0.0,0.0,0.0,0.0,0.0,0.0,0.0,0.0,0.0,0.0,0.0,0.0,0.0,-3.6604,-3.819,-3.8811,-3.9499,-4.0616,-4.2441,-4.3243,-4.3847,-4.4298,-4.4576,-4.4748,-4.4827,-4.5198,-4.546,-4.5585,-4.5951,-4.6206,-4.63,-4.63,-4.63,-4.63,-4.63,-4.63,-4.628,-4.4777,-4.3938,-4.3647,-4.2142,-4.1324,-4.1109,-4.1109,-4.1109,-4.1109,-4.1109,-4.1109,-4.1109,-4.1109,-4.1109,-4.1109,-4.1109,-4.1109,-4.1109,-4.1109,-4.1109,-4.1109,-4.1109,-4.0934,-4.0738,-4.0738,-4.0582,-4.0406,-4.0406,-4.0406,-4.0406,-4.0406,-4.0406,-4.0192,-3.9312,-3.9292,-3.9175,-3.8103,-3.7575,-3.7223,-3.6989,-3.6424,-3.5996,-3.5996,-3.5998,-3.5999,-3.5999,-3.5999,-3.5999,-3.5999,-3.5999,-3.5999,-3.5999,-3.5999,-3.5296,-3.3558,-3.3402,-3.266,-3.0943,-3.0825,-3.0825,-3.0825,-3.0825,-3.0825,-3.0825,-3.0029,-2.9482,0.0,0.0,0.0,0.0,0.0,0.0,0.0,0.0,0.0,0.0,0.0,0.0,0.0,0.0,0.0,0.0,0.0,0.0,0.0,0.0,0.0,0.0,-3.8343,-4.0072,-4.1619,-4.1848,-4.2383,-4.3834,-4.4312,-4.4753,-4.531,-4.5348,-4.5389,-4.5448,-4.5577,-4.5729,-4.5897,-4.6033,-4.615,-4.63,-4.63,-4.63,-4.63,-4.63,-4.6124,-4.5734,-4.4367,-4.3509,-4.3118,-4.1734,-4.1109,-4.1109,-4.1109,-4.1109,-4.1109,-4.1109,-4.1109,-4.1109,0.0,0.0,0.0,0.0,-4.1109,-4.1109,-4.1109,-4.1109,-4.1109,-4.1109,-4.1109,-4.1109,-4.1109,-4.1109,-4.1109,-4.1109,-4.1109,-4.1109,-4.1109,-4.1109,-4.0875,-4.0015,-4.0073,-4.0015,-3.8845,-3.8201,-3.7731,-3.7379,-3.6597,0.0,-3.5992,-3.5992,-3.5992,-3.5992,-3.5992,-3.5992,-3.5992,-3.5992,-3.5992,-3.5992,-3.5992,-3.5446,-3.4061,-3.3611,0.0,0.0,0.0,-3.08,-3.08,-3.08,0.0,0.0,0.0,0.0,0.0,0.0,0.0,0.0,-2.8855,-2.9049,0.0,0.0,0.0,0.0,0.0,0.0,0.0,0.0,0.0,0.0,0.0,0.0,0.0,0.0,0.0,0.0,-4.01,-4.1485,-4.3682,-4.4083,-4.414,-4.414,-4.4838,-4.5307,-4.5307,-4.5307,-4.5328,-4.5379,-4.5519,-4.5665,-4.5871,-4.6007,0.0,0.0,0.0,-4.63,-4.63,-4.6202,-4.5773,-4.499,-4.4016,-4.3157,-4.2376,-4.1498,-4.1109,-4.1109,-4.1109,-4.1109,-4.1109,-4.1109,-4.1109,-4.1109,-4.1109,-4.1109,-4.1109,-4.1109,-4.1109,-4.1109,-4.1109,0.0,0.0,-4.1109,-4.1109,-4.1109,-4.1109,-4.1109,-4.1109,-4.1109,-4.1109,-4.1109,-4.1109,-4.1109,-4.0914,-4.0132,-4.0542,-4.0699,-3.9196,-3.8728,-3.8376,-3.7594,-3.6657,-3.5992,-3.5992,-3.5992,-3.5992,-3.5992,-3.5992,-3.5992,-3.5992,-3.5992,-3.5992,-3.5992,-3.5992,0.0,-3.4764,-3.3905,-3.3027,-3.2169,-3.1289,-3.08,-3.08,-3.08,-3.08,-3.08,-3.08,-3.08,-3.08,-3.08,-3.08,-3.0761,-2.9278,-2.9006,0.0,0.0,0.0,0.0,0.0,0.0,0.0,0.0,0.0,0.0,0.0,0.0,0.0,0.0,0.0,-4.0711,-4.2297,-4.3452,-4.393,-4.4609,-4.5048,-4.5048,-4.5201,-4.5307,-4.5307,-4.5307,-4.5328,-4.5379,-4.5409,-4.553,-4.572,-4.5871,-4.5998,-4.6138,-4.6243,-4.63,-4.63,-4.5597,-4.5168,-4.4971,-4.3391,0.0,-4.2376,-4.1498,-4.1109,-4.1109,-4.1109,-4.1109,-4.1109,-4.1109,-4.1109,-4.1109,-4.1109,-4.1109,-4.1109,-4.1109,-4.1109,-4.1109,-4.1109,-4.1109,-4.1109,-4.1109,-4.1109,-4.1109,-4.1109,-4.1109,0.0,-4.1109,-4.1109,-4.1109,-4.1109,-4.1109,-4.1051,-4.0894,-4.0973,-4.1012,-4.0699,-3.9548,-3.8552,-3.8376,-3.7087,-3.5992,-3.5992,-3.5992,-3.5992,-3.5992,-3.5992,-3.5992,-3.5992,-3.5992,-3.5992,-3.5992,-3.5992,-3.5641,-3.4764,-3.3905,-3.3027,-3.2169,-3.1289,-3.08,-3.08,-3.08,-3.08,-3.08,-3.08,-3.08,-3.08,-3.08,-3.08,-3.0781,-3.0468,-3.041,0.0,0.0,0.0,0.0,0.0,0.0,0.0,0.0,0.0,0.0,0.0,-3.7032,-3.9119,0.0,-4.074,-4.2419,-4.3432,-4.4006,-4.4006,-4.4743,-4.5307,-4.5307,-4.5307,-4.5307,-4.5307,-4.5307,-4.5317,-4.5338,-4.5369,-4.5457,-4.5595,-4.5751,-4.5905,-4.6045,-4.6209,-4.608,-4.5656,-4.5226,-4.4561,-4.3683,-4.2825,-4.2162,-4.1732,-4.1304,-4.1109,-4.1109,-4.1109,-4.1109,-4.1109,-4.1109,-4.1109,-4.1109,-4.1109,-4.1109,-4.1109,-4.1109,-4.1109,-4.1109,-4.1109,-4.1109,-4.1109,-4.1109,-4.1109,-4.1109,-4.1109,-4.1109,-4.1109,-4.1109,-4.1109,-4.1109,-4.1109,-4.1109,-4.1109,-4.1109,-4.1109,-4.0973,-4.0542,-3.9489,-3.8474,-3.8025,-3.6891,-3.5992,-3.5992,-3.5992,-3.5992,-3.5992,-3.5992,-3.5992,-3.5992,-3.5992,-3.5992,-3.5992,-3.5992,-3.5817,-3.5389,-3.4157,-3.283,-3.1524,-3.1036,-3.08,-3.08,-3.08,-3.08,-3.08,-3.08,-3.08,-3.08,-3.08,-3.0774,-3.0758,-3.0758,-3.0758,0.0,0.0,0.0,0.0,0.0,0.0,0.0,-3.5798,-3.6739,-3.826,-3.8575,-3.924,-4.14,-4.1823,-4.2425,-4.4111,-4.4298,-4.4302,-4.4435,-4.4942,-4.5307,-4.5307,-4.5307,-4.5307,-4.5307,-4.5307,-4.5307,-4.5307,-4.5348,-4.541,-4.5479,-4.5648,-4.5741,-4.5724,-4.5904,-4.5597,-4.4754,-4.458,-4.3782,-4.2396,-4.224,-4.1771,-4.1109,-4.1109,-4.1109,-4.1109,-4.1109,-4.1109,-4.1109,-4.1109,-4.1109,-4.1109,-4.1109,-4.1109,-4.1109,-4.1109,-4.1109,-4.1109,-4.1109,-4.1109,-4.1109,-4.1109,-4.1109,-4.1109,-4.1109,-4.1109,-4.1109,-4.1109,-4.1109,-4.1109,-4.1109,-4.1109,-4.1051,-4.0894,-4.0855,-4.06,-3.9741,-3.8921,-3.8142,-3.7438,-3.6597,-3.5992,-3.5992,-3.5992,-3.5992,-3.5992,-3.5992,-3.5992,-3.5992,-3.5992,-3.5992,-3.5992,-3.5992,-3.5934,-3.5758,-3.4294,-3.2733,-3.1153,-3.0898,-3.08,-3.08,-3.08,-3.08,-3.08,-3.08,-3.08,-3.08,-3.0795,-3.0741,-3.0709,-3.0699,-3.0675,-3.4633,-3.4718,-3.4965,-3.5733,-3.6539,-3.7724,0.0,-4.0539,-4.0872,-4.1846,-4.2047,-4.2332,-4.3333,-4.3534,-4.4105,-4.5837,-4.5532,-4.5317,-4.6042,-4.5647,-4.5307,-4.5307,-4.5307,-4.5307,-4.5307,-4.5307,-4.5307,-4.5307,-4.5307,-4.5348,-4.5419,-4.5498,-4.5286,-4.476,-4.4835,-4.4553,-4.3847,-4.3074,-4.2591,-4.2396,-4.1615,-4.1187,-4.1109,-4.1109,-4.1109,-4.1109,-4.1109,-4.1109,-4.1109,-4.1109,-4.1109,-4.1109,-4.1109,-4.1109,-4.1109,-4.1109,-4.1109,-4.1109,-4.1109,-4.1109,-4.1109,-4.1109,-4.1109,-4.1109,-4.1109,-4.1109,-4.1109,-4.1109,-4.1109,-4.1109,-4.1109,-4.1109,-4.0894,-4.0132,-3.9956,-3.9722,-3.8903,-3.8064,-3.7419,-3.7321,-3.6597,-3.5992,-3.5992,-3.5992,-3.5992,-3.5992,-3.5992,-3.5992,-3.5992,-3.5992,-3.5992,-3.5992,-3.5992,-3.568,-3.4901,-3.3964,-3.2986,-3.2012,-3.1231,-3.08,-3.08,-3.08,-3.08,-3.08,-3.08,-3.08,-3.08,-3.0734,-3.0715,-3.0709,-3.0636,-3.0607,-3.6851,-3.6737,-3.668,-3.8026,-3.8993,-3.9892,-4.0986,-4.1593,-4.2193,-4.3069,-4.324,-4.3639,-4.496,-4.5231,-4.5653,-4.6851,-4.6796,-4.6386,-4.5791,-4.5843,-4.5579,-4.4656,-4.4991,-4.5307,-4.5307,-4.5307,-4.5307,-4.5307,-4.5307,-4.5317,-4.5338,-4.5437,-4.5382,-4.5124,-4.5329,-4.5083,-4.428,-4.4048,-4.3404,-4.2396,-4.2025,-4.1596,-4.1109,-4.1109,-4.1109,-4.1109,-4.1109,-4.1109,-4.1109,-4.1109,-4.1109,-4.1109,-4.1109,-4.1109,-4.1109,-4.1109,-4.1109,-4.1109,-4.1109,-4.1109,-4.1109,-4.1109,-4.1109,-4.1109,-4.1109,-4.1109,-4.1109,-4.1109,-4.1109,-4.0973,-4.0483,-4.0346,-4.0132,-3.9292,-3.9099,-3.8864,-3.8025,-3.7555,-3.7145,-3.6636,-3.6246,-3.5992,-3.5992,-3.5992,-3.5992,-3.5992,-3.5992,-3.5992,-3.5992,-3.5992,-3.5992,-3.5992,-3.5992,-3.5641,-3.4764,-3.3905,-3.3027,-3.2169,-3.1289,-3.08,-3.08,-3.08,-3.08,-3.08,-3.0765,-3.0735,-3.0735,-3.0669,-3.062,-3.0575,-3.056,-3.0509,-3.8026,-3.8163,-3.8376,-3.9597,-4.0715,-4.1586,-4.1844,-4.2507,-4.3341,-4.4213,-4.4383,-4.4819,-4.6259,-4.6575,-4.6865,-4.7701,-4.7694,-4.726,-4.6325,-4.6302,-4.5889,-4.4491,-4.4694,-4.4934,-4.4934,-4.5163,-4.5307,-4.5307,-4.5307,-4.5307,-4.5307,-4.539,-4.5358,-4.5148,-4.5428,-4.5187,-4.4351,-4.4535,-4.4003,-4.2763,-4.2511,-4.2064,-4.1439,-4.1207,-4.1109,-4.1109,-4.1109,-4.1109,-4.1109,-4.1109,-4.1109,-4.1109,-4.1109,-4.1109,-4.1109,-4.1109,-4.1109,-4.1109,-4.1109,-4.1109,-4.1109,-4.1109,-4.1109,-4.1109,-4.1109,-4.1109,-4.1109,-4.1109,-4.0934,-4.06,-3.9956,-3.9644,-3.9253,-3.8435,-3.824,-3.8006,-3.7126,-3.6931,-3.6755,-3.6129,-3.5992,-3.5992,-3.5992,-3.5992,-3.5992,-3.5992,-3.5992,-3.5992,-3.5992,-3.5992,-3.5992,-3.5992,-3.5992,-3.5738,-3.5115,-3.4256,-3.3398,-3.2519,-3.1613,-3.1024,-3.0789,-3.0741,-3.0735,-3.0735,-3.0706,-3.0667,-3.0667,-3.0616,-3.0543,-3.0496,-3.0457,-3.0414,-3.7481,-3.8399,-3.9843,-3.99,-4.1132,-4.2583,-4.3436,-4.4251,-4.5066,-4.5937,-4.6108,-4.6373,-4.7207,-4.7372,-4.7656,-4.8528,-4.8011,-4.7783,-4.8593,-4.736,-4.6088,-4.5257,-4.451,-4.4045,-4.4045,-4.48,-4.5307,-4.5307,-4.5307,-4.5307,-4.5307,-4.5307,-4.4978,-4.4261,-4.4448,-4.418,-4.3442,-4.3646,-4.3708,-4.365,-4.2801,-4.2396,-4.2337,-4.1498,-4.1109,-4.1109,-4.1109,-4.1109,-4.1109,-4.1109,-4.1109,-4.1109,-4.1109,-4.1109,-4.1109,-4.1109,-4.1109,-4.1109,-4.1109,-4.1109,-4.1109,-4.1109,-4.1109,-4.1109,-4.1109,-4.1109,-4.1109,-4.1109,-4.0483,-3.9839,-3.9819,-3.9214,-3.8415,-3.7555,-3.734,-3.7106,-3.6226,-3.6031,-3.6031,-3.6012,-3.5992,-3.5992,-3.5992,-3.5992,-3.5992,-3.5992,-3.5992,-3.5992,-3.5992,-3.5992,-3.5992,-3.5992,-3.5992,-3.5992,-3.5953,-3.5154,-3.4295,-3.3416,-3.2489,-3.1588,-3.073,-3.0639,-3.06,-3.06,-3.06,-3.0597,-3.0597,-3.0548,-3.0496,-3.0496,-3.0371,-3.0299,-3.8458,-3.8882,-3.9361,-4.0468,-4.1586,-4.264,-4.3493,-4.4326,-4.499,-4.5274,-4.5331,-4.5596,-4.6449,-4.7036,-4.7681,-4.8566,-4.892,-4.9022,-4.8827,-4.8333,-4.75,-4.6172,-4.6271,-4.6037,-4.4972,-4.4609,-4.4685,-4.5269,-4.5307,-4.5307,-4.5307,-4.5307,-4.5204,-4.4939,-4.5075,-4.5112,-4.4987,-4.5157,-4.4972,-4.4475,-4.3062,-4.2409,-4.2376,-4.1498,-4.1109,-4.1109,-4.1109,-4.1109,-4.1109,-4.1109,-4.1109,-4.1109,-4.1109,-4.1109,-4.1109,-4.1109,-4.1109,-4.1109,-4.1109,-4.1109,-4.0992,-4.0424,-4.062,-4.0992,-4.0405,-4.0639,-4.1109,-4.1109,-4.0464,-3.9683,-3.9138,-3.8376,-3.7516,-3.6636,-3.6441,-3.6363,-3.6051,-3.5992,-3.5992,-3.5992,-3.5992,-3.5992,-3.5992,-3.5992,-3.5992,-3.5992,-3.5992,-3.5992,-3.5992,-3.5992,-3.5992,-3.5992,-3.5992,-3.5992,-3.5992,-3.5151,-3.4257,-3.3386,-3.2455,-3.1544,-3.0671,-3.0616,-3.0595,-3.0595,-3.0503,-3.0467,-3.0467,-3.0403,-3.0379,-3.0371,-3.0324,-3.0299,-3.8835,-3.9002,-3.9239,-4.1031,-4.1867,-4.259,-4.3829,-4.4535,-4.499,-4.5293,-4.5369,-4.559,-4.632,-4.6972,-4.7655,-4.8394,-4.9067,-4.9413,-4.9225,-4.8966,-4.8314,-4.6995,-4.7057,-4.6835,-4.5831,-4.4953,-4.4704,-4.5269,-4.5307,-4.5307,-4.5307,-4.5307,-4.5307,-4.5307,-4.5428,-4.5566,-4.5699,-4.5853,-4.556,-4.4822,-4.3809,-4.3008,-4.2371,-4.1828,-4.1381,-4.1109,-4.1109,-4.1109,-4.1109,-4.1109,-4.1109,-4.1109,-4.1109,-4.1109,-4.1109,-4.1109,-4.1109,-4.1109,-4.1109,-4.1109,-4.1012,-4.0444,-4.0424,-4.0581,-4.0346,-4.0444,-4.0698,-4.1012,-4.027,-3.9253,-3.8728,-3.7711,-3.6696,-3.6129,-3.5992,-3.5992,-3.5992,-3.5992,-3.5992,-3.5992,-3.5992,-3.5992,-3.5992,-3.5992,-3.5992,-3.5992,-3.6009,-3.6009,-3.5992,-3.5992,-3.5988,-3.5976,-3.5955,-3.5949,-3.5892,-3.5349,-3.4624,-3.3748,-3.28,-3.1894,-3.1028,-3.0674,-3.0492,-3.0492,-3.0406,-3.0361,-3.0361,-3.0299,-3.0279,-3.0312,-3.0286,-3.026,-3.86,-3.8803,-3.9467,-4.1421,-4.1937,-4.2472,-4.4373,-4.482,-4.5098,-4.5919,-4.6102,-4.6233,-4.6604,-4.7065,-4.7519,-4.8006,-4.8452,-4.904,-4.9798,-4.9301,-4.8568,-4.7755,-4.7033,-4.6568,-4.6508,-4.5851,-4.5403,-4.5307,-4.5307,-4.5307,-4.5307,-4.5307,-4.5307,-4.5307,-4.5419,-4.5481,-4.549,-4.5706,-4.5444,-4.4757,-4.4916,-4.4111,-4.2512,-4.2448,-4.1947,-4.1166,-4.1129,-4.1109,-4.1109,-4.1109,-4.1109,-4.1109,-4.1109,-4.1109,-4.1109,-4.1109,-4.1109,-4.1109,-4.1109,-4.1109,-4.109,-4.1051,-4.0464,-3.9956,-4.0738,-4.0424,-3.9976,-4.0797,-3.986,-3.8591,-3.8591,-3.7301,-3.5992,-3.5992,-3.5992,-3.5992,-3.5992,-3.5992,-3.5992,-3.5992,-3.5992,-3.5991,-3.5991,-3.5989,-3.5989,-3.5989,-3.598,-3.5978,-3.5991,-3.5989,-3.5976,-3.5894,-3.5883,-3.5837,-3.5702,-3.5689,-3.5327,-3.4447,-3.3514,-3.259,-3.1736,-3.0797,-3.0286,-3.0286,-3.0286,-3.0286,-3.0286,-3.0227,-3.0227,-3.0286,-3.0239,-3.0206,-3.8435,-3.8803,-3.9282,-4.0375,-4.1148,-4.1921,-4.3005,-4.3915,-4.4513,-4.4493,-4.4679,-4.465,-4.3919,-4.555,-4.6883,-4.6412,-4.8163,-4.9665,-4.9874,-4.9736,-4.9352,-4.8649,-4.8921,-4.8455,-4.668,-4.6901,-4.6634,-4.5392,-4.5307,-4.5307,-4.5307,-4.5307,-4.5307,-4.5307,-4.5339,-4.54,-4.549,-4.5657,-4.5661,-4.551,-4.5007,-4.4538,-4.4067,-4.2927,-4.2286,-4.2034,-4.1379,-4.1109,-4.1109,-4.1109,-4.1109,-4.1109,-4.1109,-4.1109,-4.1109,-4.1109,-4.1109,-4.1109,-4.1109,-4.1109,-4.0992,-4.0346,-3.9976,-3.9722,-3.9352,-3.9507,-3.9858,-4.0073,-3.9391,-3.8591,-3.8591,-3.7301,-3.5992,-3.5992,-3.5992,-3.5992,-3.5992,-3.5992,-3.5992,-3.5992,-3.6007,-3.6001,-3.5994,-3.5926,-3.5841,-3.5841,-3.5771,-3.5778,-3.5974,-3.5909,-3.5836,-3.5837,-3.5745,-3.5653,-3.563,-3.5576,-3.5179,-3.4318,-3.3377,-3.2481,-3.1655,-3.072,-3.0227,-3.0227,-3.0226,-3.0232,-3.0232,-3.0206,-3.0206,-3.0232,-3.0218,-3.0192,-3.8818,-3.931,-3.9887,-4.0837,-4.1437,-4.1946,-4.2548,-4.3189,-4.3501,-4.2969,-4.2999,-4.2893,-4.21,-4.377,-4.5326,-4.5469,-4.7358,-4.9059,-4.9798,-4.9912,-4.9781,-4.9417,-4.9493,-4.906,-4.7724,-4.7376,-4.6844,-4.5908,-4.5488,-4.5307,-4.5307,-4.5307,-4.5307,-4.5307,-4.5307,-4.5339,-4.54,-4.5558,-4.5634,-4.5657,-4.5331,-4.4974,-4.4563,-4.3381,-4.2646,-4.2278,-4.1454,-4.1097,-4.1103,-4.1103,-4.1104,-4.1109,-4.1109,-4.1109,-4.1109,-4.1109,-4.1109,-4.1109,-4.1109,-4.1106,-4.1025,-4.0521,-4.0112,-3.9722,-3.9253,-3.9195,-3.9351,-3.9702,-3.8959,-3.8117,-3.8468,-3.7274,-3.6001,-3.6001,-3.6001,-3.6001,-3.6001,-3.6001,-3.5978,-3.5919,-3.585,-3.5824,-3.5814,-3.576,-3.571,-3.571,-3.5654,-3.5659,-3.5804,-3.576,-3.5698,-3.5678,-3.5596,-3.5538,-3.5461,-3.5425,-3.5206,-3.4705,-3.3503,-3.2577,-3.2096,-3.087,-3.0194,-3.0194,-3.0199,-3.0211,-3.0211,-3.0211,-3.0211,-3.0211,-3.0211,-3.0211,-3.9514,-4.0021,-4.0762,-4.1857,-4.2052,-4.2081,-4.2482,-4.2517,-4.2269,-4.1516,-4.1397,-4.1285,-4.0868,-4.2162,-4.369,-4.4854,-4.6473,-4.8117,-4.9684,-4.9912,-4.992,-5.0005,-4.9448,-4.8997,-4.8841,-4.7506,-4.6566,-4.6366,-4.5679,-4.5307,-4.5307,-4.5307,-4.5307,-4.5307,-4.5307,-4.5307,-4.5307,-4.5429,-4.5473,-4.5482,-4.5676,-4.5349,-4.4607,-4.3878,-4.3101,-4.2294,-4.1549,-4.1161,-4.1064,-4.1064,-4.1074,-4.1108,-4.1108,-4.1108,-4.1109,-4.1109,-4.1109,-4.1109,-4.1109,-4.1103,-4.1095,-4.1106,-4.0421,-3.9614,-3.9616,-3.9027,-3.8536,-3.9353,-3.845,-3.7466,-3.838,-3.7298,-3.5985,-3.6082,-3.6024,-3.5946,-3.5946,-3.5946,-3.5914,-3.5797,-3.5685,-3.5602,-3.5597,-3.5587,-3.5577,-3.5577,-3.5565,-3.5557,-3.5557,-3.5556,-3.554,-3.5495,-3.547,-3.5405,-3.5308,-3.5293,-3.5297,-3.5285,-3.3704,-3.2771,-3.2699,-3.1083,-3.0211,-3.0211,-3.0211,-3.0211,-3.0211,-3.0211,-3.0211,-3.0211,-3.0211,-3.0211,-4.0148,-4.0401,-4.0709,-4.1579,-4.1288,-4.0979,-4.1723,-4.158,-4.1179,-4.0754,-4.0901,-4.0797,-3.9848,-4.1968,-4.3942,-4.4169,-4.66,-4.8812,-4.9779,-4.9912,-4.992,-5.0005,-4.9885,-4.9309,-4.8059,-4.7652,-4.6942,-4.5602,-4.5373,-4.5307,-4.5307,-4.5307,-4.5307,-4.5307,-4.5307,-4.5307,-4.5307,-4.5319,-4.532,-4.5339,-4.5482,-4.5472,-4.5299,-4.462,-4.3832,-4.2992,-4.2191,-4.1509,-4.0924,-4.0924,-4.1006,-4.1095,-4.1095,-4.1101,-4.1109,-4.1109,-4.1109,-4.1109,-4.1109,-4.1103,-4.1095,-4.1106,-3.9984,-3.864,-3.8636,-3.7952,-3.7357,-3.816,-3.7717,-3.7325,-3.884,-3.7462,-3.5851,-3.6569,-3.6181,-3.5676,-3.5676,-3.5676,-3.5668,-3.5631,-3.5631,-3.5611,-3.5604,-3.55,-3.5432,-3.5432,-3.5336,-3.5266,-3.5266,-3.5371,-3.5425,-3.5418,-3.5319,-3.5239,-3.5215,-3.5226,-3.5226,-3.5218,-3.3651,-3.2707,-3.2699,-3.1083,-3.0211,-3.0211,-3.0211,-3.0211,-3.0211,-3.0211,-3.0211,-3.0211,-3.0211,-3.0211,-4.0908,-4.1433,-4.185,-4.223,-4.1851,-4.1321,-4.1125,-4.0715,-4.0168,-3.9455,-3.9432,-3.942,-3.9039,-4.0692,-4.2418,-4.3413,-4.5345,-4.7334,-4.904,-4.9286,-4.9451,-4.9895,-4.9612,-4.891,-4.7717,-4.7243,-4.6538,-4.533,-4.5286,-4.5307,-4.5307,-4.5307,-4.5307,-4.5307,-4.5307,-4.5307,-4.5307,-4.5307,-4.5307,-4.5307,-4.537,-4.54,-4.5371,-4.4232,-4.3489,-4.304,-4.1835,-4.1125,-4.0801,-4.0801,-4.0829,-4.089,-4.089,-4.0894,-4.0905,-4.0935,-4.0938,-4.0945,-4.1017,-4.1037,-4.0931,-4.0556,-4.0095,-3.9521,-3.862,-3.7957,-3.7594,-3.7996,-3.7501,-3.7234,-3.8966,-3.7813,-3.6447,-3.7318,-3.6853,-3.6104,-3.5683,-3.5544,-3.5357,-3.4901,-3.513,-3.527,-3.4834,-3.506,-3.5296,-3.5296,-3.5239,-3.5209,-3.5209,-3.5262,-3.5296,-3.5296,-3.5239,-3.5209,-3.5209,-3.5209,-3.5209,-3.5209,-3.4044,-3.3375,-3.3375,-3.2172,-3.1503,-3.1503,-3.1083,-3.0873,-3.0873,-3.0414,-3.0211,-3.0211,-3.0211,-3.0211,-4.1887,-4.2559,-4.3014,-4.3105,-4.2518,-4.1708,-4.0813,-4.0055,-3.9292,-3.8384,-3.8241,-3.8338,-3.8478,-3.9545,-4.0975,-4.2819,-4.4108,-4.5786,-4.8338,-4.8698,-4.9002,-4.9798,-4.9383,-4.8625,-4.7593,-4.6998,-4.6248,-4.5268,-4.5246,-4.5307,-4.5307,-4.5307,-4.5307,-4.5307,-4.5307,-4.5307,-4.5307,-4.5307,-4.5307,-4.5307,-4.5307,-4.5201,-4.4982,-4.377,-4.3028,-4.2614,-4.1393,-4.079,-4.0668,-4.0668,-4.0666,-4.0699,-4.0699,-4.0704,-4.0715,-4.0756,-4.0786,-4.0796,-4.0894,-4.0902,-4.0738,-3.9965,-3.9993,-4.005,-3.8482,-3.7787,-3.755,-3.7715,-3.7255,-3.7128,-3.8872,-3.8022,-3.6865,-3.7366,-3.6961,-3.6286,-3.5642,-3.5425,-3.51,-3.4236,-3.4684,-3.4942,-3.4147,-3.4674,-3.5209,-3.5209,-3.5209,-3.5209,-3.5209,-3.5209,-3.5209,-3.5209,-3.5209,-3.5209,-3.5209,-3.5209,-3.5209,-3.5209,-3.4445,-3.3995,-3.3995,-3.3158,-3.2699,-3.2699,-3.1897,-3.1503,-3.1503,-3.0624,-3.0211,-3.0211,-3.0211,-3.0211,-4.318,-4.3386,-4.344,-4.3738,-4.2447,-4.1079,-4.0985,-3.9793,-3.8598,-3.8276,-3.8385,-3.8494,-3.829,-3.9571,-4.1151,-4.2607,-4.4003,-4.5786,-4.8338,-4.8698,-4.9002,-4.9798,-4.9836,-4.918,-4.765,-4.7483,-4.685,-4.5325,-4.5246,-4.5307,-4.5307,-4.5307,-4.5307,-4.5307,-4.5307,-4.5307,-4.5307,-4.5307,-4.5307,-4.5307,-4.5307,-4.4895,-4.4102,-4.3969,-4.3081,-4.1619,-4.1485,-4.1076,-4.0519,-4.0519,-4.0582,-4.0703,-4.0703,-4.0701,-4.069,-4.0715,-4.0715,-4.0715,-4.0726,-4.0729,-4.0585,-3.9716,-3.903,-3.8352,-3.7337,-3.6377,-3.5783,-3.6454,-3.6597,-3.6914,-3.8605,-3.7793,-3.6359,-3.5632,-3.5403,-3.5326,-3.525,-3.5223,-3.4985,-3.4163,-3.4644,-3.4942,-3.4147,-3.4674,-3.5209,-3.5209,-3.5209,-3.5209,-3.5209,-3.5209,-3.5209,-3.5209,-3.5209,-3.5209,-3.5209,-3.5209,-3.5209,-3.5209,-3.4445,-3.3995,-3.3995,-3.3158,-3.2699,-3.2699,-3.1897,-3.1503,-3.1503,-3.0624,-3.0211,-3.0211,-3.0211,-3.0211,-4.3418,-4.377,-4.3738,-4.3865,-4.2952,-4.1849,-4.1156,-4.0136,-3.9108,-3.8366,-3.8272,-3.8433,-3.8643,-3.9091,-4.0105,0.0,0.0,-4.409,-4.6815,-4.7618,-4.8243,-4.9078,-4.9608,-4.9248,-4.7606,-4.7498,-4.6899,-4.5325,-4.5246,-4.5307,-4.5307,-4.5307,-4.5307,-4.5307,-4.5307,-4.5307,-4.5307,-4.5307,-4.5307,-4.5288,-4.4762,-4.4331,-4.3968,-4.2966,-4.2125,-4.1457,-4.0998,-4.0624,-4.0389,-4.0389,-4.0422,-4.0457,-4.0457,-4.0465,-4.0469,-4.0454,-4.0469,-4.0457,-4.0551,-4.0571,-4.0359,-3.905,-3.8418,-3.8003,-3.7055,-3.6437,-3.6112,-3.6421,-3.6844,-3.7387,-3.8037,-3.7712,-3.6891,-3.5515,-3.5602,-3.5832,-3.5297,-3.5209,-3.4808,-3.349,-3.4292,-3.4789,-3.3452,-3.4331,-3.5209,-3.5209,-3.5209,-3.5209,-3.5209,-3.5209,-3.5209,-3.5209,-3.5209,-3.5209,-3.5209,-3.5209,-3.5209,-3.5209,-3.4904,-3.4713,-3.4713,-3.4388,-3.4189,-3.4189,-3.3414,-3.2745,-3.2222,-3.135,-3.0949,-3.0987,-3.0987,-3.1177,-4.3197,-4.3742,-4.3962,-4.3912,-4.3287,-4.2394,-4.1261,-4.0375,-3.9493,-3.8421,-3.8274,-3.8417,-3.87,-3.873,-3.9367,0.0,0.0,-4.2798,-4.5526,-4.6677,-4.7656,-4.8791,-4.9497,-4.9248,-4.7548,-4.7005,-4.6342,-4.5287,-4.5235,-4.5286,-4.5297,-4.5307,-4.5307,-4.5307,-4.5307,-4.5307,-4.5307,-4.5307,-4.5163,-4.4914,-4.4293,-4.3739,-4.3223,-4.203,-4.1361,-4.1113,-4.0559,-4.0301,-4.0301,-4.0301,-4.0301,-4.0301,-4.0301,-4.0301,-4.031,-4.0309,-4.0299,-4.0307,-4.0408,-4.0438,-4.0177,-3.8514,-3.7976,-3.777,-3.6608,-3.6213,-3.6165,-3.6135,-3.6891,-3.7655,-3.7406,-3.7521,-3.7273,-3.5611,-3.566,-3.5946,-3.5335,-3.5209,-3.4705,-3.3024,-3.4055,-3.4666,-3.2986,-3.4093,-3.5209,-3.5209,-3.5209,-3.5209,-3.5209,-3.5209,-3.5209,-3.5209,-3.5209,-3.5209,-3.5209,-3.5209,-3.5209,-3.5209,-3.5209,-3.5209,-3.5209,-3.5209,-3.5209,-3.5209,-3.4407,-3.37,-3.3081,-3.1973,-3.155,-3.1764,-3.1497,-3.1697,-4.2509,-4.3293,-4.4075,-4.3927,-4.3287,-4.2394,-4.1261,-4.0375,-3.9493,-3.8421,-3.8417,-3.8525,-3.8257,-3.8643,-3.9207,-3.981,0.0,0.0,-4.4854,-4.6177,-4.7515,-4.9189,-4.9679,-4.9248,-4.7548,-4.5961,-4.5068,-4.5192,-4.5192,-4.5224,-4.5297,-4.5307,-4.5307,-4.5307,-4.5307,-4.5307,-4.5307,-4.5307,-4.4876,-4.4006,-4.4006,-4.3138,-4.1533,-4.1514,-4.1074,-4.0301,-4.0301,-4.0301,-4.0301,-4.0301,-4.0301,-4.0301,-4.0301,-4.0301,-4.0301,-4.0301,-4.0301,-4.0301,-4.031,-4.031,-4.0024,-3.8275,-3.7702,-3.7396,-3.5725,-3.5308,-3.5383,-3.5258,-3.6413,-3.7521,-3.671,-3.7101,-3.7273,-3.5611,-3.5209,-3.5209,-3.5209,-3.5209,-3.4705,-3.3024,-3.4055,-3.4666,-3.2986,-3.4093,-3.5209,-3.5209,-3.5209,-3.5209,-3.5209,-3.5209,-3.5209,-3.5209,-3.5209,-3.5209,-3.5209,-3.5209,-3.5209,-3.5209,-3.5209,-3.5209,-3.5209,-3.5209,-3.5209,-3.5209,-3.4407,-3.3995,-3.3975,-3.2306,-3.1813,-3.2361,-3.1509,-3.143,-4.2033,-4.2706,-4.3196,-4.2563,-4.2443,-4.2094,-4.0588,-4.0253,-3.9888,-3.8497,-3.8274,-3.837,-3.8465,-3.8462,-3.9195,-4.1453,-4.1905,-4.2918,-4.5572,-4.6968,-4.7913,-4.8457,-4.8319,-4.7965,-4.7453,-4.5942,-4.5033,-4.5068,-4.5114,-4.5159,-4.5224,-4.5224,-4.5246,-4.5297,-4.5307,-4.5307,-4.5307,-4.4704,-4.4274,-4.3987,-4.2851,-4.2011,-4.1476,-4.0922,-4.054,-4.0301,-4.0301,-4.0301,-4.0301,-4.0301,-4.0301,-4.0301,-4.0301,-4.0301,-4.0301,-4.0301,-4.0301,-4.0301,-4.0301,-3.99,-3.9221,-3.8075,-3.733,-3.6672,-3.5553,-3.5231,-3.5377,-3.5925,-3.6462,-3.6825,-3.6576,-3.6691,-3.6596,-3.5477,-3.5209,-3.5209,-3.5209,-3.5209,-3.4885,-3.3796,-3.4464,-3.4866,-3.3777,-3.4483,-3.5209,-3.5209,-3.5209,-3.5209,-3.5209,-3.5209,-3.5209,-3.5209,-3.5209,-3.5209,-3.5209,-3.5209,-3.5209,-3.5209,-3.5209,-3.5209,-3.5209,-3.5209,-3.5209,-3.5209,-3.4961,-3.4541,-3.3995,-3.3479,-3.3212,-3.3222,-3.3364,-3.3162,-4.1047,-4.1719,-4.224,-4.1526,-4.1665,-4.1558,-4.0095,-3.9921,-3.9731,-3.8462,-3.8209,-3.8257,-3.8417,-3.8305,-3.8922,-4.1087,-4.1521,-4.246,-4.5109,-4.662,-4.7668,-4.8263,-4.7783,-4.7283,-4.698,-4.5747,-4.4967,-4.501,-4.5045,-4.5103,-4.5159,-4.5181,-4.5213,-4.5265,-4.5286,-4.5307,-4.5307,-4.4437,-4.3854,-4.3529,-4.2163,-4.1342,-4.1036,-4.054,-4.0301,-4.0301,-4.0301,-4.0301,0.0,-4.0301,-4.0301,-4.0301,-4.0301,-4.0301,-4.0301,-4.0301,-4.0301,-4.0301,-4.0301,-3.9728,-3.8858,-3.798,-3.6929,-3.5908,-3.5354,-3.5209,-3.5373,-3.6252,-3.65,-3.65,-3.65,-3.65,-3.6271,-3.5411,-3.5209,-3.5209,-3.5209,-3.5209,-3.4961,-3.4167,-3.4655,-3.4942,-3.4147,-3.4674,-3.5209,-3.5209,-3.5209,-3.5209,-3.5209,-3.5209,-3.5209,-3.5209,-3.5209,-3.5209,-3.5209,-3.5209,-3.5209,-3.5209,-3.5209,-3.5209,-3.5209,-3.5209,-3.5209,-3.5209,-3.5209,-3.4961,-3.4445,-3.438,-3.4033,-3.3458,-3.376,-3.3662,0.0,-4.0433,-4.1197,-4.0761,-4.0863,-4.0811,-3.9665,-3.942,0.0,-3.8372,-3.8209,-3.8227,-3.8281,-3.8299,-3.8589,-3.9496,-4.022,-4.1488,-4.3842,-4.5513,-4.7025,-4.8445,-4.7914,-4.7074,-4.6234,-4.5394,-4.4938,-4.4998,-4.4979,-4.5014,-4.5091,-4.5159,-4.5192,-4.5192,-4.5265,-4.5297,-4.5307,-4.438,-4.3529,-4.2794,-4.1858,-4.1017,-4.0301,-4.0301,-4.0301,-4.0301,-4.0301,-4.0301,-4.0301,-4.0301,-4.0301,-4.0301,-4.0301,-4.0301,-4.0301,-4.0301,-4.0301,-4.0301,-4.0301,-3.9699,-3.8744,-3.7827,-3.647,-3.5209,-3.5209,-3.5209,-3.5373,-3.6252,-3.6538,-3.6576,-3.6519,-3.6538,-3.6347,-3.5411,-3.5209,-3.5209,-3.5209,-3.5209,-3.4961,-3.4167,-3.4598,-3.4885,-3.4128,-3.4617,-3.5133,-3.519,-3.5209,-3.5209,-3.5209,-3.5209,-3.5209,-3.5209,-3.5209,-3.5209,-3.5209,-3.5209,-3.5209,-3.5209,-3.5209,-3.5209,-3.5209,-3.5209,-3.5209,-3.5209,-3.5209,-3.5201,-3.5166,-3.4973,-3.4327,-3.3242,-3.3064,-3.3171,-3.9026,0.0,-4.0073,-3.9239,-3.955,-3.979,0.0,-3.9053,-3.9237,-3.8372,-3.8209,-3.839,-3.8989,-3.9133,-3.9785,-4.176,-4.2212,-4.2955,-4.4765,-4.6341,-4.745,-4.7818,-4.758,-4.6978,-4.5927,-4.5256,-4.4907,-4.4919,-4.4919,-4.4943,-4.5014,-4.5045,-4.5084,-4.5192,-4.5233,-4.5254,-4.5307,-4.3825,-4.2985,-4.2775,-4.1285,-4.0473,-4.0301,-4.0301,-4.0301,-4.0301,-4.0301,-4.0301,-4.0301,-4.0301,-4.0301,-4.0301,-4.0301,-4.0301,-4.0301,-4.0301,-4.0301,-4.0301,-4.0301,-3.9298,-3.775,-3.6279,-3.5515,-3.5209,-3.5209,-3.5209,-3.5373,-3.6252,-3.6939,-3.7273,-3.6653,-3.6967,-3.7043,-3.5553,-3.5209,-3.5209,-3.5209,-3.5209,-3.4961,-3.4167,-3.4147,-3.4216,-3.4033,-3.4167,-3.4483,-3.5114,-3.5209,-3.5209,-3.5209,-3.5209,-3.5209,-3.5209,-3.5209,-3.5209,-3.5209,-3.5209,-3.5209,-3.5209,-3.5209,-3.5209,-3.5209,-3.5209,-3.5209,-3.5209,-3.5209,-3.5107,-3.4879,-3.4851,-3.4475,-3.3815,-3.3753,-3.3353,-3.8765,-3.9294,-3.979,-3.9266,-3.9456,-3.9611,-3.9094,-3.8975,-3.8817,-3.8331,-3.8225,-3.8462,-3.9242,-3.9387,-4.0039,-4.2031,-4.2357,-4.3102,-4.5273,-4.693,-4.7697,-4.7109,-4.7117,-4.6633,-4.5237,-4.499,-4.4895,-4.4895,-4.4895,-4.4926,-4.4943,-4.4979,-4.5026,-4.5114,-4.4778,-4.4641,-4.4704,-4.3443,-4.2603,-4.2183,-4.0922,-4.0301,-4.0301,-4.0301,-4.0301,-4.0301,-4.0301,-4.0301,-4.0301,-4.0301,-4.0301,-4.0301,-4.0301,-4.0301,-4.0301,-4.0301,-4.0053,-3.969,-3.969,-3.8591,-3.7005,-3.608,-3.5526,-3.5209,-3.5209,-3.5209,-3.5458,-3.67,-3.6814,-3.6623,-3.6967,-3.6795,-3.6317,-3.542,-3.5209,-3.5209,-3.5209,-3.4904,-3.4522,-3.409,-3.3681,-3.3528,-3.3937,-3.3995,-3.4273,-3.5076,-3.5209,-3.5209,-3.5209,-3.5209,-3.5209,-3.5209,-3.5209,-3.5209,-3.5209,-3.5209,-3.5209,-3.5209,-3.5209,-3.5209,-3.5209,-3.5107,-3.5,-3.4879,-3.4851,-3.4755,-3.4622,-3.4601,-3.4353,-3.391,-3.391,-3.3532,-3.8927,-3.946,-4.001,-3.9772,-3.9779,-3.9788,-3.9628,-3.8929,-3.8323,-3.829,-3.835,-3.8644,-3.9405,-3.9659,-4.0256,-4.1813,-4.2157,-4.314,-4.5645,-4.7113,-4.75,-4.6366,-4.6483,-4.6038,-4.4463,-4.4642,-4.4827,-4.4895,-4.4895,-4.4895,-4.4895,-4.4943,-4.4979,-4.4991,-4.4265,-4.3846,-4.3805,-4.2994,-4.2221,-4.1495,-4.0692,-4.0301,-4.0301,-4.0301,-4.0301,-4.0301,-4.0301,-4.0301,-4.0301,-4.0301,-4.0301,-4.0301,-4.0301,-4.0301,-4.0301,-4.0301,-3.9747,-3.8954,-3.8706,-3.7684,-3.6481,-3.6347,-3.5793,-3.5209,-3.5209,-3.5286,-3.5687,-3.712,-3.6489,-3.5744,-3.7292,-3.6566,-3.5354,-3.5229,-3.5209,-3.5209,-3.5209,-3.456,-3.3956,-3.3834,-3.3108,-3.2756,-3.3471,-3.37,-3.4082,-3.4885,-3.5114,-3.5209,-3.5209,-3.5209,-3.5209,-3.5209,-3.5209,-3.5209,-3.5209,-3.5166,-3.5149,-3.5149,-3.5149,-3.5132,-3.5088,-3.4926,-3.4723,-3.4497,-3.4412,-3.4368,-3.4311,-3.4246,-3.4074,-3.3728,-3.3728,-3.3547,-3.9608,-4.0304,-4.0581,-3.9221,-3.9405,-3.9669,-3.8812,-3.8508,-3.8352,-3.8241,-3.8752,-3.9441,-4.0202,-4.089,-4.1868,-4.3462,-4.4295,-4.5129,-4.6241,-4.6319,-4.6085,-4.5526,-4.5451,-4.5065,-4.4082,-4.4285,-4.4597,-4.4883,-4.4895,-4.4895,-4.4895,-4.4907,-4.4931,-4.501,-4.4235,-4.3512,-4.2904,-4.2106,-4.1628,-4.1495,-4.0692,-4.0301,-4.0301,-4.0301,-4.0301,-4.0301,-4.0301,-4.0301,-4.0301,-4.0301,-4.0301,-4.0301,-4.0301,-4.0301,-4.0301,-4.0301,-3.9747,-3.8801,-3.7379,-3.671,-3.6385,-3.5641,-3.5305,-3.5209,-3.5209,-3.5717,-3.6347,-3.6615,-3.65,-3.6519,-3.7464,-3.7005,-3.6118,-3.5381,-3.5209,-3.5209,-3.5209,-3.456,-3.3777,-3.3043,-3.2241,-3.1713,-3.179,-3.2413,-3.3196,-3.4044,-3.4751,-3.5209,-3.5209,-3.5209,-3.5209,-3.5209,-3.5209,-3.5209,-3.5209,-3.5046,-3.4955,-3.4955,-3.4955,-3.4841,-3.4614,-3.451,-3.4464,-3.4412,-3.4357,-3.4176,-3.3893,-3.388,-3.3733,-3.3462,-3.3462,-3.3071,-3.9176,-3.9845,-4.0251,-3.9452,-4.0205,-4.1013,-4.0458,-3.9972,-3.963,-3.9563,-3.9784,-4.0238,-4.0999,-4.1451,-4.2067,-4.3262,-4.4476,-4.5273,-4.52,-4.5414,-4.5362,-4.4713,-4.4784,-4.4563,-4.3697,-4.411,-4.4471,-4.461,-4.4789,-4.4895,-4.4895,-4.4895,-4.4907,-4.4943,-4.3734,-4.2924,-4.2599,-4.1357,-4.0788,-4.0845,-4.0473,-4.0301,-4.0301,-4.0301,-4.0301,-4.0301,-4.0301,-4.0301,-4.0301,-4.0301,-4.0301,-4.0301,-4.0301,-4.0301,-4.0244,-3.9766,-3.9336,-3.882,-3.7578,-3.6863,-3.6424,-3.6023,-3.5583,-3.5286,-3.5755,-3.6175,-3.6596,-3.7024,-3.7158,-3.7139,-3.7082,-3.6787,-3.6271,-3.5411,-3.5209,-3.5076,-3.4655,-3.3891,-3.3051,-3.2203,-3.1369,-3.093,-3.1324,-3.1725,-3.2451,-3.3804,-3.4312,-3.4713,-3.5152,-3.5209,-3.5209,-3.5209,-3.5098,-3.5046,-3.5046,-3.4822,-3.4684,-3.4684,-3.4684,-3.4569,-3.4291,-3.4255,-3.416,-3.3974,-3.3897,-3.3792,-3.3634,-3.3592,-3.353,-3.3393,-3.3393,-3.3194,-3.8927,-3.9423,-3.9921,-3.9957,-4.08,-4.164,-4.1683,-4.1031,-4.0469,-4.0634,-4.0726,-4.0963,-4.1596,-4.2012,-4.2466,-4.3063,-4.4367,-4.5073,-4.4458,-4.4747,-4.4784,-4.4168,-4.4162,-4.3997,-4.3443,-4.3862,-4.4242,-4.4402,-4.4642,-4.4814,-4.4895,-4.4895,-4.4819,-4.463,-4.3236,-4.2397,-4.2218,-4.0798,-4.0147,-4.0291,-4.0291,-4.0272,-4.0301,-4.0301,-4.0301,-4.0301,-4.0301,-4.0301,-4.0301,-4.0301,-4.0301,-4.0301,-4.0301,-4.0301,-4.0186,-3.9317,-3.9011,-3.8858,-3.7789,-3.7024,-3.6462,-3.6252,-3.5736,-3.5354,-3.6233,-3.6634,-3.6901,-3.7521,-3.7846,-3.7769,-3.6767,-3.6347,-3.6023,-3.5354,-3.5209,-3.498,-3.4167,-3.3318,-3.247,-3.1656,-3.0796,-3.0395,-3.1006,-3.1286,-3.1866,-3.3184,-3.3746,-3.4216,-3.4846,-3.5076,-3.5209,-3.5209,-3.5028,-3.4851,-3.4752,-3.4537,-3.4375,-3.4318,-3.4375,-3.4291,-3.3998,-3.3972,-3.3829,-3.3577,-3.3506,-3.3481,-3.3481,-3.3422,-3.3393,-3.3393,-3.3393,-3.3393,-3.9606,-3.9845,-4.0033,-4.0585,-4.0346,-4.0125,-4.0667,-4.0161,-3.9763,-4.0383,-4.1107,-4.1632,-4.1687,-4.2918,-4.3951,-4.3987,-4.4729,-4.5273,-4.5218,-4.4621,-4.415,-4.4095,-4.3464,-4.3105,-4.3371,-4.3439,-4.3719,-4.4341,-4.4411,-4.457,-4.4883,-4.4895,-4.4554,-4.3815,-4.2886,-4.2086,-4.1383,-4.0471,-4.0077,-4.0206,-4.0206,-4.0244,-4.0301,-4.0301,-4.0301,-4.0301,-4.0301,-4.0301,-4.0301,-4.0301,-4.0301,-4.0301,-4.0301,-4.0301,-4.0186,-3.9317,-3.9011,-3.8782,-3.7149,-3.6557,-3.6366,-3.5564,-3.5248,-3.5354,-3.6233,-3.7024,-3.7636,-3.7674,-3.8285,-3.8534,-3.692,-3.5889,-3.5286,-3.5209,-3.5209,-3.498,-3.4167,-3.3318,-3.247,-3.1656,-3.0796,-3.023,-3.028,-3.0968,-3.1503,-3.1572,-3.2955,-3.4014,-3.409,-3.4732,-3.5209,-3.5209,-3.5028,-3.4713,-3.4293,-3.4185,-3.4018,-3.3762,-3.3998,-3.3985,-3.3643,-3.3577,-3.3534,-3.3509,-3.3437,-3.3411,-3.3411,-3.3393,-3.3393,-3.3393,-3.3393,-3.3393,-3.9074,-3.9449,-3.9825,-4.002,-3.9843,-3.9903,-4.1053,-4.1089,-4.1089,-4.1832,-4.223,-4.2448,-4.2448,-4.3353,-4.3932,-4.3445,-4.4023,-4.4385,-4.3878,-4.3534,-4.3335,-4.3335,-4.31,-4.2957,-4.3087,-4.3284,-4.3507,-4.3751,-4.415,-4.4231,-4.3868,-4.4052,-4.4004,-4.3701,-4.2375,-4.1749,-4.1992,-4.0626,-3.9975,-4.0077,-4.0166,-4.0206,-4.0244,-4.0272,-4.0301,-4.0301,-4.0301,-4.0301,-4.0301,-4.0301,-4.0301,-4.0301,-4.0301,-4.0301,-4.0263,-3.9919,-3.9804,-3.9556,-3.7846,-3.7254,-3.7024,-3.5649,-3.5209,-3.5458,-3.6833,-3.7464,-3.7693,-3.7693,-3.7941,-3.7922,-3.6787,-3.6252,-3.587,-3.5335,-3.5209,-3.4827,-3.3482,-3.2928,-3.2298,-3.0949,-3.0433,-3.0211,-3.0211,-3.0472,-3.0854,-3.1324,-3.2413,-3.3394,-3.3937,-3.4694,-3.5132,-3.4973,-3.458,-3.4203,-3.3873,-3.3788,-3.3726,-3.3591,-3.3712,-3.3712,-3.3534,-3.3506,-3.3481,-3.3437,-3.3408,-3.3393,-3.3393,-3.3393,-3.3393,-3.3393,-3.3393,-3.3393,-3.8395,-3.8844,-3.9351,-3.9254,-3.9372,-3.9852,-4.1053,-4.1325,-4.1614,-4.2665,-4.2701,-4.2592,-4.2865,-4.3136,-4.3244,-4.2955,-4.3372,-4.3516,-4.2992,-4.2901,-4.2901,-4.2901,-4.2901,-4.2901,-4.2901,-4.3124,-4.3284,-4.3388,-4.359,-4.3519,-4.3081,-4.312,-4.3044,-4.276,-4.1741,-4.1321,-4.1605,-4.0468,-3.9922,-3.9965,-4.0087,-4.0166,-4.0196,-4.0263,-4.0301,-4.0301,-4.0301,-4.0301,-4.0301,-4.0301,-4.0301,-4.0301,-4.0301,-4.0301,-4.0301,-4.0301,-4.0301,-4.0053,-3.8304,-3.7693,-3.7426,-3.5744,-3.5209,-3.5515,-3.7196,-3.7693,-3.775,-3.8037,-3.7903,-3.7502,-3.671,-3.629,-3.5946,-3.5335,-3.5209,-3.4827,-3.3406,-3.289,-3.2298,-3.0873,-3.0395,-3.0211,-3.0211,-3.0211,-3.0472,-3.1312,-3.2164,-3.2989,-3.3762,-3.4592,-3.4973,-3.462,-3.4239,-3.3881,-3.3615,-3.3577,-3.3549,-3.3491,-3.352,-3.3524,-3.3466,-3.3466,-3.3452,-3.3393,-3.3393,-3.3393,-3.3393,-3.3393,-3.3393,-3.3393,-3.3393,-3.3393,-3.7731,-3.8083,-3.8661,-3.8449,-3.9021,-3.9773,-4.0382,-4.051,-4.0963,-4.2556,-4.2266,-4.194,-4.2737,-4.2248,-4.1958,-4.2755,-4.2901,-4.2901,-4.2901,-4.2901,-4.2901,-4.2901,-4.2901,-4.2901,-4.2901,-4.2901,-4.3032,-4.3371,-4.267,-4.2341,-4.2667,-4.2239,-4.1593,-4.0716,-4.1017,-4.0772,-3.9919,-3.99,-3.99,-3.99,-3.9965,-4.0077,-4.0196,-4.0263,-4.0301,-4.0301,-4.0301,-4.0301,-4.0301,-4.0301,-4.0301,-4.0301,-4.0301,-4.0301,-4.0301,-4.0301,-4.0301,-4.0053,-3.8304,-3.7693,-3.7426,-3.5744,-3.5209,-3.5515,-3.7196,-3.7712,-3.7884,-3.8763,-3.8381,-3.7521,-3.671,-3.5851,-3.5209,-3.5209,-3.5209,-3.498,-3.4167,-3.3318,-3.247,-3.1656,-3.0796,-3.0211,-3.0211,-3.0211,-3.0491,-3.1369,-3.2183,-3.2923,-3.3543,-3.4349,-3.4682,-3.4142,-3.4036,-3.3881,-3.3633,-3.3534,-3.3509,-3.3509,-3.3437,-3.3393,-3.3393,-3.3393,-3.3393,-3.3393,-3.3393,-3.3393,-3.3393,-3.3393,-3.3393,-3.3393,-3.3393,-3.3393,-3.7878,-3.8423,-3.9388,-3.9272,-3.9809,-4.0541,-4.1198,-4.1343,-4.1632,-4.2665,-4.2701,-4.2611,-4.2846,-4.2701,-4.2611,-4.2846,-4.2901,-4.2901,-4.2901,-4.2901,-4.2901,-4.2901,-4.2901,-4.2901,-4.2901,-4.2901,-4.2939,-4.3032,-4.3047,-4.2593,-4.1569,-4.1598,-4.1269,-4.0444,-4.0146,-4.015,-4.0452,-4.0087,-3.99,-3.99,-3.9965,-4.0017,-4.0067,-4.0176,-4.0234,-4.0244,-4.0272,-4.0301,-4.0301,-4.0301,-4.0301,-4.0301,-4.0301,-4.0301,-4.0301,-4.0301,-4.0301,-4.0053,-3.8304,-3.7693,-3.7426,-3.5744,-3.5602,-3.6309,-3.7387,-3.8132,-3.8667,-3.8935,-3.882,-3.8285,-3.6863,-3.6309,-3.5965,-3.5362,-3.5209,-3.498,-3.4167,-3.3318,-3.2451,-3.1591,-3.0758,-3.0211,-3.0211,-3.0211,-3.0491,-3.1369,-3.2056,-3.29,-3.4026,-3.4214,-3.4172,-3.3917,-3.3689,-3.3549,-3.3466,-3.3437,-3.3422,-3.3422,-3.3408,-3.3393,-3.3393,-3.3393,-3.3393,-3.3393,-3.3393,-3.3393,-3.3393,-3.3393,-3.3393,-3.3393,-3.3393,-3.3393,-3.8183,-3.886,-3.9751,-3.9637,-4.0409,-4.1395,-4.2032,-4.2194,-4.2321,-4.2792,-4.2647,-4.252,-4.2847,-4.2629,-4.252,-4.2865,-4.2901,-4.2901,-4.2901,-4.2901,-4.2901,-4.2901,-4.2901,-4.2755,-4.2448,-4.2411,-4.2285,-4.1959,-4.1849,-4.1405,-4.042,-4.0341,-4.0119,-3.9634,-3.9397,-3.9607,-4.0228,-3.9903,-3.9792,-3.99,-3.9943,-3.9954,-3.9965,-4.0098,-4.0166,-4.0166,-4.0196,-4.0234,-4.0253,-4.0253,-4.0291,-4.0301,-4.0301,-4.0301,-4.0301,-4.0301,-4.0072,-3.9584,-3.8171,-3.7483,-3.7005,-3.5649,-3.5793,-3.6653,-3.7464,-3.8304,-3.8935,-3.8572,-3.8476,-3.8094,-3.6424,-3.5984,-3.5851,-3.5316,-3.5209,-3.5076,-3.4579,-3.354,-3.2546,-3.2012,-3.0987,-3.0171,-3.0087,-3.0072,-3.0468,-3.1575,-3.2506,-3.3355,-3.4149,-3.3992,-3.3775,-3.3684,-3.3516,-3.3393,-3.3393,-3.3393,-3.3393,-3.3393,-3.3393,-3.3393,-3.3393,-3.3393,-3.3393,-3.3393,-3.3393,-3.3393,-3.3393,-3.3393,-3.3393,-3.3393,-3.3393,-3.3393,-3.8563,-3.9294,-3.9887,-3.9836,-4.0955,-4.2213,-4.2775,-4.2901,-4.2901,-4.2901,-4.2321,-4.2012,-4.2755,-4.2303,-4.2049,-4.2774,-4.2901,-4.2901,-4.2901,-4.2901,-4.2901,-4.2901,-4.2901,-4.2611,-4.1868,-4.1741,-4.1397,-4.0655,-3.9912,-3.946,-3.9387,-3.8944,-3.8645,-3.8572,-3.8814,-3.9109,-3.9408,-3.9446,-3.9599,-3.9867,-3.9867,-3.9878,-3.99,-4.0036,-4.0087,-4.0106,-4.0106,-4.0147,-4.0196,-4.0196,-4.0244,-4.0301,-4.0301,-4.0244,-4.0186,-4.0263,-3.9699,-3.8763,-3.796,-3.7177,-3.6366,-3.5583,-3.5889,-3.6748,-3.7578,-3.8362,-3.8839,-3.8037,-3.775,-3.733,-3.5725,-3.5324,-3.5305,-3.5229,-3.5209,-3.5209,-3.5209,-3.3941,-3.2787,-3.2695,-3.1386,-3.0197,-2.9924,-2.9872,-3.0371,-3.1832,-3.322,-3.4061,-3.3972,-3.3684,-3.3509,-3.3495,-3.3437,-3.3393,-3.3393,-3.3393,-3.3393,-3.3393,-3.3393,-3.3393,-3.3393,-3.3393,-3.3393,-3.3393,-3.3393,-3.3393,-3.3393,-3.3393,-3.3393,-3.3393,-3.3393,-3.3378,-3.8683,-3.9294,-4.0162,-4.1224,-4.2105,-4.2739,-4.2865,-4.2901,-4.2901,-4.2901,-4.2755,-4.2683,-4.2883,-4.2755,-4.2701,-4.2883,-4.2901,-4.2901,-4.2901,-4.2901,-4.2901,-4.2901,-4.2901,-4.2828,-4.2647,-4.2085,-4.1632,-4.1451,-4.0709,-4.0021,-3.9423,-3.9292,-3.8944,-3.8309,-3.8538,-3.8718,-3.8792,-3.8999,-3.9274,-3.9587,-3.9587,-3.9712,-3.99,-3.9975,-4.0057,-4.0106,-4.0106,-4.0147,-4.0196,-4.0196,-4.0244,-4.0301,-4.0301,-3.9881,-3.9355,-4.0053,-3.9317,-3.7941,-3.7769,-3.7177,-3.6462,-3.6271,-3.6776,-3.7597,-3.8457,-3.8858,-3.8954,-3.8763,-3.8228,-3.7464,-3.6481,-3.6214,-3.6042,-3.5354,-3.5209,-3.5209,-3.5209,-3.4426,-3.3478,-3.2634,-3.1659,-3.069,-2.9811,-2.9662,-3.0142,-3.1507,-3.3031,-3.3921,-3.3629,-3.3534,-3.3481,-3.3422,-3.3408,-3.3393,-3.3393,-3.3393,-3.3393,-3.3393,-3.3393,-3.3393,-3.3393,-3.3393,-3.3393,-3.3393,-3.3393,-3.3393,-3.3393,-3.3393,-3.3393,-3.3393,-3.3393,-3.3223,-3.9608,-4.0157,-4.0806,-4.2228,-4.2796,-4.2975,-4.2901,-4.2901,-4.2901,-4.2901,-4.2901,-4.2901,-4.2901,-4.2901,-4.2901,-4.2901,-4.2901,-4.2901,-4.2901,-4.2901,-4.2901,-4.2901,-4.2901,-4.2592,-4.1832,-4.1379,-4.0818,-4.0093,-3.9641,-3.9224,-3.8861,-3.8843,-3.8644,-3.8209,-3.8338,-3.8462,-3.86,-3.873,-3.9027,-3.9514,-3.9514,-3.9635,-3.99,-3.9933,-3.9965,-4.0005,-4.0005,-4.0046,-4.0108,-4.0147,-3.9957,-3.9662,-4.012,-3.9508,-3.8476,-3.9355,-3.8591,-3.7139,-3.7139,-3.6585,-3.587,-3.587,-3.67,-3.7712,-3.7789,-3.8362,-3.8839,-3.8028,-3.7483,-3.6903,-3.5976,-3.581,-3.5713,-3.5021,-3.5044,-3.5166,-3.5081,-3.4397,-3.3622,-3.2968,-3.1817,-3.0753,-3.0109,-3.0214,-3.0734,-3.177,-3.2978,-3.3684,-3.3481,-3.3452,-3.3437,-3.3393,-3.3393,-3.3393,-3.3393,-3.3393,-3.3393,-3.3393,-3.3393,-3.3393,-3.3393,-3.3393,-3.3393,-3.3393,-3.3393,-3.3393,-3.3393,-3.3393,-3.3393,-3.3411,-3.3193,-3.3003,-4.0077,-4.0813,-4.1394,-4.2667,-4.3032,-4.3049,-4.2938,-4.2901,-4.2901,-4.2901,-4.2901,-4.2901,-4.2901,-4.2901,-4.2901,-4.2901,-4.2901,-4.2901,-4.2901,-4.2901,-4.2865,-4.2701,-4.2683,-4.2122,-4.0637,-4.0383,-3.9786,-3.8517,-3.8281,-3.8209,-3.8209,-3.8209,-3.8209,-3.8209,-3.8209,-3.8305,-3.8541,-3.8541,-3.8807,-3.9344,-3.9446,-3.9611,-3.9826,-3.9878,-3.99,-3.99,-3.99,-3.9857,-3.9806,-4.0,-3.9527,-3.8766,-3.97,-3.8993,-3.758,-3.8439,-3.7714,-3.6292,-3.6426,-3.5919,-3.525,-3.5545,-3.6566,-3.7597,-3.7092,-3.778,-3.8448,-3.6866,-3.6323,-3.6013,-3.5078,-3.4954,-3.4981,-3.4593,-3.4803,-3.5035,-3.487,-3.4264,-3.3648,-3.3302,-3.179,-3.0488,-3.0172,-3.0595,-3.1237,-3.1987,-3.2768,-3.3303,-3.3375,-3.3393,-3.3393,-3.3393,-3.3393,-3.3393,-3.3393,-3.3393,-3.3393,-3.3393,-3.3393,-3.3393,-3.3393,-3.3393,-3.3393,-3.3393,-3.3393,-3.3393,-3.3393,-3.3393,-3.3393,-3.3378,-3.2988,-3.2763,-3.8088,-3.9607,-4.1127,-4.1938,-4.2632,-4.3049,-4.2938,-4.2901,-4.2901,-4.2901,-4.2901,-4.2901,-4.2901,-4.2901,-4.2901,-4.2901,-4.2901,-4.2901,-4.2901,-4.2901,-4.2629,-4.194,-4.185,-4.1488,-4.0583,-3.993,-3.946,-3.926,-3.8589,-3.8209,-3.8209,-3.8209,-3.8209,-3.8209,-3.8209,-3.8225,-3.8257,-3.8257,-3.8417,-3.8737,-3.9253,-3.9526,-3.9563,-3.9792,-3.99,-3.99,-3.99,-3.9534,-3.9009,-3.9722,-3.9135,-3.7861,-3.8747,-3.8023,-3.6604,-3.7526,-3.6774,-3.5385,-3.6145,-3.5876,-3.5446,-3.6901,-3.7521,-3.7827,-3.8476,-3.8304,-3.7619,-3.6483,-3.5647,-3.5031,-3.4651,-3.4572,-3.4582,-3.45,-3.4551,-3.4593,-3.4561,-3.4457,-3.4089,-3.3143,-3.1408,-2.9856,-2.9144,-2.9605,-3.0348,-3.1134,-3.191,-3.2629,-3.3302,-3.3393,-3.3393,-3.3393,-3.3393,-3.3393,-3.3393,-3.3393,-3.3393,-3.3393,-3.3393,-3.3393,-3.3393,-3.3393,-3.3393,-3.3393,-3.3393,-3.3393,-3.3393,-3.3393,-3.3393,-3.3378,-3.2988,-3.2634,-3.8279,-3.9733,-4.1194,-4.1934,-4.2356,-4.2668,-4.294,-4.3012,-4.2994,-4.2919,-4.2538,-4.2375,-4.2829,-4.252,-4.2375,-4.2828,-4.214,-4.1705,-4.2158,-4.185,-4.1433,-4.1071,-4.1035,-4.0727,-3.9967,-3.9586,-3.9206,-3.877,-3.8408,-3.8209,-3.8209,-3.8209,-3.8209,-3.8209,-3.8209,-3.8209,-3.8209,-3.8209,-3.8338,-3.86,-3.9013,-3.9326,-3.9495,-3.9623,-3.9689,-3.9689,-3.9689,-3.9493,-3.9188,-3.9078,-3.845,-3.7595,-3.8014,-3.7138,-3.572,-3.6604,-3.6138,-3.5226,-3.6043,-3.6109,-3.6023,-3.7241,-3.7974,-3.8268,-3.7706,-3.7619,-3.7411,-3.5987,-3.5221,-3.4733,-3.4464,-3.439,-3.4323,-3.4056,-3.4111,-3.4184,-3.4037,-3.4148,-3.393,-3.2794,-3.1506,-3.0496,-3.0098,-2.9927,-3.0132,-3.0917,-3.132,-3.1818,-3.2614,-3.2723,-3.2904,-3.3357,-3.3393,-3.3393,-3.3393,-3.3393,-3.3393,-3.3393,-3.3393,-3.3393,-3.3393,-3.3393,-3.3393,-3.3393,-3.3393,-3.3393,-3.3393,-3.3393,-3.3393,-3.3378,-3.2988,-3.2617,-3.8145,-3.9327,-4.0423,-4.1104,-4.1731,-4.2318,-4.2741,-4.2795,-4.2777,-4.2667,-4.1977,-4.1578,-4.2176,-4.1814,-4.1578,-4.2194,-4.1289,-4.0709,-4.1307,-4.0872,-4.042,-4.0256,-4.022,-3.993,-3.917,-3.9115,-3.8861,-3.8263,-3.8209,-3.8209,-3.8209,-3.8209,-3.8209,-3.8209,-3.8209,-3.8209,-3.8209,-3.8209,-3.8289,-3.8494,-3.8774,-3.9027,-3.9261,-3.9338,-3.9344,-3.9279,-3.9433,-3.937,-3.9138,-3.8749,-3.7992,-3.7105,-3.769,-3.673,-3.5152,-3.5979,-3.5902,-3.5475,-3.6093,-3.6425,-3.6749,-3.7614,-3.8223,-3.8347,-3.708,-3.6993,-3.7032,-3.5511,-3.4841,-3.454,-3.4295,-3.4159,-3.4031,-3.368,-3.3753,-3.3842,-3.3629,-3.3793,-3.3616,-3.2507,-3.1801,-3.1302,-3.1034,-3.0328,-3.0074,-3.0889,-3.0835,-3.0998,-3.1781,-3.2071,-3.2433,-3.3031,-3.3284,-3.3393,-3.3393,-3.3393,-3.3393,-3.3393,-3.3393,-3.3393,-3.3393,-3.3393,-3.3393,-3.3393,-3.3393,-3.3393,-3.3393,-3.3286,-3.3256,-3.3241,-3.2749,-3.2384,-3.6509,-3.7373,-3.809,-3.8572,-4.0469,-4.2171,-4.2084,-4.2013,-4.196,-4.196,-4.1198,-4.0583,-4.0619,-4.0583,-4.0583,-4.0619,-4.0546,-4.051,-4.0546,-4.0528,-4.0256,-3.9532,-3.946,-3.9134,-3.8354,-3.8263,-3.8263,-3.8209,-3.8209,-3.8209,-3.8209,-3.8209,-3.8209,-3.8209,-3.8209,-3.8209,-3.8209,-3.8209,-3.8209,-3.8224,-3.8494,-3.8631,-3.8661,-3.8915,-3.8886,-3.8691,-3.9248,-3.9032,-3.8326,-3.9107,-3.8,-3.5983,-3.7976,-3.7166,-3.5022,-3.5961,-3.6236,-3.6159,-3.6264,-3.6796,-3.7575,-3.846,-3.8242,-3.7643,-3.7566,-3.6996,-3.614,-3.5039,-3.4529,-3.4277,-3.4068,-3.3829,-3.3629,-3.3619,-3.3619,-3.3619,-3.3605,-3.3563,-3.3284,-3.2469,-3.22,-3.1904,-3.1143,-3.0328,-3.0074,-3.0889,-3.0346,-3.0147,-3.0962,-3.1727,-3.2216,-3.2252,-3.294,-3.3393,-3.3393,-3.3393,-3.3393,-3.3393,-3.3393,-3.3393,-3.3393,-3.3393,-3.3393,-3.3393,-3.3393,-3.3393,-3.3393,-3.3019,-3.2827,-3.2811,-3.2092,-3.175,-3.619,-3.6881,-3.7833,-3.8472,-3.9287,-4.0187,-4.1092,-4.1227,-4.1176,-4.1141,-4.0418,-3.9786,-3.9786,-3.9786,-3.9948,-4.042,-3.9677,-3.9206,-3.9713,-3.9351,-3.8916,-3.8662,-3.8644,-3.8517,-3.8227,-3.8209,-3.8209,-3.8209,-3.8209,-3.8209,-3.8209,-3.8209,-3.8209,-3.8209,-3.8209,-3.8209,-3.8209,-3.8209,-3.8209,-3.8209,-3.8289,-3.8433,-3.86,-3.8703,-3.8789,-3.8857,-3.8905,-3.8756,-3.8428,-3.8238,-3.7723,-3.7088,-3.7502,-3.7065,-3.6311,-3.6811,-3.6652,-3.6358,-3.7459,-3.7648,-3.7648,-3.9043,-3.8979,-3.8279,-3.7709,-3.6967,-3.6093,-3.5154,-3.4588,-3.4227,-3.4161,-3.3807,-3.3466,-3.3466,-3.3466,-3.3466,-3.3466,-3.3052,-3.273,-3.2966,-3.1737,-3.0908,-3.1636,-3.0672,-2.9893,-3.0183,-3.0418,-3.0672,-3.0962,-3.1691,-3.2397,-3.2922,-3.323,-3.3393,-3.3393,-3.3393,-3.3393,-3.3393,-3.3393,-3.3393,-3.3393,-3.3144,-3.3003,-3.3003,-3.2798,-3.2798,-3.3003,-3.2876,-3.2682,-3.2468,-3.2196,-3.195,-3.5732,-3.6353,-3.7396,-3.7827,-3.8319,-3.904,-4.0278,-4.0507,-4.0442,-4.0357,-3.9653,-3.9023,-3.9006,-3.9006,-3.9152,-3.9659,-3.8862,-3.839,-3.8933,-3.8553,-3.8209,-3.8209,-3.8209,-3.8209,-3.8209,-3.8209,-3.8209,-3.8209,-3.8209,-3.8209,-3.8209,-3.8209,-3.8209,-3.8209,-3.8209,-3.8209,-3.8209,-3.8209,-3.8209,-3.8209,-3.8209,-3.8289,-3.8481,-3.8481,-3.8569,-3.873,-3.8538,-3.8525,-3.8563,-3.8016,-3.775,-3.7669,-3.7666,-3.7337,-3.6881,-3.737,-3.7201,-3.6911,-3.8104,-3.8334,-3.8261,-3.9178,-3.9174,-3.8588,-3.7614,-3.6771,-3.6014,-3.5389,-3.4664,-3.4086,-3.4173,-3.3788,-3.3393,-3.3393,-3.3393,-3.3393,-3.3393,-3.2977,-3.2759,-3.3302,-3.2107,-3.1361,-3.2415,-3.1492,-3.0618,-3.0618,-3.0835,-3.0998,-3.0998,-3.1691,-3.2397,-3.294,-3.3248,-3.3393,-3.3393,-3.3393,-3.3393,-3.3393,-3.3271,-3.3193,-3.3193,-3.2829,-3.2634,-3.2634,-3.2401,-3.2334,-3.2417,-3.2417,-3.2317,-3.2109,-3.1985,-3.1786,0.0,0.0,0.0,-3.6413,-3.75,-3.8817,-3.9643,-3.9763,-3.9666,-3.9584,-3.8864,-3.8238,-3.8207,-3.8209,-3.8209,-3.8209,-3.8209,-3.8209,-3.8209,-3.8209,-3.8209,-3.8209,-3.8209,-3.8209,-3.8209,-3.8209,-3.8209,-3.8209,-3.8209,-3.8209,-3.8209,-3.8209,-3.8209,-3.8209,-3.8209,-3.8209,-3.8209,-3.8209,-3.8209,-3.8209,-3.8209,-3.8209,-3.8209,-3.8209,-3.8209,-3.8209,-3.8209,-3.8354,-3.8585,-3.8585,-3.8126,-3.7533,-3.859,-3.8002,-3.6663,-3.7506,-3.7816,-3.7851,-3.8134,-3.8757,-3.9369,-3.8888,-3.8717,-3.8485,-3.7363,-3.646,-3.5777,-3.5702,-3.4779,-3.3873,-3.4111,-3.3793,-3.3393,-3.3393,-3.3393,-3.3393,-3.3393,-3.3393,-3.3393,-3.3393,-3.3357,-3.3339,-3.3393,-3.2723,-3.2198,-3.2198,-3.156,-3.1057,-3.1053,-3.1727,-3.2234,-3.2234,-3.294,-3.3393,-3.3393,-3.3393,-3.3393,-3.3393,-3.3019,-3.2795,-3.2795,-3.2468,-3.2283,-3.2283,-3.2283,-3.2074,-3.1694,-3.1712,-3.1695,-3.1694,-3.1349,-3.119,-3.5044,0.0,0.0,0.0,0.0,0.0,-3.7841,-3.7619,-3.7433,-3.8569,-3.8107,-3.7678,-3.8227,-3.8305,-3.8274,-3.8274,-3.8242,-3.8209,-3.8209,-3.8209,-3.8209,-3.8209,-3.8209,-3.8209,-3.8209,-3.8209,-3.8209,-3.8209,-3.8209,-3.8209,-3.8209,-3.8209,-3.8209,-3.8209,-3.8209,-3.8209,-3.8209,-3.8209,-3.8209,-3.8209,-3.8209,-3.8209,-3.8209,-3.8209,-3.8209,-3.8209,-3.8209,-3.8241,-3.8305,-3.8305,-3.8178,-3.8029,-3.8524,-3.8427,-3.8074,-3.8521,-3.8294,-3.7885,-3.855,-3.8558,-3.8374,-3.9057,-3.8858,-3.827,-3.7974,-3.6892,-3.5762,-3.554,-3.4678,-3.378,-3.3643,-3.3506,-3.3393,-3.3393,-3.3393,-3.3393,-3.3393,-3.3393,-3.3393,-3.3393,-3.2451,-3.2035,-3.3194,-3.2723,-3.2198,-3.2198,-3.2506,-3.2524,-3.1926,-3.256,-3.3067,-3.3067,-3.3266,-3.3393,-3.3393,-3.3393,-3.3393,-3.3393,-3.3019,-3.2795,-3.2795,-3.2196,-3.186,-3.186,-3.1637,-3.1447,-3.1349,-3.1582,-3.1564,-3.1349,-3.1232,-3.119,-3.6058,-3.6359,-3.6882,-3.5915,0.0,0.0,-3.7213,-3.7081,-3.7036,-3.8235,-3.8097,-3.7883,-3.8326,-3.8368,-3.8354,-3.8354,-3.829,-3.8224,-3.8209,-3.8209,-3.8209,-3.8209,-3.8209,-3.8209,-3.8209,-3.8209,-3.8209,-3.8209,-3.8209,-3.8209,-3.8209,-3.8209,-3.8209,-3.8209,-3.8209,-3.8209,-3.8209,-3.8209,-3.8209,-3.8209,-3.8209,-3.8209,-3.8209,-3.8209,-3.8209,-3.8209,-3.8209,-3.8209,-3.8209,-3.8209,-3.8209,-3.8225,-3.8368,-3.8433,-3.8446,-3.8597,-3.8379,-3.8048,-3.8637,-3.8518,-3.821,-3.8654,-3.867,-3.8458,-3.8005,-3.6974,-3.5925,-3.5787,-3.481,-3.3812,-3.3884,-3.3647,-3.3393,-3.3393,-3.3393,-3.3393,-3.3393,-3.3393,-3.3393,-3.3393,-3.2632,-3.2288,-3.3248,-3.3013,-3.2705,-3.2705,-3.3103,-3.323,-3.2759,-3.3103,-3.3393,-3.3393,-3.3393,-3.3393,-3.3393,-3.3393,-3.3393,-3.3393,-3.3019,-3.2731,-3.2601,-3.2021,-3.1638,-3.1487,-3.1291,-3.119,-3.119,-3.1389,-3.1389,-3.119,-3.119,-3.1171,-3.7542,-3.7575,-3.7635,-3.6758,-3.6477,0.0,-3.7228,-3.7305,-3.7441,-3.812,-3.8178,-3.8146,-3.8266,-3.8287,-3.8323,-3.8396,-3.8336,-3.829,-3.8225,-3.8209,-3.8209,-3.8209,-3.8209,-3.8209,-3.8209,-3.8209,-3.8209,-3.8209,-3.8209,-3.8209,-3.8209,-3.8209,-3.8209,-3.8209,-3.8209,-3.8209,-3.8209,-3.8209,-3.8209,-3.8209,-3.8209,-3.8209,-3.8209,-3.8209,-3.8209,-3.8209,-3.8209,-3.8209,-3.8209,-3.8209,-3.8209,-3.8209,-3.8209,-3.8209,-3.8209,-3.8209,-3.8209,-3.8224,-3.8462,-3.8572,-3.849,-3.8029,-3.8308,-3.8637,-3.7684,-3.678,-3.606,-3.6043,-3.4985,-3.4009,-3.4467,-3.4081,-3.352,-3.3429,-3.3393,-3.3393,-3.3393,-3.3393,-3.3393,-3.3393,-3.3393,-3.3393,-3.3393,-3.3393,-3.3393,-3.3393,-3.3321,-3.3302,-3.3393,-3.3321,-3.3302,-3.3393,-3.3393,-3.3393,-3.3393,-3.3393,-3.3393,-3.3393,-3.2988,-3.2601,-3.2317,-3.1878,-3.1506,-3.121,-3.119,-3.119,-3.119,-3.119,-3.119,-3.119,-3.119,-3.1112,-3.7591,-3.7777,-3.799,-3.705,-3.6701,0.0,-3.6615,-3.6108,-3.5855,-3.6578,-3.6164,-3.6094,-3.7429,-3.7592,-3.7729,-3.8384,-3.8415,-3.8352,-3.829,-3.8224,-3.8209,-3.8209,-3.8209,-3.8209,-3.8209,-3.8209,-3.8209,-3.8209,-3.8209,-3.8209,-3.8209,-3.8209,-3.8209,-3.8209,-3.8209,-3.8209,-3.8209,-3.8209,-3.8209,-3.8209,-3.8209,-3.8209,-3.8209,-3.8209,-3.8209,-3.8209,-3.8209,-3.8209,-3.8209,-3.8209,-3.8209,-3.8209,-3.8209,-3.8209,-3.8209,-3.8209,-3.8209,-3.8209,-3.8257,-3.829,-3.8303,-3.8401,-3.8118,-3.7676,-3.7456,-3.6391,-3.5188,-3.4972,-3.4697,-3.4482,-3.4567,-3.448,-3.4208,-3.3556,-3.3393,-3.3393,-3.3393,-3.3393,-3.3393,-3.3393,-3.3393,-3.3393,-3.3393,-3.3393,-3.3393,-3.3393,-3.285,-3.2669,-3.3321,-3.2832,-3.2687,-3.3339,-3.3393,-3.3393,-3.3393,-3.3393,-3.3393,-3.3393,-3.2766,-3.2368,-3.23,-3.1638,-3.1269,-3.119,-3.119,-3.119,-3.119,-3.119,-3.119,-3.119,-3.1092,-3.1015,-3.8678,-3.8568,-3.8476,-3.7572,-3.7257,0.0,0.0,-3.6436,-3.6178,-3.737,-3.6591,-3.6084,-3.7316,-3.7477,-3.7528,-3.7931,-3.8253,-3.843,-3.8401,-3.8336,-3.8289,-3.8257,-3.8241,-3.8242,-3.8209,-3.8209,-3.8209,-3.8209,-3.8209,-3.8209,-3.8209,-3.8209,-3.8209,-3.8209,-3.8209,-3.8209,-3.8209,-3.8209,-3.8209,-3.8209,-3.8209,-3.8209,-3.8209,-3.8209,-3.8209,-3.8209,-3.8209,-3.8209,-3.8209,-3.8209,-3.8209,-3.8209,-3.8209,-3.8209,-3.8209,-3.8209,-3.8209,-3.8209,-3.8209,-3.8209,-3.8153,-3.7897,-3.7525,-3.714,-3.6723,-3.5772,-3.4776,-3.4634,-3.4317,-3.4099,-3.4516,-3.4283,-3.39,-3.3502,-3.3393,-3.3393,-3.3393,-3.3393,-3.3393,-3.3393,-3.3393,-3.3393,-3.3393,-3.3393,-3.3393,-3.3393,-3.3067,-3.2795,-3.2795,-3.2795,-3.2795,-3.2795,-3.3158,-3.3334,-3.3114,-3.3099,-3.3037,-3.2846,-3.2503,-3.2214,-3.2021,-3.1638,-3.137,-3.121,-3.1131,-3.1112,-3.1112,-3.1072,-3.1072,-3.1112,-3.1012,-3.0915,-3.977,-3.9482,-3.9188,-3.8348,-3.8219,-3.8206,0.0,0.0,0.0,-3.8005,-3.7261,-3.6597,-3.7245,-3.7331,-3.7323,-3.7474,-3.7946,-3.8321,-3.8321,-3.8387,-3.8471,-3.854,-3.8398,-3.8328,-3.8442,-3.8299,-3.8209,-3.8209,-3.8209,-3.8209,-3.8209,-3.8209,-3.8209,-3.8209,-3.8209,-3.8209,-3.8209,-3.8209,-3.8209,-3.8209,-3.8209,-3.8209,-3.8209,-3.8209,-3.8209,-3.8209,-3.8209,-3.8209,-3.8209,-3.8209,-3.8209,-3.8209,-3.8209,-3.8209,-3.8209,-3.8209,-3.8209,-3.8209,-3.8209,-3.8209,-3.8064,-3.7267,-3.6796,-3.6397,-3.5584,-3.4881,-3.4407,-3.457,-3.4135,-3.3791,-3.4443,-3.4117,-3.3592,-3.3447,-3.3393,-3.3393,-3.3393,-3.3393,-3.3393,-3.3393,-3.3393,-3.3393,-3.3393,-3.3393,-3.3393,-3.3393,-3.3266,-3.2995,-3.2488,-3.2868,-3.2977,-3.2488,-3.2936,-3.3144,-3.2844,-3.2731,-3.2584,-3.2317,-3.2231,-3.2039,-3.1714,-3.1603,-3.143,-3.1171,-3.1035,-3.0975,-3.0975,-3.0912,-3.0895,-3.0975,-3.0912,-3.0794,-3.9944,-4.0118,-4.0314,-3.9508,-3.972,-3.97,-3.8132,0.0,-3.7289,-3.5982,0.0,-3.6514,-3.6541,0.0,0.0,-3.7397,-3.7551,-3.7606,-3.7606,-3.8215,-3.8852,-3.9385,-3.8775,-3.858,-3.927,-3.8658,-3.8209,-3.8209,-3.8209,-3.8209,-3.8209,-3.8209,-3.8209,-3.8209,-3.8209,-3.8209,-3.8209,-3.8209,-3.8209,-3.8209,-3.8209,-3.8209,-3.8209,-3.8209,-3.8209,-3.8209,-3.8209,-3.8209,-3.8209,-3.8209,-3.8209,-3.8209,-3.8209,-3.8209,-3.8209,-3.8209,-3.8209,-3.8209,-3.8209,-3.8209,-3.8064,-3.7267,-3.6037,-3.4733,-3.3918,-3.361,-3.3683,-3.4407,-3.4534,-3.448,-3.4588,-3.4534,-3.428,-3.3574,-3.3393,-3.3393,-3.3393,-3.3393,-3.3393,-3.3393,-3.3393,-3.3393,-3.3393,-3.3393,-3.3393,-3.3393,-3.2795,-3.256,-3.3176,-3.2723,-3.2578,-3.3194,-3.3029,-3.286,-3.2795,-3.2518,-3.2351,-3.23,-3.1967,-3.175,-3.1695,-3.1295,-3.1075,-3.1015,-3.0952,-3.0912,-3.0912,-3.0773,-3.079,-3.0912,-3.0773,-3.0712,-3.9601,-3.9949,-4.0322,-3.9477,-3.9849,-4.0085,-3.885,-3.7835,-3.7241,-3.7455,0.0,0.0,0.0,0.0,0.0,0.0,-3.6853,-3.6857,-3.6813,-3.7092,-3.7726,-3.8828,-3.865,-3.853,-3.8778,-3.844,-3.8209,-3.8209,-3.8209,-3.8209,-3.8209,-3.8209,-3.8209,-3.8209,-3.8209,-3.8209,-3.8209,-3.8209,-3.8209,-3.8209,-3.8209,-3.8209,-3.8209,-3.8209,-3.8209,-3.8209,-3.8209,-3.8209,-3.8209,-3.8209,-3.8209,-3.8209,-3.8209,-3.8209,-3.8209,-3.8209,-3.8209,-3.8209,-3.8209,-3.8209,-3.8064,-3.7267,-3.591,-3.4552,-3.4208,-3.3773,-3.3465,-3.381,-3.39,-3.39,-3.39,-3.39,-3.3828,-3.3484,-3.3755,-3.3973,-3.3502,-3.4135,-3.4661,-3.419,-3.4464,-3.479,-3.479,-3.4027,-3.3393,-3.3393,-3.3103,-3.285,-3.2723,-3.2616,-3.2496,-3.237,-3.2465,-3.2418,-3.2196,-3.2021,-3.186,-3.1674,-3.1487,-3.1372,-3.1295,-3.1098,-3.0975,-3.0935,-3.0851,-3.0773,-3.0773,-3.0651,-3.0609,-3.0671,-3.0609,-3.0572,-3.969,-4.0038,-4.0428,-3.938,-3.9751,-4.0104,-3.9027,-3.8042,-3.7559,-3.8284,-3.7365,0.0,0.0,0.0,-3.675,-3.6477,0.0,-3.637,-3.6328,-3.6317,-3.6857,-3.8392,-3.8727,-3.872,-3.8342,-3.8257,-3.8225,-3.8209,-3.8209,-3.8209,-3.8209,-3.8209,-3.8209,-3.8209,-3.8209,-3.8209,-3.8209,-3.8209,-3.8209,-3.8209,-3.8209,-3.8209,-3.8209,-3.8209,-3.8209,-3.8209,-3.8209,-3.8209,-3.8209,-3.8209,-3.8209,-3.8209,-3.8209,-3.8209,-3.8209,-3.8209,-3.8209,-3.8209,-3.8209,-3.8064,-3.7774,-3.7194,-3.6055,-3.4917,-3.4917,-3.4371,-3.3773,-3.4009,-3.3737,-3.3447,-3.3665,-3.3574,-3.3465,-3.3683,-3.419,-3.4516,-3.4154,-3.4971,-3.5623,-3.5025,-3.5388,-3.5804,-3.5804,-3.4661,-3.3737,-3.3737,-3.3445,-3.3024,-3.2429,-3.2552,-3.2437,-3.185,-3.1999,-3.2021,-3.1714,-3.162,-3.1449,-3.121,-3.1171,-3.1112,-3.0995,-3.0955,-3.0895,-3.0851,-3.0712,-3.0651,-3.0651,-3.0547,-3.0506,-3.0506,-3.0506,-3.0506,-4.0589,-4.0804,-4.1078,-3.9514,-3.9751,-3.997,-3.8302,-3.8488,-3.8599,-3.7076,-3.7949,-3.8739,-3.7951,-3.7785,-3.7493,-3.662,-3.644,0.0,0.0,-3.6328,-3.6909,-3.849,-3.9326,-3.9378,-3.8396,-3.8307,-3.8274,-3.8209,-3.8209,-3.8209,-3.8209,-3.8209,-3.8209,-3.8209,-3.8209,-3.8209,-3.8209,-3.8209,-3.8209,-3.8209,-3.8209,-3.8209,-3.8209,-3.8209,-3.8209,-3.8209,-3.8209,-3.8209,-3.8209,-3.8209,-3.8209,-3.8209,-3.8209,-3.8209,-3.8209,-3.8209,-3.8209,-3.8209,-3.8209,-3.7701,-3.7031,-3.7013,-3.6435,-3.575,-3.575,-3.5188,-3.4718,-3.5496,-3.4606,-3.3574,-3.4371,-3.3991,-3.361,-3.4389,-3.4588,-3.4808,-3.555,-3.575,-3.5786,-3.5768,-3.5768,-3.5804,-3.5804,-3.5098,-3.457,-3.457,-3.3571,-3.2811,-3.2775,-3.2501,-3.2299,-3.2282,-3.195,-3.1714,-3.1695,-3.1408,-3.121,-3.119,-3.1092,-3.0995,-3.0995,-3.0814,-3.0712,-3.0712,-3.0568,-3.0506,-3.0506,-3.0506,-3.0506,-3.0506,-3.0506,-3.0506,-4.1068,-4.153,-4.1782,-4.0226,-4.0481,-4.0552,-3.8381,-3.8098,-3.8154,-3.7596,-3.7931,-3.8377,-3.8614,-3.8224,-3.7765,-3.7419,-3.6878,-3.632,0.0,-3.5501,-3.5646,-3.6197,-3.7369,-3.7804,-3.6875,-3.7703,-3.8056,-3.7448,-3.7901,-3.8209,-3.8209,-3.8209,-3.8209,-3.8209,-3.8209,-3.8209,-3.8209,-3.8209,-3.8209,-3.8209,-3.8209,-3.8209,-3.8209,-3.8209,-3.8209,-3.8209,-3.8209,-3.8209,-3.8209,-3.8209,-3.8209,-3.8209,-3.8209,-3.8209,-3.8209,-3.8209,-3.8209,-3.8209,-3.8209,-3.8028,-3.7792,-3.7792,-3.7249,-3.6596,-3.6596,-3.6037,-3.5333,-3.508,-3.4989,-3.4917,-3.4663,-3.479,-3.5062,-3.5315,-3.5802,-3.6109,-3.5874,-3.6635,-3.7232,-3.6689,-3.7015,-3.7395,-3.7395,-3.6707,-3.5903,-3.5065,-3.4576,-3.4051,-3.3299,-3.2895,-3.2486,-3.1966,-3.1564,-3.137,-3.137,-3.1173,-3.1072,-3.1072,-3.0992,-3.0895,-3.0794,-3.0733,-3.0651,-3.0568,-3.0526,-3.0506,-3.0506,-3.0506,-3.0506,-3.0506,-3.0506,-3.0506,-4.1767,-4.2078,-4.2168,-4.0898,-4.1003,-4.0885,-3.8772,-3.8521,-3.8558,-3.7983,-3.8122,-3.8474,-3.8938,-3.8646,-3.8214,-3.7854,0.0,-3.6596,0.0,-3.5124,-3.4959,-3.4601,-3.597,-3.6826,-3.6495,-3.7091,-3.7501,-3.7479,-3.768,-3.7934,-3.8191,-3.8209,-3.8209,-3.8209,-3.8209,-3.8209,-3.8209,-3.8209,-3.8209,-3.8209,-3.8209,-3.8209,-3.8209,-3.8209,-3.8209,-3.8209,-3.8209,-3.8209,-3.8209,-3.8209,-3.8209,-3.8209,-3.8209,-3.8209,-3.8209,-3.8209,-3.8209,-3.8209,-3.8209,-3.8209,-3.8209,-3.8209,-3.7846,-3.743,-3.743,-3.6852,-3.6182,-3.5946,-3.5838,-3.575,-3.5512,-3.5639,-3.5858,-3.6164,-3.6633,-3.6941,-3.6707,-3.7468,-3.8064,-3.7538,-3.7846,-3.8209,-3.8209,-3.7774,-3.704,-3.5943,-3.5294,-3.4659,-3.3915,-3.3398,-3.2877,-3.2344,-3.1873,-3.1559,-3.152,-3.1419,-3.1358,-3.1358,-3.1026,-3.0794,-3.0692,-3.0651,-3.0589,-3.0506,-3.0506,-3.0506,-3.0506,-3.0506,-3.0506,-3.0506,-3.0506,-3.0506]},{"header":{"parameterUnit":"m.s-1","parameterCategory":1,"la1":30.6,"la2":29.2853,"lo1":-89.7004,"lo2":-87.6739,"dy":0.0162,"dx":0.0183,"nx":112,"ny":82,"refTime":"2025-05-22T18:00:00:Z","depth":0,"parameterNumber":3,"parameterNumberName":"V-component_of_WINDS"},"data":[0.0,0.0,0.0,0.0,0.0,0.0,0.0,0.0,0.0,0.0,0.0,0.0,0.0,0.0,0.0,0.0,0.0,0.0,0.0,0.0,0.0,0.0,0.0,0.0,0.0,0.0,0.0,0.0,0.0,0.0,0.0,0.0,0.0,0.0,0.0,0.0,0.0,0.0,0.0,0.0,0.0,0.0,0.0,0.0,0.0,0.0,0.0,0.0,0.0,0.0,0.0,0.0,0.0,0.0,0.0,0.0,0.0,0.0,0.0,0.0,0.0,0.0,0.0,0.0,0.0,0.0,0.0,0.0,0.0,0.0,0.0,0.0,0.0,0.0,0.0,0.0,0.0,0.0,0.0,0.0,0.0,0.0,0.0,0.0,0.0,0.0,0.0,0.0,0.0,0.0,-0.2937,-0.3692,-0.4879,-0.5598,-0.5598,-0.5831,-0.5939,-0.581,0.0,0.0,0.0,0.0,0.0,0.0,0.0,0.0,0.0,0.0,0.0,0.0,0.0,0.0,0.0,0.0,0.0,0.0,0.0,0.0,0.0,0.0,0.0,0.0,0.0,0.0,0.0,0.0,0.0,0.0,0.0,0.0,0.0,0.0,0.0,0.0,0.0,0.0,0.0,0.0,0.0,0.0,0.0,0.0,0.0,0.0,0.0,0.0,0.0,0.0,0.0,0.0,0.0,0.0,0.0,0.0,0.0,0.0,0.0,0.0,0.0,0.0,0.0,0.0,0.0,0.0,0.0,0.0,0.0,0.0,0.0,0.0,0.0,0.0,0.0,0.0,0.0,0.0,0.0,0.0,0.0,0.0,0.0,0.0,0.0,0.0,0.0,0.0,0.0,0.0,0.0,0.0,0.0,0.0,0.0,0.0,0.0,0.0,0.0,0.0,0.0,0.0,0.0,0.0,-0.4291,-0.4598,-0.5199,-0.5598,-0.5598,-0.5736,-0.5827,-0.5803,0.0,0.0,0.0,0.0,0.0,0.0,0.0,0.0,0.0,0.0,0.0,0.0,0.0,0.0,0.0,0.0,0.0,0.0,0.0,0.0,0.0,0.0,0.0,0.0,0.0,0.0,0.0,0.0,0.0,0.0,0.0,0.0,0.0,0.0,0.0,0.0,0.0,0.0,0.0,0.0,0.0,0.0,0.0,0.0,0.0,0.0,0.0,0.0,0.0,0.0,0.0,0.0,0.0,0.0,0.0,0.0,0.0,0.0,0.0,0.0,0.0,0.0,0.0,0.0,0.0,0.0,0.0,0.0,0.0,0.0,0.0,0.0,0.0,0.0,0.0,0.0,0.0,0.0,0.0,0.0,0.0,0.0,0.0,0.0,0.0,0.0,0.0,0.0,0.0,0.0,0.0,0.0,0.0,0.0,0.0,0.0,0.0,0.0,0.0,0.0,0.0,0.0,0.0,-0.3996,-0.4225,-0.483,-0.533,-0.5598,-0.5598,-0.5792,-0.5888,-0.5806,-0.5667,0.0,0.0,0.0,0.0,0.0,0.0,0.0,0.0,0.0,0.0,0.0,0.0,0.0,0.0,0.0,0.0,0.0,0.0,0.0,0.0,0.0,0.0,0.0,0.0,0.0,0.0,0.0,0.0,0.0,0.0,0.0,0.0,0.0,0.0,0.0,0.0,0.0,0.0,0.0,0.0,0.0,0.0,0.0,0.0,0.0,0.0,0.0,0.0,0.0,0.0,0.0,0.0,0.0,0.0,0.0,0.0,0.0,0.0,0.0,0.0,0.0,0.0,0.0,0.0,0.0,0.0,0.0,0.0,0.0,0.0,0.0,0.0,0.0,0.0,0.0,0.0,0.0,0.0,0.0,0.0,0.0,0.0,0.0,0.0,0.0,0.0,0.0,0.0,0.0,0.0,0.0,0.0,0.0,0.0,0.0,0.0,0.0,0.0,0.0,0.0,0.0,0.0,-0.3906,-0.4208,-0.4919,-0.5365,-0.5598,-0.5598,-0.5821,-0.5925,-0.581,-0.5633,0.0,0.0,0.0,0.0,0.0,0.0,0.0,0.0,0.0,0.0,0.0,0.0,0.0,0.0,0.0,0.0,0.0,0.0,0.0,0.0,0.0,0.0,0.0,0.0,0.0,0.0,0.0,0.0,0.0,0.0,0.0,0.0,0.0,0.0,0.0,0.0,0.0,0.0,0.0,0.0,0.0,0.0,0.0,0.0,0.0,0.0,0.0,0.0,0.0,0.0,0.0,0.0,0.0,0.0,0.0,0.0,0.0,0.0,0.0,0.0,0.0,0.0,0.0,0.0,0.0,0.0,0.0,0.0,0.0,0.0,0.0,0.0,0.0,0.0,0.0,0.0,0.0,0.0,0.0,0.0,0.0,0.0,0.0,0.0,0.0,0.0,0.0,0.0,0.0,0.0,0.0,0.0,0.0,0.0,0.0,0.0,0.0,0.0,0.0,0.0,0.0,0.0,-0.4779,-0.4921,-0.4976,-0.5365,-0.5598,-0.5598,-0.5727,-0.5813,-0.58,-0.5569,0.0,0.0,0.0,0.0,0.0,0.0,0.0,0.0,0.0,0.0,0.0,0.0,0.0,0.0,0.0,0.0,0.0,0.0,0.0,0.0,0.0,0.0,0.0,0.0,0.0,0.0,0.0,0.0,0.0,0.0,0.0,0.0,0.0,0.0,0.0,0.0,0.0,0.0,0.0,0.0,0.0,0.0,0.0,0.0,0.0,0.0,0.0,0.0,0.0,0.0,0.0,0.0,0.0,0.0,0.0,0.0,0.0,0.0,0.0,0.0,0.0,0.0,0.0,0.0,0.0,0.0,0.0,0.0,0.0,0.0,0.0,0.0,0.0,0.0,0.0,0.0,0.0,0.0,0.0,0.0,0.0,0.0,0.0,0.0,0.0,0.0,0.0,0.0,0.0,0.0,0.0,0.0,0.0,0.0,0.0,0.0,0.0,0.0,0.0,0.0,0.0,0.0,-0.4348,-0.4354,-0.4932,-0.5246,-0.5479,-0.5598,-0.5685,-0.5752,-0.5806,0.0,0.0,0.0,0.0,0.0,0.0,0.0,0.0,0.0,0.0,0.0,0.0,0.0,0.0,0.0,0.0,0.0,0.0,0.0,0.0,0.0,0.0,0.0,0.0,0.0,0.0,0.0,0.0,0.0,0.0,0.0,0.0,0.0,0.0,0.0,0.0,0.0,0.0,0.0,0.0,0.0,0.0,0.0,0.0,0.0,0.0,0.0,0.0,0.0,0.0,0.0,0.0,0.0,0.0,0.0,0.0,0.0,0.0,0.0,0.0,0.0,0.0,0.0,0.0,0.0,0.0,0.0,0.0,0.0,0.0,0.0,0.0,0.0,0.0,0.0,0.0,0.0,0.0,0.0,0.0,0.0,0.0,0.0,0.0,0.0,0.0,0.0,0.0,0.0,0.0,0.0,0.0,0.0,0.0,0.0,0.0,0.0,0.0,0.0,0.0,0.0,0.0,-0.4568,-0.4078,-0.3997,-0.489,-0.5168,-0.5359,-0.5479,-0.5541,-0.5579,-0.5702,0.0,0.0,0.0,0.0,0.0,0.0,0.0,0.0,0.0,0.0,0.0,0.0,0.0,0.0,0.0,0.0,0.0,0.0,0.0,0.0,0.0,0.0,0.0,0.0,0.0,0.0,0.0,0.0,0.0,0.0,0.0,0.0,0.0,0.0,0.0,0.0,0.0,0.0,0.0,0.0,0.0,0.0,0.0,0.0,0.0,0.0,0.0,0.0,0.0,0.0,0.0,0.0,0.0,0.0,0.0,0.0,0.0,0.0,0.0,0.0,0.0,0.0,0.0,0.0,0.0,0.0,0.0,0.0,0.0,0.0,0.0,0.0,0.0,0.0,0.0,0.0,0.0,0.0,0.0,0.0,0.0,0.0,0.0,0.0,0.0,0.0,0.0,0.0,0.0,0.0,0.0,0.0,0.0,0.0,0.0,0.0,0.0,0.0,0.0,0.0,0.0,0.0,-0.4579,-0.4173,-0.4107,-0.4898,-0.5168,-0.5282,-0.5282,-0.5232,-0.53,0.0,0.0,0.0,0.0,0.0,0.0,0.0,0.0,0.0,0.0,0.0,0.0,0.0,0.0,0.0,0.0,0.0,0.0,0.0,0.0,0.0,0.0,0.0,0.0,0.0,0.0,0.0,0.0,0.0,0.0,0.0,0.0,0.0,0.0,0.0,0.0,0.0,0.0,0.0,0.0,0.0,0.0,0.0,0.0,0.0,0.0,0.0,0.0,0.0,0.0,0.0,0.0,0.0,0.0,0.0,0.0,0.0,0.0,0.0,0.0,0.0,0.0,0.0,0.0,0.0,0.0,0.0,0.0,0.0,0.0,0.0,0.0,0.0,0.0,0.0,0.0,0.0,0.0,0.0,0.0,0.0,0.0,0.0,0.0,0.0,0.0,0.0,0.0,0.0,0.0,0.0,0.0,0.0,0.0,0.0,0.0,0.0,0.0,0.0,0.0,0.0,0.0,0.0,-0.3661,-0.3264,-0.3207,-0.4068,-0.4698,-0.5129,-0.5282,-0.5127,-0.5123,-0.5486,0.0,0.0,0.0,0.0,0.0,0.0,0.0,0.0,0.0,0.0,0.0,0.0,0.0,0.0,0.0,0.0,0.0,0.0,0.0,0.0,0.0,0.0,0.0,0.0,0.0,0.0,0.0,0.0,0.0,0.0,0.0,0.0,0.0,0.0,0.0,0.0,0.0,0.0,0.0,0.0,0.0,0.0,0.0,0.0,0.0,0.0,0.0,0.0,0.0,0.0,0.0,0.0,0.0,0.0,0.0,0.0,0.0,0.0,0.0,0.0,0.0,0.0,0.0,0.0,0.0,0.0,0.0,0.0,0.0,0.0,0.0,0.0,0.0,0.0,0.0,0.0,0.0,0.0,0.0,0.0,0.0,0.0,0.0,0.0,0.0,0.0,0.0,0.0,0.0,0.0,0.0,0.0,0.0,0.0,0.0,0.0,0.0,0.0,0.0,0.0,0.0,0.0,-0.326,-0.2885,-0.2815,-0.3713,-0.4501,-0.5054,-0.5168,-0.4941,-0.4945,-0.5234,0.0,0.0,0.0,0.0,0.0,0.0,0.0,0.0,0.0,0.0,0.0,0.0,0.0,0.0,0.0,0.0,0.0,0.0,0.0,0.0,0.0,0.0,0.0,0.0,0.0,0.0,0.0,0.0,0.0,0.0,0.0,0.0,0.0,0.0,0.0,0.0,0.0,0.0,0.0,0.0,0.0,0.0,0.0,0.0,0.0,0.0,0.0,0.0,0.0,0.0,0.0,0.0,0.0,0.0,0.0,0.0,0.0,0.0,0.0,0.0,0.0,0.0,0.0,0.0,0.0,0.0,0.0,0.0,0.0,0.0,0.0,0.0,0.0,0.0,0.0,0.0,0.0,0.0,0.0,0.0,0.0,0.0,0.0,0.0,0.0,0.0,0.0,0.0,0.0,0.0,0.0,0.0,0.0,0.0,0.0,0.0,0.0,0.0,0.0,0.0,0.0,0.0,-0.3116,-0.2772,-0.2737,-0.3597,-0.4423,-0.4935,-0.4963,-0.4824,-0.4759,-0.4892,0.0,0.0,0.0,0.0,0.0,0.0,0.0,0.0,0.0,0.0,0.0,0.0,0.0,0.0,0.0,0.0,0.0,0.0,0.0,0.0,0.0,0.0,0.0,0.0,0.0,0.0,0.0,0.0,0.0,0.0,0.0,0.0,0.0,0.0,0.0,0.0,0.0,0.0,0.0,0.0,0.0,0.0,0.0,0.0,0.0,0.0,0.0,0.0,0.0,0.0,0.0,0.0,0.0,0.0,0.0,0.0,0.0,0.0,0.0,0.0,0.0213,0.0,0.0,0.0,0.0,0.0,0.0,0.0,0.0,0.0,0.0,0.0,0.0,0.0,0.0,0.0,0.0,0.0,0.0,0.0,0.0,0.0,0.0,0.0,0.0,0.0,0.0,0.0,0.0,0.0,0.0,0.0,0.0,0.0,0.0,0.0,0.0,0.0,0.0,0.0,0.0,0.0,-0.2319,-0.1899,-0.1879,-0.2699,-0.3558,-0.4271,-0.4806,-0.4738,-0.472,-0.4728,-0.4496,0.0,0.0,0.0,0.0,0.0,0.0,0.0,0.0,0.0,0.0,0.0,0.0,0.0,0.0,0.0,0.0,0.0,0.0,0.0,0.0,0.0,0.0,0.0,0.0,0.0,0.0,0.0,0.0,0.0,0.0,0.0,0.0,0.0,0.0,0.0,0.0,0.0,0.0,0.0,0.0,0.0,0.0,0.0,0.0,0.0,0.0,0.0,0.0,0.0,0.0,0.0,0.0,0.0,0.0,0.0,0.0,0.0,0.0,0.0,0.0329,0.0143,0.0,0.0,0.0,0.0,0.0,0.0,0.0,0.0,0.0,0.0,0.0,0.0,0.0,0.0,0.0,0.0,0.0,0.0,0.0,0.0,0.0,0.0,0.0,0.0,0.0,0.0,0.0,0.0,0.0,0.0,0.0,0.0,0.0,0.0,0.0,0.0,0.0,0.0,0.0,0.0,-0.1561,-0.1445,-0.1449,-0.1879,-0.3051,-0.3911,-0.4199,-0.4502,-0.4673,-0.4619,-0.4416,0.0,0.0,0.0,0.0,0.0,0.0,0.0,0.0,0.0,0.0,0.0,0.0,0.0,0.0,0.0,0.0,0.0,0.0,0.0,0.0,0.0,0.0,0.0,0.0,0.0,0.0,0.0,0.0,0.0,0.0,0.0,0.0,0.0,0.0,0.0,0.0,0.0,0.0,0.0,0.0,0.0,0.0,0.0,0.0,0.0,0.0,0.0,0.0,0.0,0.0,0.0,0.0,0.0,0.0805,0.0847,0.084,0.0804,0.0801,0.0794,0.0534,0.0413,0.034,0.0146,0.0,0.0,0.0,0.0,0.0,0.0,0.0,0.0,0.0,0.0,0.0,0.0,0.0,0.0,0.0,0.0,0.0,0.0,0.0,0.0,0.0,0.0,0.0,0.0,0.0,0.0,0.0,0.0,0.0,0.0,0.0,0.0,0.0,0.0,0.0,0.0,0.0,0.0,-0.1018,-0.1065,-0.1137,-0.1293,-0.2532,-0.3348,-0.3385,-0.4031,-0.4425,-0.4272,-0.429,-0.4303,0.0,0.0,0.0,0.0,0.0,0.0,0.0,0.0,0.0,0.0,0.0,0.0,0.0,0.0,0.0,0.0,0.0,0.0,0.0,0.0,0.0,0.0,0.0,0.0,0.0,0.0,0.0,0.0,0.0,0.0,0.0,0.0,0.606,0.6019,0.0,0.0,0.0,0.0,0.0,0.0,0.0,0.0,0.0,0.0,0.0,0.0,0.0,0.0938,0.0977,0.1021,0.1044,0.1044,0.1282,0.1379,0.1287,0.1312,0.1297,0.121,0.0995,0.0,0.0644,0.0423,0.0,0.0,0.0,0.0,0.0,0.0,0.0,0.0,0.0,0.0,0.0,0.0,0.0,0.0,0.0,0.0,0.0,0.0,0.0,0.0,0.0,0.0,0.0,0.0,0.0,0.0,0.0,-0.0071,-0.0139,-0.0135,-0.0625,-0.0865,0.0,0.0,0.0,0.0,0.0,0.0,-0.1093,-0.0571,-0.0471,-0.1215,-0.1498,-0.1841,-0.2418,-0.3139,-0.3505,-0.3374,-0.3954,-0.4295,-0.4286,-0.4152,0.0,0.0,0.0,0.0,0.0,0.0,0.0,0.0,0.0,0.0,0.0,0.0,0.0,0.0,0.0,0.0,0.0,0.0,0.0,0.0,0.0,0.0,0.0,0.0,0.0,0.0,0.0,0.0,0.0,0.6171,0.6267,0.6126,0.6147,0.594,0.0,0.0,0.0,0.0,0.0,0.0,0.0,0.0,0.0,0.1247,0.1234,0.1264,0.1296,0.1292,0.1312,0.1313,0.1441,0.1483,0.1441,0.1455,0.1438,0.1354,0.1266,0.1194,0.1065,0.0726,0.0119,-0.0619,0.0,0.0,0.0,0.0,-0.2725,-0.2591,-0.188,-0.1593,-0.1483,-0.1039,0.0,0.0,0.0,0.0,0.0,0.0,0.0,0.0329,0.0334,0.0341,0.0346,0.0343,0.0345,0.0347,0.0343,0.0336,0.0255,0.0035,-0.0209,-0.0309,-0.0033,-0.0497,0.0,0.0,0.0,-0.0476,-0.0483,-0.0192,-0.0157,-0.051,-0.1009,-0.1405,-0.1608,-0.234,-0.2914,-0.3192,-0.3487,-0.3668,-0.3689,-0.3568,-0.3303,0.0,0.0,0.0,0.0,0.0,0.0,0.0,0.0,0.0,0.0,0.0,0.0,0.0,0.0,0.0,0.0,0.0,0.0,0.0,0.0,0.0,0.0,0.0,0.0,0.0,0.0,0.0,0.0,0.6485,0.6531,0.6321,0.6462,0.6419,0.0,0.0,0.0,0.0,0.0,0.0,0.137,0.1347,0.1335,0.1337,0.141,0.1446,0.1492,0.1515,0.153,0.1538,0.1538,0.1522,0.1492,0.1492,0.1472,0.1391,0.1391,0.1378,0.1354,0.0968,0.0454,-0.0082,-0.0482,-0.0997,-0.148,-0.1748,-0.1781,-0.1604,-0.0997,-0.074,-0.056,0.0,-0.0197,-0.0537,0.0,0.0,0.0,0.0,0.0,0.0592,0.0608,0.0612,0.0615,0.0587,0.0589,0.0589,0.0589,0.0581,0.0493,0.0222,0.011,0.0072,0.0071,0.0035,0.0,0.0,0.0,0.0,0.0,0.0,0.0,0.0,-0.0585,-0.0917,-0.0841,-0.1556,-0.219,-0.2622,-0.2815,-0.2915,-0.2915,-0.2827,-0.2528,-0.2024,0.0,0.0,0.0,0.0,0.0,0.0,0.0,0.0,0.0,0.0,0.0,0.0,0.0,0.0,0.0,0.0,0.0,0.0,0.0,0.0,0.0,0.0,0.0,0.0,0.0,0.0,0.0,0.0,0.0,0.6896,0.6988,0.0,0.0,0.0,0.0,0.3909,0.3749,0.3034,0.1468,0.1438,0.1471,0.1474,0.1503,0.1473,0.1523,0.1478,0.154,0.1618,0.1618,0.1553,0.1523,0.1523,0.1445,0.1391,0.1391,0.139,0.1386,0.1182,0.1029,0.0841,-0.0126,-0.0544,-0.0586,-0.0587,-0.0586,-0.0461,0.0336,0.0588,0.0632,0.0645,0.0631,0.0606,0.067,0.0644,0.0,0.0,0.0604,0.0608,0.0584,0.0588,0.0588,0.0589,0.0589,0.0589,0.0589,0.0589,0.0584,0.0569,0.0408,0.0291,0.0291,0.0,0.0,0.0,0.0,0.0,0.0,0.0,0.0,0.0,-0.0038,-0.0075,-0.0073,-0.0748,-0.1179,-0.1212,-0.1812,-0.2146,-0.2146,-0.2144,-0.2116,-0.1993,-0.1986,0.0,0.0,0.0,0.0,0.0,0.0,0.0,0.0,0.0,0.0,0.0,0.0,0.0,0.0,0.0,0.0,0.0,0.0,0.0,0.0,0.0,0.0,0.0,0.0,0.0,0.0,0.0,0.0,0.7603,0.7739,0.0,0.7133,0.7088,0.6547,0.5233,0.4526,0.3647,0.2531,0.1871,0.1519,0.1586,0.1549,0.1565,0.1584,0.1584,0.159,0.16,0.1581,0.1555,0.1478,0.1506,0.1474,0.1391,0.1391,0.1391,0.139,0.1336,0.1281,0.1229,0.0702,0.0526,0.0526,0.0351,0.0263,0.0307,0.0614,0.0696,0.0688,0.0683,0.0717,0.0706,0.07,0.0772,0.0843,0.085,0.0934,0.1057,0.1066,0.1068,0.1065,0.1049,0.1045,0.1041,0.1064,0.1061,0.1058,0.1049,0.076,0.0486,0.0486,0.0442,0.0403,0.0373,0.0376,0.0381,0.0387,0.0391,0.0393,0.0393,0.039,0.0381,0.0402,0.0145,-0.0212,-0.0674,-0.0941,-0.1074,-0.1074,-0.1074,-0.0869,-0.0398,-0.039,-0.0374,0.0,0.0,0.0,0.0,0.0,0.0,0.0,0.0,0.0,0.0,0.0,0.0,0.0,0.0,0.0,0.0,0.0,0.0,0.0,0.0,0.0,0.0,0.0,0.0,0.0,0.7788,0.7987,0.8013,0.8201,0.8214,0.7763,0.7766,0.7333,0.6221,0.5148,0.4114,0.3167,0.213,0.1566,0.1586,0.1587,0.1596,0.1616,0.1617,0.1617,0.1616,0.1586,0.1555,0.1477,0.1495,0.1464,0.1391,0.1391,0.1391,0.1391,0.1391,0.1391,0.1391,0.1256,0.1211,0.1166,0.0987,0.0942,0.0942,0.0942,0.0934,0.0921,0.0951,0.0942,0.0936,0.0936,0.1016,0.1095,0.1095,0.1179,0.1305,0.1305,0.1305,0.1298,0.131,0.131,0.1307,0.1305,0.1305,0.1309,0.1298,0.0969,0.069,0.069,0.0643,0.0602,0.0612,0.0613,0.0617,0.0588,0.0589,0.0589,0.0589,0.0589,0.0616,0.0586,0.0583,0.0392,-0.0135,-0.0168,-0.0168,-0.0168,-0.0168,0.0034,0.0506,0.0491,0.0441,0.0359,0.0,0.0,0.0,0.0,0.0,0.0,0.0,0.0,0.0,0.0,0.0,0.0,0.0,0.0,0.0,0.0,0.0,0.0,0.0,0.0,0.0,0.0,0.0,0.7516,0.7967,0.8262,0.8072,0.8464,0.8606,0.8265,0.8355,0.7926,0.6741,0.5656,0.4549,0.3332,0.2248,0.1617,0.1617,0.1617,0.1617,0.1617,0.1617,0.1617,0.1616,0.1585,0.1555,0.1477,0.1493,0.1463,0.1391,0.1391,0.1391,0.1391,0.1391,0.1391,0.1391,0.1391,0.1391,0.1391,0.1391,0.1391,0.1391,0.1391,0.1391,0.1391,0.1391,0.1415,0.1391,0.1391,0.1372,0.1309,0.1309,0.1309,0.1309,0.1309,0.1309,0.1301,0.1313,0.1286,0.1291,0.1312,0.1282,0.1294,0.1304,0.11,0.0904,0.0904,0.0746,0.0628,0.0628,0.0628,0.0,0.0628,0.0628,0.0628,0.0628,0.0628,0.0616,0.0622,0.0619,0.0606,0.0507,0.0506,0.0506,0.0506,0.0506,0.0506,0.0506,0.0524,0.0509,0.0526,0.0,0.0,0.0,0.0,0.0,0.0,0.0,0.0,0.0,0.0,0.0,0.0,0.0,0.0,0.0,0.0,0.0,0.0,0.0,0.0,0.0,0.778,0.8117,0.8294,0.8441,0.8633,0.8973,0.9142,0.912,0.8962,0.8968,0.8698,0.7955,0.6906,0.5733,0.444,0.3364,0.2422,0.1617,0.1617,0.1617,0.1617,0.1617,0.1617,0.1616,0.1564,0.1534,0.1477,0.1472,0.1398,0.1391,0.1391,0.1391,0.1391,0.1391,0.1391,0.1391,0.1391,0.1391,0.1391,0.1391,0.1391,0.1391,0.1391,0.1391,0.1391,0.1391,0.1385,0.1378,0.1378,0.1373,0.1367,0.1367,0.1367,0.1367,0.1367,0.1367,0.136,0.1373,0.1372,0.1368,0.1289,0.1312,0.13,0.1292,0.1232,0.1178,0.1178,0.1139,0.11,0.11,0.11,0.11,0.11,0.11,0.11,0.11,0.11,0.1078,0.1025,0.1021,0.0998,0.0945,0.0942,0.0942,0.0942,0.0942,0.0942,0.0942,0.0786,0.0772,0.0,0.0,0.0,0.0,0.0,0.0,0.0,0.0,0.0,0.0,0.0,0.0,0.0,0.0,0.0,0.0,0.0,0.0,0.0,0.0,0.0,0.0,0.815,0.8563,0.8894,0.8943,0.9057,0.9367,0.9469,0.9462,0.9373,0.9381,0.9183,0.8783,0.7627,0.6376,0.5027,0.3825,0.2722,0.1617,0.1617,0.1617,0.1617,0.1617,0.1611,0.1597,0.1549,0.1519,0.1506,0.1412,0.1391,0.1391,0.1391,0.1391,0.1391,0.1391,0.1391,0.1391,0.0,0.0,0.0,0.0,0.1391,0.1391,0.1391,0.1391,0.1391,0.1391,0.1391,0.1391,0.1391,0.1391,0.1391,0.1391,0.1391,0.1391,0.1391,0.1391,0.1383,0.1397,0.1399,0.1397,0.1314,0.1292,0.1318,0.1305,0.1318,0.0,0.1296,0.1296,0.1296,0.1296,0.1296,0.1296,0.1296,0.1296,0.1296,0.1296,0.1296,0.1277,0.1189,0.121,0.0,0.0,0.0,0.1109,0.1109,0.1109,0.0,0.0,0.0,0.0,0.0,0.0,0.0,0.0,0.085,0.0888,0.0,0.0,0.0,0.0,0.0,0.0,0.0,0.0,0.0,0.0,0.0,0.0,0.0,0.0,0.0,0.0,0.8524,0.8865,0.9335,0.942,0.9433,0.9433,0.9531,0.9579,0.9579,0.9579,0.948,0.9232,0.8077,0.6825,0.5429,0.4126,0.0,0.0,0.0,0.1617,0.1617,0.1613,0.1598,0.162,0.1537,0.1507,0.148,0.1449,0.1391,0.1391,0.1391,0.1391,0.1391,0.1391,0.1391,0.1391,0.1391,0.1391,0.1391,0.1391,0.1391,0.1391,0.1391,0.0,0.0,0.1391,0.1391,0.1391,0.1391,0.1391,0.1391,0.1391,0.1391,0.1391,0.1391,0.1391,0.1384,0.1401,0.1416,0.1377,0.1326,0.131,0.1298,0.1313,0.128,0.1296,0.1296,0.1296,0.1296,0.1296,0.1296,0.1296,0.1296,0.1296,0.1296,0.1296,0.1296,0.0,0.1214,0.1184,0.1153,0.1088,0.1093,0.1109,0.1109,0.1109,0.1109,0.1109,0.1109,0.1109,0.1109,0.1109,0.1109,0.1108,0.1054,0.1013,0.0,0.0,0.0,0.0,0.0,0.0,0.0,0.0,0.0,0.0,0.0,0.0,0.0,0.0,0.0,0.8653,0.8991,0.9286,0.9388,0.9482,0.9575,0.9575,0.9608,0.9579,0.9579,0.9579,0.948,0.9232,0.8981,0.8131,0.6578,0.5429,0.4227,0.2923,0.207,0.1617,0.1617,0.1592,0.1577,0.162,0.1515,0.0,0.148,0.1449,0.1391,0.1391,0.1391,0.1391,0.1391,0.1391,0.1391,0.1391,0.1391,0.1391,0.1391,0.1391,0.1391,0.1391,0.1391,0.1391,0.1391,0.1391,0.1391,0.1391,0.1391,0.1391,0.0,0.1391,0.1391,0.1391,0.1391,0.1391,0.1389,0.1383,0.1386,0.1387,0.1377,0.1338,0.1304,0.1298,0.1295,0.1296,0.1296,0.1296,0.1296,0.1296,0.1296,0.1296,0.1296,0.1296,0.1296,0.1296,0.1296,0.1284,0.1214,0.1184,0.1153,0.1088,0.1093,0.1109,0.1109,0.1109,0.1109,0.1109,0.1109,0.1109,0.1109,0.1109,0.1109,0.1109,0.1097,0.1095,0.0,0.0,0.0,0.0,0.0,0.0,0.0,0.0,0.0,0.0,0.0,0.8295,0.8717,0.0,0.8892,0.9259,0.938,0.9404,0.9404,0.951,0.9579,0.9579,0.9579,0.9579,0.9579,0.9579,0.9529,0.943,0.9282,0.863,0.7273,0.6074,0.4774,0.3422,0.2371,0.176,0.1594,0.1579,0.1605,0.1573,0.1495,0.1472,0.1457,0.1397,0.1391,0.1391,0.1391,0.1391,0.1391,0.1391,0.1391,0.1391,0.1391,0.1391,0.1391,0.1391,0.1391,0.1391,0.1391,0.1391,0.1391,0.1391,0.1391,0.1391,0.1391,0.1391,0.1391,0.1391,0.1391,0.1391,0.1391,0.1391,0.1391,0.1391,0.1391,0.1386,0.1416,0.1336,0.1302,0.1286,0.1288,0.1296,0.1296,0.1296,0.1296,0.1296,0.1296,0.1296,0.1296,0.1296,0.1296,0.1296,0.1296,0.129,0.1236,0.123,0.1182,0.1101,0.1084,0.1109,0.1109,0.1109,0.1109,0.1109,0.1109,0.1109,0.1109,0.1109,0.1276,0.1612,0.1612,0.1612,0.0,0.0,0.0,0.0,0.0,0.0,0.0,0.8429,0.8609,0.8965,0.8994,0.915,0.9606,0.9511,0.9503,0.9931,0.9719,0.9518,0.9546,0.9604,0.9579,0.9579,0.9579,0.9579,0.9579,0.9579,0.9579,0.9579,0.9381,0.8878,0.7968,0.667,0.5363,0.4,0.2908,0.209,0.1661,0.1605,0.1529,0.148,0.1475,0.1459,0.1391,0.1391,0.1391,0.1391,0.1391,0.1391,0.1391,0.1391,0.1391,0.1391,0.1391,0.1391,0.1391,0.1391,0.1391,0.1391,0.1391,0.1391,0.1391,0.1391,0.1391,0.1391,0.1391,0.1391,0.1391,0.1391,0.1391,0.1391,0.1391,0.1391,0.1389,0.1383,0.1382,0.1418,0.1388,0.1359,0.129,0.1307,0.1318,0.1296,0.1296,0.1296,0.1296,0.1296,0.1296,0.1296,0.1296,0.1296,0.1296,0.1296,0.1296,0.1294,0.1288,0.1235,0.1179,0.1088,0.1113,0.1109,0.1109,0.1109,0.1109,0.1109,0.1109,0.1109,0.1109,0.1244,0.1577,0.2114,0.2248,0.2313,0.8595,0.8576,0.8637,0.8702,0.8941,0.9275,0.0,0.9686,0.9718,0.9757,0.9756,0.9822,1.0004,1.0001,1.0132,1.053,1.0198,0.9995,1.0155,0.9859,0.9579,0.9579,0.9579,0.9579,0.9579,0.9579,0.9579,0.9579,0.9579,0.9381,0.9034,0.7971,0.6717,0.5347,0.407,0.292,0.1866,0.1645,0.1487,0.148,0.1453,0.1393,0.1391,0.1391,0.1391,0.1391,0.1391,0.1391,0.1391,0.1391,0.1391,0.1391,0.1391,0.1391,0.1391,0.1391,0.1391,0.1391,0.1391,0.1391,0.1391,0.1391,0.1391,0.1391,0.1391,0.1391,0.1391,0.1391,0.1391,0.1391,0.1391,0.1391,0.1383,0.1401,0.1395,0.1387,0.1316,0.1288,0.1307,0.1303,0.1318,0.1296,0.1296,0.1296,0.1296,0.1296,0.1296,0.1296,0.1296,0.1296,0.1296,0.1296,0.1296,0.1285,0.1219,0.1186,0.1188,0.1118,0.1091,0.1109,0.1109,0.1109,0.1109,0.1109,0.1109,0.1109,0.1109,0.1712,0.2013,0.2114,0.2781,0.3082,0.9145,0.9117,0.9103,0.9437,0.9677,0.9946,1.0077,1.0226,1.0324,1.0439,1.0481,1.0577,1.0846,1.0807,1.0803,1.1086,1.0804,1.0496,1.0204,1.0058,0.9896,0.9543,0.9563,0.9579,0.9579,0.9579,0.9579,0.9579,0.9579,0.9529,0.943,0.8421,0.7493,0.6744,0.5014,0.3697,0.2902,0.2164,0.1705,0.148,0.1468,0.1453,0.1391,0.1391,0.1391,0.1391,0.1391,0.1391,0.1391,0.1391,0.1391,0.1391,0.1391,0.1391,0.1391,0.1391,0.1391,0.1391,0.1391,0.1391,0.1391,0.1391,0.1391,0.1391,0.1391,0.1391,0.1391,0.1391,0.1391,0.1386,0.1414,0.1409,0.1401,0.1372,0.1323,0.1315,0.1286,0.1311,0.1297,0.1319,0.1305,0.1296,0.1296,0.1296,0.1296,0.1296,0.1296,0.1296,0.1296,0.1296,0.1296,0.1296,0.1296,0.1284,0.1214,0.1184,0.1153,0.1088,0.1093,0.1109,0.1109,0.1109,0.1109,0.1109,0.1478,0.1678,0.1678,0.238,0.2948,0.3382,0.3685,0.4084,0.9834,0.9692,0.9568,0.9919,1.0198,1.0417,1.0433,1.0598,1.0806,1.1023,1.1066,1.1175,1.1534,1.1397,1.136,1.1562,1.134,1.0965,1.0589,1.0424,1.0121,0.966,0.9551,0.9551,0.9551,0.96,0.9579,0.9579,0.9579,0.9579,0.9579,0.8874,0.8202,0.7707,0.583,0.45,0.3783,0.2578,0.1873,0.1587,0.1531,0.1469,0.1447,0.1394,0.1391,0.1391,0.1391,0.1391,0.1391,0.1391,0.1391,0.1391,0.1391,0.1391,0.1391,0.1391,0.1391,0.1391,0.1391,0.1391,0.1391,0.1391,0.1391,0.1391,0.1391,0.1391,0.1391,0.1391,0.1385,0.1418,0.1395,0.1384,0.1371,0.13,0.1294,0.1286,0.1296,0.129,0.1284,0.1301,0.1296,0.1296,0.1296,0.1296,0.1296,0.1296,0.1296,0.1296,0.1296,0.1296,0.1296,0.1296,0.1296,0.1287,0.1226,0.1196,0.1166,0.1136,0.1311,0.1388,0.1378,0.1577,0.1678,0.1678,0.2147,0.2414,0.2414,0.3184,0.3818,0.432,0.4586,0.4987,1.0792,1.0334,0.998,0.9994,1.0303,1.0617,1.083,1.1033,1.1236,1.1453,1.1496,1.1562,1.177,1.1756,1.1827,1.2043,1.1693,1.1472,1.161,1.088,1.0217,1.0085,0.9664,0.9412,0.9412,0.9522,0.9579,0.9579,0.9579,0.9579,0.9579,0.9579,0.9049,0.7904,0.6643,0.5425,0.4279,0.2717,0.1908,0.1906,0.1635,0.148,0.1478,0.1449,0.1391,0.1391,0.1391,0.1391,0.1391,0.1391,0.1391,0.1391,0.1391,0.1391,0.1391,0.1391,0.1391,0.1391,0.1391,0.1391,0.1391,0.1391,0.1391,0.1391,0.1391,0.1391,0.1391,0.1391,0.1414,0.1391,0.1391,0.1369,0.13,0.1311,0.1304,0.1296,0.1305,0.1298,0.1298,0.1297,0.1296,0.1296,0.1296,0.1296,0.1296,0.1296,0.1296,0.1296,0.1296,0.1296,0.1296,0.1296,0.1296,0.1296,0.1295,0.1228,0.1198,0.1203,0.1809,0.214,0.2082,0.2748,0.3149,0.3149,0.3149,0.3182,0.3182,0.409,0.4456,0.432,0.5355,0.5752,1.121,1.0418,0.9814,1.0137,1.0417,1.0631,1.0844,1.1052,1.1217,1.1288,1.1302,1.1368,1.1581,1.1728,1.1888,1.2053,1.2084,1.1996,1.1722,1.1437,1.0966,1.0289,1.0205,0.9996,0.9559,0.9482,0.9498,0.9571,0.9579,0.9579,0.9579,0.9579,0.9402,0.9041,0.7897,0.6692,0.5424,0.4199,0.3095,0.2234,0.1927,0.1666,0.148,0.1449,0.1391,0.1391,0.1391,0.1391,0.1391,0.1391,0.1391,0.1391,0.1391,0.1391,0.1391,0.1391,0.1391,0.1391,0.1391,0.1391,0.1387,0.1412,0.1418,0.1387,0.1411,0.1419,0.1391,0.1391,0.1413,0.1386,0.1324,0.1298,0.131,0.1319,0.1312,0.131,0.1298,0.1296,0.1296,0.1296,0.1296,0.1296,0.1296,0.1296,0.1296,0.1296,0.1296,0.1296,0.1296,0.1296,0.1296,0.1296,0.1296,0.1296,0.1296,0.1765,0.202,0.1859,0.259,0.2933,0.2818,0.3184,0.3384,0.3384,0.3982,0.4248,0.4248,0.5054,0.5425,0.5355,0.5723,0.5855,1.2384,1.1507,1.0744,1.085,1.0974,1.1064,1.1029,1.1104,1.1217,1.1293,1.1312,1.1473,1.2087,1.1984,1.1992,1.2572,1.2461,1.2206,1.1988,1.1812,1.1432,1.0634,1.054,1.0276,0.9742,0.9555,0.9502,0.9571,0.9579,0.9579,0.9579,0.9579,0.9579,0.9579,0.8574,0.7574,0.6728,0.5579,0.4287,0.2987,0.2248,0.1831,0.1618,0.1506,0.1445,0.1391,0.1391,0.1391,0.1391,0.1391,0.1391,0.1391,0.1391,0.1391,0.1391,0.1391,0.1391,0.1391,0.1391,0.1391,0.1387,0.1412,0.1412,0.1417,0.1409,0.1412,0.1421,0.1387,0.1362,0.1371,0.131,0.1317,0.1281,0.1301,0.1296,0.1296,0.1296,0.1296,0.1296,0.1296,0.1296,0.1296,0.1296,0.1296,0.1296,0.1296,0.1375,0.1375,0.1296,0.1296,0.1414,0.1689,0.1727,0.1845,0.2156,0.2666,0.2915,0.2841,0.352,0.3881,0.3878,0.4175,0.4353,0.4353,0.4918,0.5183,0.5183,0.5752,0.5954,0.5892,0.6024,0.6053,1.4097,1.3408,1.2586,1.2073,1.1976,1.1878,1.1424,1.1331,1.1349,1.1609,1.1601,1.1957,1.3199,1.2556,1.2289,1.3483,1.2813,1.217,1.2358,1.2007,1.1548,1.108,1.0643,1.0217,0.9939,0.9746,0.9599,0.9579,0.9579,0.9579,0.9579,0.9579,0.9579,0.9579,0.8623,0.8071,0.8021,0.6678,0.5379,0.4063,0.2747,0.2071,0.1996,0.1668,0.1465,0.1438,0.1391,0.1391,0.1391,0.1391,0.1391,0.1391,0.1391,0.1391,0.1391,0.1391,0.1391,0.1391,0.1391,0.1391,0.139,0.1389,0.1413,0.1395,0.1378,0.1412,0.1396,0.138,0.1348,0.1305,0.1305,0.1303,0.1296,0.1296,0.1296,0.1296,0.1296,0.1296,0.1296,0.1296,0.1296,0.1335,0.1335,0.1375,0.1375,0.1375,0.161,0.1649,0.1335,0.1375,0.1689,0.2431,0.2588,0.2938,0.3752,0.3869,0.3947,0.4077,0.4598,0.498,0.5133,0.5638,0.5921,0.5921,0.5921,0.5921,0.5921,0.6115,0.6115,0.5921,0.6255,0.6317,1.4037,1.3408,1.2716,1.2827,1.2974,1.3117,1.3251,1.28,1.2554,1.3391,1.297,1.2645,1.3532,1.3331,1.3002,1.309,1.268,1.2325,1.2377,1.2285,1.1962,1.1287,1.1238,1.0909,0.9975,0.9969,0.9912,0.9648,0.9579,0.9579,0.9579,0.9579,0.9579,0.9579,0.9327,0.8825,0.8021,0.6874,0.6011,0.5487,0.4334,0.3652,0.342,0.2297,0.18,0.1743,0.149,0.1391,0.1391,0.1391,0.1391,0.1391,0.1391,0.1391,0.1391,0.1391,0.1391,0.1391,0.1391,0.1391,0.1387,0.1409,0.1396,0.1387,0.1331,0.138,0.1392,0.1399,0.1333,0.1305,0.1305,0.1303,0.1296,0.1296,0.1296,0.1296,0.1296,0.1296,0.1296,0.1296,0.1415,0.1572,0.1729,0.2237,0.2624,0.2624,0.3248,0.3169,0.1728,0.2196,0.2702,0.2938,0.3521,0.4023,0.4217,0.4802,0.5101,0.5052,0.5623,0.5983,0.5938,0.6041,0.6115,0.6115,0.6218,0.6288,0.6288,0.6317,0.6317,0.6288,0.6354,0.6383,1.4852,1.46,1.4272,1.4161,1.4217,1.4239,1.3979,1.3514,1.3299,1.3755,1.3403,1.3216,1.4087,1.3486,1.3051,1.3469,1.2745,1.2175,1.2358,1.2387,1.2181,1.1693,1.154,1.1157,1.0416,1.0178,0.9957,0.9758,0.9669,0.9579,0.9579,0.9579,0.9579,0.9579,0.9579,0.9327,0.8722,0.7624,0.7024,0.6874,0.5666,0.5025,0.4831,0.3414,0.2748,0.2678,0.2036,0.1705,0.157,0.157,0.1525,0.1391,0.1391,0.1391,0.1391,0.1391,0.1391,0.1391,0.1391,0.148,0.1567,0.1459,0.1401,0.1387,0.1371,0.1369,0.1374,0.1386,0.1403,0.1456,0.1469,0.1505,0.1572,0.1572,0.1572,0.1572,0.1572,0.1572,0.1649,0.204,0.2507,0.2859,0.2976,0.3365,0.3675,0.3675,0.4181,0.4142,0.3093,0.3365,0.3791,0.4144,0.4647,0.5074,0.5458,0.5928,0.6168,0.6197,0.6361,0.6517,0.653,0.6386,0.628,0.628,0.635,0.6387,0.6387,0.6387,0.6387,0.6387,0.6387,0.6387,1.5965,1.617,1.6263,1.565,1.5462,1.5212,1.4421,1.4071,1.3887,1.374,1.3601,1.3814,1.4774,1.3649,1.2942,1.4143,1.2943,1.1997,1.233,1.2387,1.2273,1.2005,1.1644,1.1256,1.0884,1.0315,0.9951,0.9855,0.9709,0.9579,0.9579,0.9579,0.9579,0.9579,0.9579,0.9579,0.9579,0.8676,0.8223,0.8173,0.6877,0.6273,0.622,0.4805,0.415,0.3979,0.3042,0.2382,0.2017,0.2017,0.1793,0.1436,0.1436,0.1436,0.1391,0.1391,0.1391,0.1391,0.1391,0.157,0.1749,0.148,0.15,0.1643,0.16,0.1661,0.1725,0.1804,0.1889,0.2004,0.2095,0.22,0.224,0.2246,0.2243,0.2238,0.2238,0.2238,0.2433,0.3171,0.3908,0.445,0.4489,0.4567,0.4644,0.4644,0.488,0.5076,0.5076,0.48,0.4916,0.5622,0.5777,0.6163,0.6903,0.698,0.7061,0.7219,0.6857,0.6742,0.6988,0.6607,0.6387,0.6387,0.6387,0.6387,0.6387,0.6387,0.6387,0.6387,0.6387,0.6387,1.6221,1.6375,1.6448,1.6588,1.642,1.6246,1.633,1.5443,1.4835,1.5695,1.514,1.4799,1.5546,1.4656,1.3855,1.3979,1.2923,1.2114,1.2354,1.2387,1.2273,1.2005,1.1919,1.1554,1.071,1.0564,1.0246,0.9693,0.9644,0.9579,0.9579,0.9579,0.9579,0.9579,0.9579,0.9579,0.9579,0.9426,0.9324,0.9327,0.8173,0.766,0.7631,0.6271,0.5528,0.5326,0.4947,0.418,0.3266,0.3266,0.2688,0.1749,0.1749,0.1615,0.1391,0.1391,0.1391,0.1391,0.1391,0.157,0.1749,0.148,0.2095,0.2914,0.2702,0.3195,0.3885,0.4095,0.4006,0.4005,0.4339,0.4186,0.4006,0.4086,0.4042,0.3986,0.3986,0.3986,0.4064,0.4375,0.4533,0.4688,0.4885,0.5464,0.589,0.589,0.6549,0.7015,0.7015,0.6356,0.5928,0.6086,0.6745,0.7249,0.7365,0.7407,0.7407,0.7446,0.7114,0.6952,0.6988,0.6607,0.6387,0.6387,0.6387,0.6387,0.6387,0.6387,0.6387,0.6387,0.6387,0.6387,1.658,1.674,1.6908,1.7062,1.6538,1.6069,1.6511,1.5578,1.4869,1.5691,1.5483,1.5083,1.4986,1.4161,1.3425,1.3117,1.2256,1.1747,1.217,1.2231,1.2215,1.2209,1.1968,1.1629,1.1071,1.069,1.0264,0.9842,0.9677,0.9579,0.9579,0.9579,0.9579,0.9579,0.9579,0.9579,0.9579,0.9579,0.9579,0.9579,0.9076,0.8825,0.8768,0.7501,0.6839,0.6673,0.588,0.5141,0.4559,0.4559,0.4111,0.3443,0.3443,0.3398,0.3264,0.3132,0.3087,0.2998,0.2509,0.251,0.2638,0.1992,0.254,0.3414,0.3167,0.378,0.4574,0.4665,0.4688,0.4778,0.5087,0.502,0.492,0.5037,0.4975,0.4833,0.4737,0.5035,0.5363,0.5372,0.58,0.614,0.6142,0.6537,0.6861,0.6861,0.7249,0.7484,0.7484,0.7134,0.6861,0.6861,0.7249,0.7484,0.7484,0.7484,0.7484,0.7484,0.7236,0.7094,0.7094,0.6838,0.6696,0.6696,0.6607,0.6562,0.6562,0.6465,0.6387,0.6387,0.6387,0.6387,1.65,1.6765,1.6943,1.6709,1.6003,1.549,1.5974,1.5226,1.4593,1.5265,1.5257,1.4957,1.4482,1.3472,1.2674,1.2582,1.1819,1.1416,1.1996,1.2085,1.2161,1.2358,1.2084,1.173,1.1426,1.0796,1.0306,1.0036,0.9772,0.9579,0.9579,0.9579,0.9579,0.9579,0.9579,0.9579,0.9579,0.9579,0.9579,0.9579,0.9579,0.9608,0.951,0.8508,0.8023,0.7898,0.6834,0.6142,0.5761,0.5761,0.5489,0.5087,0.5087,0.5043,0.4954,0.4779,0.4692,0.4603,0.3848,0.3758,0.3833,0.3014,0.3148,0.3636,0.3621,0.4264,0.5069,0.5301,0.5485,0.5673,0.5896,0.5895,0.5839,0.5918,0.5854,0.5747,0.5565,0.6047,0.6426,0.6268,0.6938,0.7427,0.7219,0.737,0.7484,0.7484,0.7484,0.7484,0.7484,0.7484,0.7484,0.7484,0.7484,0.7484,0.7484,0.7484,0.7484,0.7484,0.7322,0.7187,0.7187,0.7086,0.6988,0.6988,0.6816,0.6696,0.6696,0.6509,0.6387,0.6387,0.6387,0.6387,1.5503,1.5738,1.5704,1.4794,1.4823,1.5053,1.4968,1.4532,1.4383,1.5222,1.4783,1.444,1.5131,1.3336,1.2092,1.3281,1.2203,1.1416,1.1996,1.2085,1.2161,1.2358,1.2368,1.2091,1.144,1.1126,1.0655,1.0048,0.9772,0.9579,0.9579,0.9579,0.9579,0.9579,0.9579,0.9579,0.9579,0.9579,0.9579,0.9579,0.9579,0.9543,0.9424,0.9296,0.9059,0.8704,0.8582,0.7938,0.6962,0.6962,0.6337,0.5359,0.5359,0.5223,0.4996,0.4954,0.4954,0.4954,0.4865,0.5001,0.5208,0.492,0.4404,0.3946,0.4419,0.5274,0.6269,0.7251,0.7529,0.7636,0.7942,0.7818,0.7521,0.7371,0.7323,0.7308,0.7292,0.7326,0.7317,0.7145,0.7324,0.7427,0.7219,0.737,0.7484,0.7484,0.7484,0.7484,0.7484,0.7484,0.7484,0.7484,0.7484,0.7484,0.7484,0.7484,0.7484,0.7484,0.7322,0.7187,0.7187,0.7086,0.6988,0.6988,0.6816,0.6696,0.6696,0.6509,0.6387,0.6387,0.6387,0.6387,1.458,1.4698,1.4794,1.4411,1.4372,1.4461,1.4726,1.4559,1.4525,1.5258,1.5124,1.4657,1.3922,1.3412,1.2838,0.0,0.0,1.1659,1.1727,1.1817,1.1973,1.218,1.2311,1.2222,1.1704,1.1403,1.0881,1.0048,0.9772,0.9579,0.9579,0.9579,0.9579,0.9579,0.9579,0.9579,0.9579,0.9579,0.9579,0.9575,0.9514,0.9473,0.9396,0.9133,0.8954,0.8812,0.8714,0.8404,0.7988,0.7988,0.772,0.7316,0.7316,0.7272,0.7136,0.6997,0.6908,0.6861,0.6287,0.6154,0.6122,0.5488,0.5058,0.4919,0.5497,0.6384,0.7265,0.77,0.7873,0.7947,0.8085,0.8016,0.7841,0.7549,0.7608,0.7657,0.7543,0.7484,0.7399,0.7119,0.7289,0.7395,0.711,0.7297,0.7484,0.7484,0.7484,0.7484,0.7484,0.7484,0.7484,0.7484,0.7484,0.7484,0.7484,0.7484,0.7484,0.7484,0.7419,0.7378,0.7378,0.7309,0.7306,0.7306,0.7102,0.696,0.6886,0.6664,0.6578,0.6587,0.6587,0.6912,1.4192,1.416,1.4178,1.4268,1.4169,1.4133,1.4662,1.4645,1.4668,1.528,1.5173,1.4699,1.3704,1.362,1.3268,0.0,0.0,1.2373,1.2412,1.2343,1.238,1.2675,1.2513,1.2222,1.1855,1.1448,1.0859,1.004,0.9821,0.9677,0.9628,0.9579,0.9579,0.9579,0.9579,0.9579,0.9579,0.9579,0.96,0.9547,0.9465,0.9347,0.9237,0.8934,0.8792,0.8739,0.8621,0.8612,0.8612,0.8612,0.8612,0.8612,0.8612,0.8612,0.8568,0.8384,0.8336,0.8201,0.758,0.7312,0.722,0.6402,0.6185,0.6236,0.6537,0.6957,0.7399,0.7639,0.7841,0.8004,0.7951,0.7975,0.7923,0.7569,0.762,0.7682,0.7551,0.7484,0.7416,0.7057,0.7277,0.7408,0.7049,0.7286,0.7484,0.7484,0.7484,0.7484,0.7484,0.7484,0.7484,0.7484,0.7484,0.7484,0.7484,0.7484,0.7484,0.7484,0.7484,0.7484,0.7484,0.7484,0.7484,0.7484,0.7313,0.7163,0.7069,0.6833,0.685,0.7151,0.7091,0.761,1.4585,1.4276,1.395,1.422,1.4169,1.4133,1.4662,1.4645,1.4668,1.528,1.4699,1.4356,1.5215,1.3922,1.3071,1.4195,0.0,0.0,1.4466,1.3898,1.3569,1.4105,1.3137,1.2222,1.1855,1.1194,1.056,1.0019,1.0019,0.9871,0.9628,0.9579,0.9579,0.9579,0.9579,0.9579,0.9579,0.9579,0.9539,0.9404,0.9404,0.9169,0.8828,0.8824,0.8731,0.8612,0.8612,0.8612,0.8612,0.8612,0.8612,0.8612,0.8612,0.8612,0.8612,0.8612,0.8612,0.8612,0.8568,0.8568,0.8507,0.8092,0.7971,0.7906,0.7594,0.6903,0.6398,0.7253,0.774,0.7975,0.7845,0.7886,0.7923,0.7569,0.7484,0.7484,0.7484,0.7484,0.7416,0.7057,0.7277,0.7408,0.7049,0.7286,0.7484,0.7484,0.7484,0.7484,0.7484,0.7484,0.7484,0.7484,0.7484,0.7484,0.7484,0.7484,0.7484,0.7484,0.7484,0.7484,0.7484,0.7484,0.7484,0.7484,0.7313,0.7187,0.7183,0.6867,0.7199,0.8181,0.7966,0.8422,1.3152,1.3159,1.3361,1.342,1.4047,1.4648,1.4573,1.52,1.5712,1.5456,1.5173,1.4873,1.4573,1.4524,1.446,1.4172,1.448,1.4778,1.4972,1.4248,1.3739,1.3895,1.2778,1.1959,1.1831,1.1189,1.0708,1.056,1.0364,1.0167,0.9871,0.9871,0.9772,0.9628,0.9579,0.9579,0.9579,0.9502,0.9461,0.94,0.9108,0.893,0.8816,0.8698,0.8617,0.8612,0.8612,0.8612,0.8612,0.8612,0.8612,0.8612,0.8612,0.8612,0.8612,0.8612,0.8612,0.8612,0.8612,0.8526,0.8337,0.8093,0.7935,0.7837,0.7557,0.7288,0.7157,0.7595,0.7792,0.7869,0.7816,0.7841,0.782,0.7541,0.7484,0.7484,0.7484,0.7484,0.7415,0.7183,0.7326,0.7411,0.7179,0.733,0.7484,0.7484,0.7484,0.7484,0.7484,0.7484,0.7484,0.7484,0.7484,0.7484,0.7484,0.7484,0.7484,0.7484,0.7484,0.7484,0.7484,0.7484,0.7484,0.7484,0.7431,0.7342,0.7187,0.7078,0.7477,0.836,0.8979,0.9627,1.3288,1.3304,1.347,1.3894,1.4397,1.4819,1.4842,1.5575,1.6052,1.5491,1.5389,1.5215,1.4699,1.5041,1.5234,1.4802,1.5266,1.5822,1.614,1.5035,1.3951,1.3214,1.2358,1.1789,1.1713,1.1247,1.09,1.0806,1.0659,1.0413,1.0167,1.0068,0.992,0.9776,0.9677,0.9579,0.9579,0.9445,0.9371,0.9302,0.8962,0.8787,0.8723,0.8617,0.8612,0.8612,0.8612,0.8612,0.0,0.8612,0.8612,0.8612,0.8612,0.8612,0.8612,0.8612,0.8612,0.8612,0.8612,0.849,0.826,0.8073,0.7849,0.7673,0.7555,0.7484,0.7559,0.7747,0.78,0.78,0.78,0.78,0.7751,0.7567,0.7484,0.7484,0.7484,0.7484,0.7431,0.7223,0.7366,0.7427,0.7219,0.737,0.7484,0.7484,0.7484,0.7484,0.7484,0.7484,0.7484,0.7484,0.7484,0.7484,0.7484,0.7484,0.7484,0.7484,0.7484,0.7484,0.7484,0.7484,0.7484,0.7484,0.7484,0.7431,0.7322,0.7622,0.8171,0.9004,0.988,1.0735,0.0,1.4368,1.4135,1.5291,1.5075,1.4703,1.5425,1.5727,0.0,1.5455,1.5389,1.5396,1.5418,1.5425,1.5542,1.5957,1.625,1.6815,1.7713,1.6173,1.4265,1.2529,1.2002,1.1737,1.1635,1.1371,1.11,1.0855,1.085,1.0703,1.0462,1.0167,1.0019,1.0019,0.9776,0.9628,0.9579,0.9433,0.9302,0.9096,0.8897,0.8718,0.8612,0.8612,0.8612,0.8612,0.8612,0.8612,0.8612,0.8612,0.8612,0.8612,0.8612,0.8612,0.8612,0.8612,0.8612,0.8612,0.8612,0.8438,0.8235,0.804,0.7752,0.7484,0.7484,0.7484,0.7559,0.7747,0.7808,0.7816,0.7804,0.7808,0.7767,0.7567,0.7484,0.7484,0.7484,0.7484,0.7431,0.7223,0.7354,0.7415,0.7215,0.7358,0.7468,0.748,0.7484,0.7484,0.7484,0.7484,0.7484,0.7484,0.7484,0.7484,0.7484,0.7484,0.7484,0.7484,0.7484,0.7484,0.7484,0.7484,0.7484,0.7484,0.7484,0.7522,0.7595,0.8356,0.9158,1.0044,1.0743,1.1706,1.4012,0.0,1.4388,1.4622,1.4738,1.4877,0.0,1.5433,1.5605,1.5455,1.5389,1.5462,1.5752,1.5761,1.6024,1.6819,1.7055,1.7355,1.8086,1.6524,1.5132,1.4676,1.2972,1.204,1.2575,1.1757,1.1145,1.1096,1.1096,1.0998,1.0703,1.0659,1.0408,1.0019,0.9924,0.9826,0.9579,0.9315,0.9137,0.9092,0.8775,0.8649,0.8612,0.8612,0.8612,0.8612,0.8612,0.8612,0.8612,0.8612,0.8612,0.8612,0.8612,0.8612,0.8612,0.8612,0.8612,0.8612,0.8612,0.8353,0.8024,0.7711,0.7549,0.7484,0.7484,0.7484,0.7559,0.7747,0.7894,0.7923,0.7833,0.7858,0.7874,0.7557,0.7484,0.7484,0.7484,0.7484,0.7431,0.7223,0.7219,0.7273,0.7195,0.7223,0.733,0.7464,0.7484,0.7484,0.7484,0.7484,0.7484,0.7484,0.7484,0.7484,0.7484,0.7484,0.7484,0.7484,0.7484,0.7484,0.7484,0.7484,0.7484,0.7484,0.7484,0.7863,0.8656,0.8851,0.9723,1.1273,1.1458,1.1893,1.387,1.4302,1.4482,1.4437,1.4654,1.4909,1.5007,1.5205,1.5339,1.5293,1.5347,1.5491,1.5855,1.5913,1.6177,1.6982,1.7113,1.7196,1.7492,1.6907,1.6133,1.5363,1.3678,1.2659,1.2865,1.1845,1.1194,1.1194,1.1194,1.1149,1.0998,1.085,1.0654,1.0364,1.0081,0.9795,0.9502,0.9234,0.9056,0.8966,0.8698,0.8612,0.8612,0.8612,0.8612,0.8612,0.8612,0.8612,0.8612,0.8612,0.8612,0.8612,0.8612,0.8612,0.8612,0.8612,0.8559,0.8482,0.8482,0.8203,0.7866,0.771,0.7592,0.7484,0.7484,0.7484,0.7537,0.7801,0.7825,0.7784,0.7858,0.7821,0.772,0.7529,0.7484,0.7484,0.7484,0.7419,0.7338,0.7207,0.7159,0.7127,0.7175,0.7187,0.7285,0.7456,0.7484,0.7484,0.7484,0.7484,0.7484,0.7484,0.7484,0.7484,0.7484,0.7484,0.7484,0.7484,0.7484,0.7484,0.7484,0.7863,0.8241,0.8575,0.8689,0.8988,0.9561,0.9636,1.0421,1.1842,1.1842,1.2204,1.3881,1.4362,1.4563,1.4476,1.4626,1.4827,1.4865,1.4944,1.5048,1.5131,1.53,1.5564,1.5921,1.6023,1.6265,1.6947,1.7086,1.7048,1.6953,1.7206,1.6996,1.5739,1.4433,1.3473,1.3012,1.2014,1.1385,1.1194,1.1194,1.1194,1.1194,1.0998,1.085,1.0801,1.0219,0.9771,0.9411,0.9188,0.8974,0.882,0.8649,0.8612,0.8612,0.8612,0.8612,0.8612,0.8612,0.8612,0.8612,0.8612,0.8612,0.8612,0.8612,0.8612,0.8612,0.8612,0.8494,0.828,0.8227,0.8053,0.7796,0.7767,0.7649,0.7484,0.7484,0.75,0.7586,0.789,0.7756,0.7598,0.7927,0.7772,0.7555,0.7488,0.7484,0.7484,0.7484,0.7346,0.7179,0.7192,0.7037,0.7,0.7114,0.7163,0.7244,0.7415,0.7464,0.7484,0.7484,0.7484,0.7484,0.7484,0.7484,0.7484,0.7484,0.7595,0.7672,0.7672,0.7672,0.7748,0.7859,0.8546,0.9263,0.9933,1.0153,1.0303,1.049,1.0634,1.1236,1.2234,1.2234,1.2668,1.4123,1.4669,1.4821,1.4275,1.4342,1.4586,1.4704,1.4734,1.4866,1.5257,1.5608,1.5935,1.6243,1.6573,1.6969,1.756,1.7896,1.8176,1.8448,1.7491,1.7002,1.7704,1.5817,1.4317,1.4058,1.3065,1.2106,1.1243,1.1194,1.1194,1.1194,1.1145,1.1047,1.0806,1.0518,1.0096,0.9511,0.9046,0.8848,0.882,0.8649,0.8612,0.8612,0.8612,0.8612,0.8612,0.8612,0.8612,0.8612,0.8612,0.8612,0.8612,0.8612,0.8612,0.8612,0.8612,0.8494,0.8247,0.7988,0.7845,0.7775,0.7616,0.7504,0.7484,0.7484,0.7633,0.7767,0.7824,0.78,0.7804,0.7963,0.7866,0.7718,0.7521,0.7484,0.7484,0.7484,0.7346,0.7179,0.7061,0.689,0.6741,0.6757,0.6926,0.7094,0.7236,0.7387,0.7484,0.7484,0.7484,0.7484,0.7484,0.7484,0.7484,0.7484,0.8131,0.8513,0.8513,0.8513,0.8808,0.9518,0.9814,1.0045,1.0153,1.034,1.0858,1.1712,1.1749,1.2278,1.3266,1.3266,1.3194,1.4114,1.4502,1.47,1.4554,1.4882,1.5232,1.5429,1.5444,1.5461,1.5684,1.5973,1.6257,1.6617,1.68,1.7049,1.7479,1.7969,1.8291,1.8262,1.7832,1.764,1.8008,1.6522,1.5399,1.5153,1.3644,1.249,1.2058,1.1531,1.1194,1.1194,1.1194,1.1145,1.0998,1.06,1.0206,0.9884,0.9358,0.8949,0.8682,0.8649,0.8612,0.8612,0.8612,0.8612,0.8612,0.8612,0.8612,0.8612,0.8612,0.8612,0.8612,0.8612,0.8612,0.86,0.8498,0.8361,0.8251,0.7988,0.7877,0.7784,0.7698,0.7604,0.75,0.7641,0.7731,0.782,0.787,0.7898,0.7894,0.7882,0.7861,0.7751,0.7567,0.7484,0.7456,0.7366,0.7204,0.7025,0.6882,0.6668,0.6574,0.6694,0.678,0.6935,0.7147,0.7293,0.7378,0.7472,0.7484,0.7484,0.7484,0.7902,0.8131,0.8131,0.8884,0.9334,0.9334,0.9334,0.975,1.0689,1.0801,1.1099,1.1657,1.1879,1.2174,1.2659,1.2769,1.3039,1.3492,1.3492,1.3411,1.4168,1.4349,1.4579,1.4989,1.5356,1.5672,1.6001,1.6008,1.5941,1.6057,1.63,1.6602,1.6859,1.7027,1.7157,1.7399,1.7925,1.8211,1.7962,1.8079,1.8094,1.7845,1.7063,1.6341,1.5866,1.4358,1.321,1.2732,1.2014,1.1433,1.1194,1.1194,1.1175,1.1127,1.058,1.0228,1.0136,0.9607,0.913,0.8656,0.8656,0.8652,0.8612,0.8612,0.8612,0.8612,0.8612,0.8612,0.8612,0.8612,0.8612,0.8612,0.8612,0.8612,0.8588,0.8357,0.8292,0.826,0.8032,0.787,0.7792,0.7747,0.7637,0.7555,0.7743,0.7829,0.7886,0.7975,0.8044,0.8028,0.7857,0.7767,0.7698,0.7555,0.7484,0.7435,0.7223,0.7082,0.6939,0.6729,0.6546,0.6461,0.6591,0.6686,0.6773,0.7054,0.7135,0.7273,0.7407,0.7456,0.7484,0.7484,0.8208,0.8851,0.9231,0.9863,1.0346,1.0533,1.0346,1.0689,1.1706,1.1781,1.2187,1.2973,1.3156,1.3273,1.3273,1.3419,1.3492,1.3492,1.3492,1.3492,1.4416,1.4502,1.467,1.5427,1.5286,1.5152,1.5866,1.582,1.5763,1.6264,1.6608,1.6873,1.6895,1.734,1.7757,1.7772,1.8072,1.8291,1.8269,1.8028,1.7838,1.7816,1.745,1.6871,1.5893,1.565,1.4787,1.2872,1.263,1.2204,1.1243,1.1194,1.1109,1.0924,1.0693,1.0347,0.9935,0.9716,0.9345,0.8867,0.8867,0.8784,0.8612,0.8612,0.8612,0.8612,0.8612,0.8612,0.8612,0.8612,0.8612,0.8612,0.8612,0.8612,0.8588,0.8357,0.8292,0.8243,0.7939,0.7812,0.7771,0.76,0.7492,0.7555,0.7743,0.787,0.8,0.8008,0.8138,0.8191,0.789,0.7669,0.75,0.7484,0.7484,0.7435,0.7223,0.7082,0.6939,0.6729,0.6546,0.6391,0.6436,0.6583,0.6696,0.6747,0.7005,0.7191,0.7207,0.7382,0.7484,0.7484,0.8208,0.9301,1.0812,1.1149,1.1589,1.2372,1.1706,1.1744,1.2746,1.2973,1.3083,1.32,1.3382,1.3499,1.3499,1.3492,1.3492,1.3492,1.3492,1.3492,1.4222,1.4505,1.484,1.5262,1.5344,1.5567,1.6378,1.6497,1.6497,1.6901,1.7062,1.715,1.715,1.7516,1.775,1.7498,1.7786,1.7933,1.7728,1.7589,1.7508,1.7508,1.7359,1.7138,1.6756,1.6183,1.546,1.4692,1.3445,1.2475,1.196,1.1341,1.0972,1.0896,1.0565,1.0409,1.0324,0.9988,0.9689,0.9345,0.9043,0.8867,0.8784,0.8652,0.8612,0.8612,0.8612,0.8612,0.8612,0.8612,0.8612,0.8612,0.8612,0.8612,0.8604,0.8531,0.8506,0.8453,0.8044,0.7918,0.787,0.7577,0.7484,0.7537,0.7829,0.7963,0.8012,0.8012,0.8065,0.8061,0.7861,0.7747,0.7665,0.7551,0.7484,0.7403,0.7155,0.7037,0.6902,0.6578,0.6469,0.6387,0.6387,0.6477,0.6558,0.6694,0.6926,0.7098,0.7175,0.7374,0.7748,0.8356,0.9712,1.1031,1.212,1.2298,1.2526,1.2936,1.2562,1.2562,1.3083,1.3156,1.3273,1.3382,1.3455,1.3492,1.3492,1.3492,1.3492,1.3492,1.3492,1.3492,1.3975,1.4282,1.4713,1.497,1.5262,1.5698,1.6534,1.6749,1.6866,1.7238,1.7252,1.7208,1.7264,1.7428,1.7472,1.7301,1.7468,1.7582,1.7315,1.7279,1.7279,1.7279,1.7279,1.7279,1.7279,1.6662,1.6129,1.5846,1.4374,1.3305,1.2864,1.1806,1.1182,1.1108,1.0601,1.035,1.0422,1.0137,0.9907,0.9733,0.9301,0.9043,0.8911,0.8696,0.8612,0.8612,0.8612,0.8612,0.8612,0.8612,0.8612,0.8612,0.8612,0.8612,0.8612,0.8612,0.8612,0.8559,0.8142,0.8012,0.7955,0.7598,0.7484,0.7549,0.7906,0.8012,0.8024,0.8085,0.8057,0.7971,0.7845,0.7755,0.7682,0.7551,0.7484,0.7403,0.7139,0.7029,0.6902,0.6562,0.6461,0.6387,0.6387,0.6387,0.6477,0.6656,0.6873,0.7125,0.7523,0.7748,0.8356,0.9642,1.0919,1.204,1.282,1.2973,1.3046,1.3193,1.3119,1.3163,1.3309,1.3309,1.3346,1.3492,1.3492,1.3492,1.3492,1.3492,1.3492,1.3492,1.3492,1.3492,1.3686,1.3861,1.4215,1.4615,1.4979,1.5417,1.6213,1.6419,1.6602,1.7194,1.7077,1.6998,1.7267,1.7069,1.7005,1.7274,1.7279,1.7279,1.7279,1.7279,1.7279,1.7279,1.7279,1.7279,1.7279,1.7279,1.6897,1.5893,1.5478,1.489,1.3863,1.2612,1.1828,1.1627,1.0751,1.0213,0.9999,0.9994,0.9994,0.9994,0.9733,0.9345,0.8911,0.8696,0.8612,0.8612,0.8612,0.8612,0.8612,0.8612,0.8612,0.8612,0.8612,0.8612,0.8612,0.8612,0.8612,0.8559,0.8142,0.8012,0.7955,0.7598,0.7484,0.7549,0.7906,0.8016,0.8052,0.8239,0.8158,0.7975,0.7845,0.7661,0.7484,0.7484,0.7484,0.7435,0.7223,0.7082,0.6939,0.6729,0.6546,0.6387,0.6387,0.6387,0.6481,0.6668,0.6878,0.7337,0.8285,0.8604,0.9415,1.1217,1.1595,1.204,1.2826,1.3083,1.32,1.32,1.3382,1.3492,1.3492,1.3492,1.3492,1.3492,1.3492,1.3492,1.3492,1.3492,1.3492,1.3492,1.3492,1.3492,1.374,1.4127,1.4726,1.4977,1.5431,1.5919,1.6593,1.6756,1.6873,1.7238,1.7252,1.7216,1.7311,1.7252,1.7216,1.7311,1.7279,1.7279,1.7279,1.7279,1.7279,1.7279,1.7279,1.7279,1.7279,1.7279,1.7185,1.6897,1.6094,1.5345,1.467,1.3616,1.2913,1.2607,1.1559,1.104,1.1123,1.0367,0.9994,0.9994,0.9733,0.9515,0.9388,0.8999,0.8828,0.8784,0.8652,0.8612,0.8612,0.8612,0.8612,0.8612,0.8612,0.8612,0.8612,0.8612,0.8612,0.8559,0.8142,0.8012,0.7955,0.7598,0.7608,0.7759,0.7947,0.8105,0.8219,0.8276,0.8251,0.8138,0.7877,0.7759,0.7686,0.7516,0.7484,0.7435,0.7223,0.7082,0.6935,0.6751,0.6538,0.6387,0.6387,0.6387,0.6481,0.6668,0.7364,0.8279,0.9516,1.0338,1.1062,1.1761,1.2512,1.3046,1.3309,1.3382,1.3419,1.3419,1.3455,1.3492,1.3492,1.3492,1.3492,1.3492,1.3492,1.3492,1.3492,1.3492,1.3492,1.3492,1.3492,1.3492,1.3756,1.424,1.4813,1.5116,1.5613,1.6202,1.6875,1.7047,1.7099,1.7289,1.723,1.7179,1.7257,1.7223,1.7179,1.7264,1.7279,1.7279,1.7279,1.7279,1.7279,1.7279,1.7279,1.7274,1.715,1.7135,1.7084,1.6952,1.6274,1.5687,1.5364,1.4335,1.3667,1.3454,1.2422,1.1732,1.1488,1.0832,1.0337,0.9994,0.982,0.9777,0.9733,0.9257,0.9043,0.9043,0.8911,0.8828,0.874,0.874,0.8656,0.8612,0.8612,0.8612,0.8612,0.8612,0.8563,0.8414,0.8113,0.7967,0.7866,0.7577,0.7649,0.7833,0.7963,0.8142,0.8276,0.8199,0.8178,0.8097,0.7784,0.769,0.7661,0.7547,0.7484,0.7456,0.735,0.7167,0.6955,0.6841,0.6587,0.6482,0.6773,0.6839,0.7034,0.7617,0.871,0.9801,1.0685,1.1663,1.2335,1.2469,1.3076,1.3492,1.3492,1.3492,1.3492,1.3492,1.3492,1.3492,1.3492,1.3492,1.3492,1.3492,1.3492,1.3492,1.3492,1.3492,1.3492,1.3492,1.3492,1.3492,1.3798,1.4302,1.4616,1.5142,1.5772,1.6416,1.712,1.7279,1.7279,1.7279,1.7099,1.7027,1.7274,1.7091,1.7042,1.7282,1.7279,1.7279,1.7279,1.7279,1.7279,1.7279,1.7279,1.7216,1.6969,1.6917,1.6778,1.6477,1.6126,1.5943,1.5913,1.4852,1.4257,1.423,1.3317,1.2425,1.158,1.1451,1.0982,1.0125,1.0125,1.0081,0.9994,0.9519,0.9301,0.9305,0.9305,0.913,0.8911,0.8911,0.8784,0.8612,0.8612,0.86,0.8588,0.8604,0.8438,0.8239,0.8069,0.7902,0.7771,0.7604,0.7669,0.7853,0.7988,0.8154,0.8256,0.8085,0.8024,0.7935,0.7594,0.7508,0.7504,0.7488,0.7484,0.7484,0.7484,0.7253,0.7044,0.7099,0.6779,0.6729,0.7461,0.7587,0.7996,0.9165,1.0514,1.1521,1.1781,1.2636,1.32,1.3236,1.3382,1.3492,1.3492,1.3492,1.3492,1.3492,1.3492,1.3492,1.3492,1.3492,1.3492,1.3492,1.3492,1.3492,1.3492,1.3492,1.3492,1.3492,1.3492,1.3528,1.3984,1.4302,1.4717,1.567,1.6479,1.7105,1.7264,1.7279,1.7279,1.7279,1.7274,1.7245,1.7271,1.7274,1.7252,1.7271,1.7279,1.7279,1.7279,1.7279,1.7279,1.7279,1.7279,1.7304,1.723,1.7004,1.6873,1.68,1.6499,1.617,1.5928,1.5626,1.539,1.5138,1.4265,1.3711,1.3499,1.2766,1.196,1.1025,1.1025,1.0641,0.9994,0.9689,0.9432,0.9305,0.9305,0.913,0.8911,0.8911,0.8784,0.8612,0.8612,0.8522,0.8365,0.8559,0.8357,0.8065,0.8028,0.7902,0.7792,0.7751,0.7817,0.7992,0.8174,0.826,0.828,0.8239,0.8126,0.7963,0.7796,0.7739,0.7702,0.7555,0.7484,0.7484,0.7484,0.7317,0.7269,0.7722,0.7601,0.7616,0.8197,0.8296,0.875,1.0161,1.1092,1.1929,1.2783,1.3083,1.3273,1.3419,1.3455,1.3492,1.3492,1.3492,1.3492,1.3492,1.3492,1.3492,1.3492,1.3492,1.3492,1.3492,1.3492,1.3492,1.3492,1.3492,1.3492,1.3492,1.3492,1.3804,1.4123,1.4616,1.5003,1.6051,1.675,1.72,1.7279,1.7279,1.7279,1.7279,1.7279,1.7279,1.7279,1.7279,1.7279,1.7279,1.7279,1.7279,1.7279,1.7279,1.7279,1.7279,1.7279,1.7208,1.6901,1.6718,1.6543,1.6199,1.6016,1.5848,1.5652,1.5644,1.5564,1.5389,1.4957,1.4524,1.4097,1.362,1.2681,1.1284,1.1284,1.0852,0.9994,0.9864,0.9733,0.965,0.965,0.9476,0.9213,0.913,0.8904,0.8611,0.8619,0.8398,0.8178,0.8365,0.8203,0.7894,0.7894,0.7776,0.7665,0.7665,0.7801,0.8016,0.8032,0.8154,0.8256,0.8126,0.7967,0.797,0.8182,0.7939,0.7836,0.8489,0.805,0.7595,0.7978,0.7902,0.7956,0.8641,0.8563,0.8601,0.9205,0.9781,1.0508,1.1563,1.2125,1.2636,1.3273,1.3346,1.3382,1.3492,1.3492,1.3492,1.3492,1.3492,1.3492,1.3492,1.3492,1.3492,1.3492,1.3492,1.3492,1.3492,1.3492,1.3492,1.3492,1.3492,1.3492,1.3499,1.3876,1.4222,1.3849,1.4754,1.5271,1.6271,1.6788,1.7066,1.7239,1.7279,1.7279,1.7279,1.7279,1.7279,1.7279,1.7279,1.7279,1.7279,1.7279,1.7279,1.7279,1.7279,1.7264,1.7252,1.7245,1.7018,1.647,1.6367,1.6074,1.5513,1.5418,1.5389,1.5389,1.5389,1.5389,1.5389,1.5389,1.5041,1.4314,1.4314,1.3457,1.1794,1.1451,1.0939,1.0207,1.0081,0.9994,0.9994,0.9994,0.9845,0.9557,0.9419,0.9035,0.8594,0.862,0.8377,0.8074,0.8258,0.8102,0.7838,0.7867,0.7717,0.7573,0.7596,0.7772,0.7992,0.7926,0.8073,0.8216,0.8047,0.797,0.8108,0.8746,0.8432,0.8237,0.9593,0.8879,0.8089,0.8775,0.8781,0.8898,0.9707,0.9719,0.9759,1.0279,1.1249,1.2147,1.2641,1.2949,1.3244,1.3484,1.3492,1.3492,1.3492,1.3492,1.3492,1.3492,1.3492,1.3492,1.3492,1.3492,1.3492,1.3492,1.3492,1.3492,1.3492,1.3492,1.3492,1.3492,1.3492,1.3492,1.3528,1.4258,1.4673,1.2284,1.3832,1.5428,1.6099,1.6632,1.7066,1.7239,1.7279,1.7279,1.7279,1.7279,1.7279,1.7279,1.7279,1.7279,1.7279,1.7279,1.7279,1.7279,1.7279,1.7223,1.6998,1.6961,1.6815,1.6448,1.6133,1.5943,1.5862,1.5542,1.5389,1.5389,1.5389,1.5389,1.5389,1.5389,1.5347,1.5215,1.5215,1.4699,1.3717,1.2095,1.1241,1.1111,1.0337,0.9994,0.9994,0.9994,0.9765,0.9365,0.9491,0.917,0.8611,0.859,0.8516,0.8325,0.8319,0.8195,0.8047,0.8054,0.7912,0.7777,0.7886,0.7975,0.804,0.8178,0.8142,0.8168,0.8675,0.8723,0.8775,0.9528,0.9669,0.9631,0.9852,0.9744,0.9593,0.9707,0.9718,0.9936,1.0689,1.1007,1.1163,1.1005,1.1439,1.1954,1.2303,1.2731,1.3141,1.3455,1.3492,1.3492,1.3492,1.3492,1.3492,1.3492,1.3492,1.3492,1.3492,1.3492,1.3492,1.3492,1.3492,1.3492,1.3492,1.3492,1.3492,1.3492,1.3492,1.3492,1.3528,1.4258,1.4958,1.2069,1.3827,1.5248,1.5835,1.6153,1.6486,1.7023,1.7106,1.7153,1.7286,1.7186,1.7121,1.725,1.7179,1.7121,1.7304,1.7026,1.685,1.7033,1.6908,1.674,1.6646,1.6631,1.6507,1.6148,1.5994,1.584,1.5615,1.5469,1.5389,1.5389,1.5389,1.5389,1.5389,1.5389,1.5389,1.5389,1.5389,1.4957,1.4097,1.2723,1.1789,1.1278,1.0895,1.0727,1.0727,1.0727,1.0628,1.0409,1.0288,0.9676,0.8809,0.8645,0.8446,0.8247,0.8325,0.826,0.8132,0.8238,0.8212,0.8151,0.8341,0.8375,0.8309,0.823,0.8168,0.8208,0.8308,0.8659,0.9226,1.0045,1.0228,1.0453,1.1354,1.1248,1.1025,1.1471,1.1136,1.0984,1.1774,1.1937,1.1897,1.1894,1.1902,1.2021,1.2374,1.2575,1.2855,1.3177,1.3221,1.3294,1.3477,1.3492,1.3492,1.3492,1.3492,1.3492,1.3492,1.3492,1.3492,1.3492,1.3492,1.3492,1.3492,1.3492,1.3492,1.3492,1.3492,1.3492,1.3528,1.4258,1.4994,1.1844,1.3446,1.4513,1.5266,1.5654,1.598,1.6621,1.6858,1.6904,1.7076,1.6907,1.6851,1.704,1.6894,1.6851,1.7047,1.6682,1.6499,1.6741,1.6565,1.6382,1.6265,1.625,1.6133,1.5826,1.5754,1.5652,1.5411,1.5389,1.5389,1.5389,1.5389,1.5389,1.5389,1.5389,1.5389,1.5389,1.5389,1.5082,1.444,1.3493,1.2681,1.2003,1.1746,1.1794,1.2009,1.1494,1.1289,1.1177,1.0974,1.0269,0.9337,0.8918,0.8564,0.8277,0.843,0.8413,0.8353,0.8457,0.8493,0.8569,0.8727,0.8693,0.8589,0.8348,0.8286,0.8295,0.8198,0.8889,0.9782,1.0608,1.0975,1.1428,1.2592,1.2452,1.215,1.2783,1.2342,1.2028,1.26,1.2527,1.2409,1.2499,1.2215,1.2113,1.2441,1.2419,1.2485,1.284,1.2958,1.3104,1.3345,1.3448,1.3492,1.3492,1.3492,1.3492,1.3492,1.3492,1.3492,1.3492,1.3492,1.3492,1.3492,1.3492,1.3492,1.3492,1.3702,1.3775,1.3811,1.4752,1.549,1.1118,1.2143,1.2837,1.423,1.5181,1.5872,1.6155,1.6391,1.6528,1.6528,1.6488,1.6448,1.6463,1.6448,1.6448,1.6463,1.6433,1.6419,1.6433,1.6426,1.6265,1.5972,1.5943,1.5811,1.5447,1.5411,1.5411,1.5389,1.5389,1.5389,1.5389,1.5389,1.5389,1.5389,1.5389,1.5389,1.5389,1.5389,1.5389,1.5298,1.444,1.4013,1.3928,1.3021,1.3105,1.3844,1.2046,1.1192,1.1035,1.1214,1.0896,1.0276,0.9557,0.9009,0.8651,0.8675,0.8783,0.8932,0.8748,0.8792,0.8978,0.8968,0.8873,0.869,0.8673,0.8541,0.851,0.9062,0.982,1.0602,1.144,1.2187,1.2783,1.2863,1.2863,1.2863,1.29,1.301,1.3027,1.2749,1.2846,1.285,1.2543,1.2215,1.2113,1.2441,1.2222,1.2142,1.247,1.2819,1.3016,1.3031,1.3309,1.3492,1.3492,1.3492,1.3492,1.3492,1.3492,1.3492,1.3492,1.3492,1.3492,1.3492,1.3492,1.3492,1.3492,1.4186,1.453,1.4565,1.6088,1.6793,1.0335,1.1761,1.3166,1.405,1.4494,1.4875,1.5466,1.5826,1.6012,1.6154,1.6125,1.6074,1.6074,1.6074,1.614,1.6382,1.603,1.584,1.6045,1.5899,1.5723,1.5571,1.5564,1.5513,1.5396,1.5389,1.5389,1.5389,1.5389,1.5389,1.5389,1.5389,1.5389,1.5389,1.5389,1.5389,1.5389,1.5389,1.5389,1.5389,1.5082,1.4657,1.4097,1.3753,1.3451,1.319,1.3112,1.3062,1.2998,1.2887,1.2394,1.156,1.0577,1.0105,0.99,0.9306,0.9054,0.9023,0.9209,0.9256,0.9256,0.9554,0.9403,0.9058,0.8923,0.8747,0.8624,0.8684,0.9755,1.0956,1.1223,1.2305,1.3309,1.3309,1.3309,1.3309,1.3309,1.3187,1.3099,1.3194,1.2742,1.2448,1.2782,1.2353,1.204,1.2156,1.2251,1.2353,1.247,1.2804,1.3089,1.3301,1.3426,1.3492,1.3492,1.3492,1.3492,1.3492,1.3492,1.3492,1.3492,1.3941,1.4222,1.4222,1.4689,1.4689,1.4222,1.4466,1.4851,1.5313,1.5877,1.6411,0.9574,1.1158,1.2876,1.3535,1.39,1.4258,1.4909,1.5246,1.5473,1.5694,1.567,1.5667,1.571,1.571,1.5818,1.6023,1.5701,1.5462,1.5681,1.5528,1.5389,1.5389,1.5389,1.5389,1.5389,1.5389,1.5389,1.5389,1.5389,1.5389,1.5389,1.5389,1.5389,1.5389,1.5389,1.5389,1.5389,1.5389,1.5389,1.5389,1.5389,1.5082,1.4531,1.4531,1.4181,1.362,1.4265,1.4356,1.4084,1.3931,1.3461,1.2741,1.1741,1.1281,1.11,1.0539,1.0273,1.015,1.0076,1.0048,0.994,0.9904,0.9676,0.9442,0.9553,0.9381,0.9188,0.9111,1.0268,1.1446,1.1186,1.2298,1.3492,1.3492,1.3492,1.3492,1.3492,1.3323,1.3236,1.3455,1.2972,1.2631,1.3097,1.2723,1.2332,1.2332,1.2419,1.2485,1.2485,1.2804,1.3089,1.3309,1.3433,1.3492,1.3492,1.3492,1.3492,1.3492,1.3739,1.3876,1.3876,1.4573,1.4958,1.4958,1.5455,1.5596,1.5376,1.5376,1.5631,1.6097,1.6341,1.6768,0.0,0.0,0.0,1.2671,1.3464,1.4128,1.4429,1.4669,1.4929,1.5145,1.5113,1.5159,1.534,1.5389,1.5389,1.5389,1.5389,1.5389,1.5389,1.5389,1.5389,1.5389,1.5389,1.5389,1.5389,1.5389,1.5389,1.5389,1.5389,1.5389,1.5389,1.5389,1.5389,1.5389,1.5389,1.5389,1.5389,1.5389,1.5389,1.5389,1.5389,1.5389,1.5389,1.5389,1.5389,1.5389,1.5389,1.4915,1.4139,1.4139,1.3971,1.3661,1.3006,1.2485,1.2178,1.2367,1.2424,1.2253,1.1341,1.1159,1.115,1.0012,0.9653,0.9774,1.0493,1.0455,1.0217,1.0406,1.1342,1.212,1.1372,1.2342,1.3492,1.3492,1.3492,1.3492,1.3492,1.3492,1.3492,1.3492,1.3477,1.347,1.3492,1.3221,1.3009,1.3009,1.2711,1.2548,1.2507,1.2819,1.3023,1.3023,1.3309,1.3492,1.3492,1.3492,1.3492,1.3492,1.4186,1.4601,1.4601,1.5313,1.5745,1.5745,1.5745,1.6167,1.6941,1.6906,1.6897,1.6941,1.7691,1.8008,0.9719,0.0,0.0,0.0,0.0,0.0,1.3726,1.3878,1.4042,1.4517,1.458,1.4605,1.4866,1.5041,1.5173,1.5173,1.5305,1.5389,1.5389,1.5389,1.5389,1.5389,1.5389,1.5389,1.5389,1.5389,1.5389,1.5389,1.5389,1.5389,1.5389,1.5389,1.5389,1.5389,1.5389,1.5389,1.5389,1.5389,1.5389,1.5389,1.5389,1.5389,1.5389,1.5389,1.5389,1.5389,1.5389,1.5257,1.5041,1.5041,1.4991,1.4836,1.4021,1.3655,1.3483,1.2842,1.2535,1.2401,1.2247,1.2157,1.1961,1.1107,1.0731,1.0658,1.0844,1.0579,1.0339,1.1078,1.1771,1.2378,1.2746,1.3156,1.3492,1.3492,1.3492,1.3492,1.3492,1.3492,1.3492,1.3492,1.3111,1.2943,1.3411,1.3221,1.3009,1.3009,1.3133,1.314,1.2899,1.3155,1.336,1.336,1.344,1.3492,1.3492,1.3492,1.3492,1.3492,1.4186,1.4601,1.4601,1.5877,1.6585,1.6585,1.7088,1.7476,1.7691,1.7148,1.7182,1.7691,1.7896,1.8008,0.9788,1.1073,1.2385,1.2498,0.0,0.0,1.3453,1.3588,1.3709,1.4296,1.4386,1.44,1.4664,1.4824,1.4915,1.4915,1.5131,1.5298,1.5389,1.5389,1.5389,1.5389,1.5389,1.5389,1.5389,1.5389,1.5389,1.5389,1.5389,1.5389,1.5389,1.5389,1.5389,1.5389,1.5389,1.5389,1.5389,1.5389,1.5389,1.5389,1.5389,1.5389,1.5389,1.5389,1.5389,1.5389,1.5389,1.5389,1.5389,1.5389,1.5389,1.5347,1.4824,1.4657,1.4566,1.4048,1.3732,1.3614,1.3351,1.3216,1.2971,1.2049,1.173,1.1758,1.2029,1.1791,1.1543,1.2148,1.2284,1.2516,1.3475,1.3594,1.3492,1.3492,1.3492,1.3492,1.3492,1.3492,1.3492,1.3492,1.3184,1.3045,1.3433,1.3338,1.3214,1.3214,1.3375,1.3426,1.3236,1.3375,1.3492,1.3492,1.3492,1.3492,1.3492,1.3492,1.3492,1.3492,1.4186,1.4744,1.5029,1.6228,1.7044,1.7364,1.7794,1.8008,1.8008,1.7579,1.7579,1.8008,1.8008,1.8042,0.936,1.0819,1.241,1.2388,1.2605,0.0,1.3412,1.3486,1.3627,1.4158,1.4227,1.431,1.4546,1.4601,1.4615,1.4643,1.4908,1.5131,1.5347,1.5389,1.5389,1.5389,1.5389,1.5389,1.5389,1.5389,1.5389,1.5389,1.5389,1.5389,1.5389,1.5389,1.5389,1.5389,1.5389,1.5389,1.5389,1.5389,1.5389,1.5389,1.5389,1.5389,1.5389,1.5389,1.5389,1.5389,1.5389,1.5389,1.5389,1.5389,1.5389,1.5389,1.5389,1.5389,1.5389,1.5389,1.5389,1.5298,1.4524,1.423,1.4057,1.2956,1.2678,1.2928,1.353,1.3387,1.308,1.3297,1.295,1.2716,1.3751,1.377,1.3543,1.3506,1.3492,1.3492,1.3492,1.3492,1.3492,1.3492,1.3492,1.3492,1.3492,1.3492,1.3492,1.3492,1.3462,1.3455,1.3492,1.3462,1.3455,1.3492,1.3492,1.3492,1.3492,1.3492,1.3492,1.3492,1.4258,1.5029,1.5675,1.655,1.7329,1.7974,1.8008,1.8008,1.8008,1.8008,1.8008,1.8008,1.8008,1.8144,0.9242,1.0166,1.1208,1.1151,1.1748,0.0,1.2921,1.2831,1.2785,1.3313,1.3252,1.3271,1.3716,1.4008,1.42,1.4399,1.465,1.4866,1.5131,1.5298,1.5389,1.5389,1.5389,1.5389,1.5389,1.5389,1.5389,1.5389,1.5389,1.5389,1.5389,1.5389,1.5389,1.5389,1.5389,1.5389,1.5389,1.5389,1.5389,1.5389,1.5389,1.5389,1.5389,1.5389,1.5389,1.5389,1.5389,1.5389,1.5389,1.5389,1.5389,1.5389,1.5389,1.5389,1.5389,1.5389,1.5389,1.5389,1.5215,1.5131,1.4992,1.4072,1.3592,1.3434,1.3586,1.32,1.2851,1.3644,1.3755,1.3714,1.3922,1.3931,1.3821,1.3558,1.3492,1.3492,1.3492,1.3492,1.3492,1.3492,1.3492,1.3492,1.3492,1.3492,1.3492,1.3492,1.3272,1.3199,1.3462,1.3265,1.3206,1.347,1.3492,1.3492,1.3492,1.3492,1.3492,1.3492,1.476,1.5569,1.571,1.7044,1.7872,1.8008,1.8008,1.8008,1.8008,1.8008,1.8008,1.8008,1.8178,1.8269,1.0273,1.0968,1.1763,1.1711,1.206,0.0,0.0,1.2724,1.2634,1.3188,1.3047,1.2956,1.3398,1.3641,1.3845,1.3993,1.4302,1.4608,1.4741,1.4908,1.5082,1.5215,1.5257,1.5305,1.5389,1.5389,1.5389,1.5389,1.5389,1.5389,1.5389,1.5389,1.5389,1.5389,1.5389,1.5389,1.5389,1.5389,1.5389,1.5389,1.5389,1.5389,1.5389,1.5389,1.5389,1.5389,1.5389,1.5389,1.5389,1.5389,1.5389,1.5389,1.5389,1.5389,1.5389,1.5389,1.5389,1.5389,1.5389,1.5389,1.5318,1.469,1.4405,1.421,1.4097,1.3687,1.3393,1.3861,1.3865,1.3777,1.3945,1.3895,1.3697,1.3536,1.3492,1.3492,1.3492,1.3492,1.3492,1.3492,1.3492,1.3492,1.3492,1.3492,1.3492,1.3492,1.336,1.325,1.325,1.325,1.325,1.325,1.3397,1.3637,1.4013,1.4049,1.4194,1.4581,1.5286,1.5886,1.6271,1.7044,1.7613,1.7974,1.811,1.8144,1.8144,1.8212,1.8212,1.8144,1.8313,1.8438,1.1169,1.1742,1.2497,1.2368,1.251,1.2737,0.0,0.0,0.0,1.3086,1.2967,1.2915,1.3189,1.3357,1.3492,1.3593,1.3952,1.4232,1.4232,1.4448,1.472,1.5084,1.5125,1.5195,1.5385,1.5425,1.5389,1.5389,1.5389,1.5389,1.5389,1.5389,1.5389,1.5389,1.5389,1.5389,1.5389,1.5389,1.5389,1.5389,1.5389,1.5389,1.5389,1.5389,1.5389,1.5389,1.5389,1.5389,1.5389,1.5389,1.5389,1.5389,1.5389,1.5389,1.5389,1.5389,1.5389,1.5389,1.5389,1.5389,1.533,1.5009,1.482,1.4659,1.4377,1.4137,1.3901,1.3967,1.3792,1.3653,1.3916,1.3784,1.3572,1.3514,1.3492,1.3492,1.3492,1.3492,1.3492,1.3492,1.3492,1.3492,1.3492,1.3492,1.3492,1.3492,1.344,1.3331,1.3126,1.3279,1.3323,1.3126,1.3475,1.3941,1.4537,1.4744,1.5065,1.5675,1.5851,1.6237,1.6862,1.707,1.7467,1.8042,1.8236,1.8337,1.8337,1.8482,1.8472,1.8337,1.8482,1.864,1.0377,1.0937,1.1751,1.1516,1.2238,1.2947,1.2713,0.0,1.2522,1.2302,0.0,1.2617,1.2895,0.0,0.0,1.3519,1.3667,1.3687,1.3687,1.3956,1.443,1.5119,1.5127,1.5197,1.5469,1.5423,1.5389,1.5389,1.5389,1.5389,1.5389,1.5389,1.5389,1.5389,1.5389,1.5389,1.5389,1.5389,1.5389,1.5389,1.5389,1.5389,1.5389,1.5389,1.5389,1.5389,1.5389,1.5389,1.5389,1.5389,1.5389,1.5389,1.5389,1.5389,1.5389,1.5389,1.5389,1.5389,1.5389,1.5389,1.533,1.5009,1.456,1.4033,1.3704,1.3579,1.3609,1.3901,1.3953,1.3931,1.3975,1.3953,1.385,1.3565,1.3492,1.3492,1.3492,1.3492,1.3492,1.3492,1.3492,1.3492,1.3492,1.3492,1.3492,1.3492,1.325,1.3155,1.3404,1.3221,1.3162,1.3411,1.4063,1.4502,1.4601,1.5207,1.5604,1.571,1.6376,1.6793,1.6897,1.7706,1.8168,1.8269,1.8414,1.8482,1.8482,1.8674,1.8684,1.8482,1.8674,1.8774,1.1684,1.2023,1.2472,1.2164,1.2612,1.3025,1.2717,1.243,1.2235,1.2396,0.0,0.0,0.0,0.0,0.0,0.0,1.3186,1.3233,1.3353,1.35,1.3871,1.4662,1.4691,1.4839,1.5226,1.5336,1.5389,1.5389,1.5389,1.5389,1.5389,1.5389,1.5389,1.5389,1.5389,1.5389,1.5389,1.5389,1.5389,1.5389,1.5389,1.5389,1.5389,1.5389,1.5389,1.5389,1.5389,1.5389,1.5389,1.5389,1.5389,1.5389,1.5389,1.5389,1.5389,1.5389,1.5389,1.5389,1.5389,1.5389,1.533,1.5009,1.4509,1.396,1.3821,1.3645,1.3521,1.366,1.3697,1.3697,1.3697,1.3697,1.3667,1.3528,1.3638,1.3726,1.3536,1.3792,1.4004,1.3814,1.3968,1.41,1.41,1.3748,1.3492,1.3492,1.3375,1.3272,1.3221,1.3635,1.3919,1.3866,1.4667,1.5419,1.5877,1.6228,1.6585,1.7019,1.7364,1.7569,1.7706,1.809,1.8337,1.8405,1.8583,1.8674,1.8674,1.8875,1.8942,1.8841,1.8942,1.8965,1.304,1.3106,1.3233,1.2795,1.2916,1.3031,1.2681,1.2361,1.2204,1.2439,1.2231,0.0,0.0,0.0,1.2654,1.2783,0.0,1.2969,1.3088,1.3174,1.346,1.4211,1.4431,1.467,1.5055,1.5215,1.5347,1.5389,1.5389,1.5389,1.5389,1.5389,1.5389,1.5389,1.5389,1.5389,1.5389,1.5389,1.5389,1.5389,1.5389,1.5389,1.5389,1.5389,1.5389,1.5389,1.5389,1.5389,1.5389,1.5389,1.5389,1.5389,1.5389,1.5389,1.5389,1.5389,1.5389,1.5389,1.5389,1.533,1.5214,1.498,1.4567,1.4152,1.4152,1.3887,1.3645,1.374,1.3631,1.3514,1.3601,1.3565,1.3521,1.3609,1.3814,1.3945,1.3799,1.4174,1.4438,1.4196,1.4342,1.4511,1.4511,1.4004,1.3631,1.3631,1.3725,1.3721,1.3474,1.4281,1.4825,1.4557,1.5435,1.6271,1.6862,1.7079,1.7432,1.7974,1.8042,1.8144,1.8303,1.8371,1.8472,1.8583,1.8774,1.8875,1.8875,1.9042,1.9108,1.9108,1.9108,1.9108,1.3679,1.3653,1.3695,1.2887,1.2916,1.2939,1.2445,1.2506,1.2542,1.2047,1.233,1.2681,1.2698,1.2643,1.2591,1.2609,1.277,0.0,0.0,1.3088,1.3434,1.4057,1.4557,1.4919,1.5076,1.509,1.5173,1.5389,1.5389,1.5389,1.5389,1.5389,1.5389,1.5389,1.5389,1.5389,1.5389,1.5389,1.5389,1.5389,1.5389,1.5389,1.5389,1.5389,1.5389,1.5389,1.5389,1.5389,1.5389,1.5389,1.5389,1.5389,1.5389,1.5389,1.5389,1.5389,1.5389,1.5389,1.5389,1.5185,1.4915,1.4907,1.4721,1.4489,1.4489,1.4262,1.4071,1.4386,1.3982,1.3565,1.3887,1.3733,1.3579,1.3894,1.3975,1.4108,1.4408,1.4489,1.4504,1.4496,1.4496,1.4511,1.4511,1.4225,1.3967,1.3967,1.4336,1.4565,1.455,1.5199,1.5666,1.5658,1.6367,1.6862,1.6897,1.7545,1.7974,1.8008,1.8178,1.8303,1.8303,1.8607,1.8774,1.8774,1.9008,1.9108,1.9108,1.9108,1.9108,1.9108,1.9108,1.9108,1.4091,1.4249,1.4234,1.3411,1.3447,1.3421,1.2517,1.2379,1.2397,1.2216,1.2324,1.2469,1.2686,1.2558,1.2453,1.2566,1.2519,1.2462,0.0,1.279,1.3018,1.3219,1.3879,1.4276,1.4247,1.4757,1.5087,1.5082,1.5265,1.5389,1.5389,1.5389,1.5389,1.5389,1.5389,1.5389,1.5389,1.5389,1.5389,1.5389,1.5389,1.5389,1.5389,1.5389,1.5389,1.5389,1.5389,1.5389,1.5389,1.5389,1.5389,1.5389,1.5389,1.5389,1.5389,1.5389,1.5389,1.5389,1.5389,1.5316,1.5221,1.5221,1.5002,1.4739,1.4739,1.456,1.432,1.4218,1.4181,1.4152,1.4049,1.41,1.421,1.4313,1.4465,1.4589,1.4494,1.4801,1.5043,1.4823,1.4955,1.5109,1.5109,1.4831,1.4734,1.5065,1.5259,1.5428,1.5749,1.6446,1.6776,1.6508,1.7182,1.7613,1.7613,1.7998,1.8212,1.8212,1.8347,1.8472,1.864,1.8741,1.8875,1.9008,1.9075,1.9108,1.9108,1.9108,1.9108,1.9108,1.9108,1.9108,1.4637,1.4694,1.4674,1.3983,1.3919,1.3779,1.2832,1.2656,1.2668,1.2479,1.2432,1.2547,1.2887,1.265,1.2463,1.262,0.0,1.2378,0.0,1.2568,1.2681,1.2636,1.327,1.3769,1.3872,1.4284,1.463,1.4953,1.508,1.5182,1.5382,1.5389,1.5389,1.5389,1.5389,1.5389,1.5389,1.5389,1.5389,1.5389,1.5389,1.5389,1.5389,1.5389,1.5389,1.5389,1.5389,1.5389,1.5389,1.5389,1.5389,1.5389,1.5389,1.5389,1.5389,1.5389,1.5389,1.5389,1.5389,1.5389,1.5389,1.5389,1.5243,1.5075,1.5075,1.4889,1.4618,1.4523,1.4479,1.4489,1.4348,1.4399,1.4533,1.4611,1.4754,1.4878,1.4831,1.5138,1.533,1.5119,1.5243,1.5389,1.5389,1.5214,1.5153,1.5396,1.5806,1.6254,1.6542,1.7479,1.8037,1.7791,1.8033,1.8267,1.8336,1.8507,1.861,1.861,1.8596,1.864,1.8808,1.8875,1.8975,1.9108,1.9108,1.9108,1.9108,1.9108,1.9108,1.9108,1.9108,1.9108]}]]